<?xml version="1.0" encoding="UTF-8" standalone="no" ?>
<gpx xmlns="http://www.topografix.com/GPX/1/1" xmlns:xsi="http://www.w3.org/2001/XMLSchema-instance" xsi:schemaLocation="http://www.topografix.com/GPX/1/1 http://www.topografix.com/GPX/1/1/gpx.xsd" version="1.1" creator="VisuGPX - https://www.visugpx.com">
  <metadata>
    <name>Maison forestière de La Marine&quot;Essai&quot;</name>
  </metadata>
  <trk>
    <name><![CDATA[Maison forestière de La Marine"Essai"_1]]></name>
    <extensions>
      <line xmlns="http://www.topografix.com/GPX/gpx_style/0/2">
        <color>0000FF</color>
        <width>4</width>
      </line>
    </extensions>
    <trkseg>
      <trkpt lat="46.83452" lon="6.00945">
        <ele>825.5</ele>
        <time>2022-05-01T12:10:42Z</time>
      </trkpt>
      <trkpt lat="46.83452" lon="6.00938">
        <ele>827.6</ele>
        <time>2022-05-01T12:14:47Z</time>
      </trkpt>
      <trkpt lat="46.83449" lon="6.00933">
        <ele>828.9</ele>
        <time>2022-05-01T12:15:05Z</time>
      </trkpt>
      <trkpt lat="46.83445" lon="6.00928">
        <ele>829.2</ele>
        <time>2022-05-01T12:15:10Z</time>
      </trkpt>
      <trkpt lat="46.83443" lon="6.00922">
        <ele>829.1</ele>
        <time>2022-05-01T12:15:16Z</time>
      </trkpt>
      <trkpt lat="46.83442" lon="6.00915">
        <ele>828.4</ele>
        <time>2022-05-01T12:15:21Z</time>
      </trkpt>
      <trkpt lat="46.83443" lon="6.00909">
        <ele>827.6</ele>
        <time>2022-05-01T12:15:25Z</time>
      </trkpt>
      <trkpt lat="46.83442" lon="6.00902">
        <ele>825.9</ele>
        <time>2022-05-01T12:15:32Z</time>
      </trkpt>
      <trkpt lat="46.83438" lon="6.00898">
        <ele>825.2</ele>
        <time>2022-05-01T12:15:36Z</time>
      </trkpt>
      <trkpt lat="46.83434" lon="6.00895">
        <ele>825</ele>
        <time>2022-05-01T12:15:42Z</time>
      </trkpt>
      <trkpt lat="46.83429" lon="6.00892">
        <ele>825.4</ele>
        <time>2022-05-01T12:15:53Z</time>
      </trkpt>
      <trkpt lat="46.83425" lon="6.00893">
        <ele>825.8</ele>
        <time>2022-05-01T12:15:57Z</time>
      </trkpt>
      <trkpt lat="46.8342" lon="6.00892">
        <ele>826.8</ele>
        <time>2022-05-01T12:16:01Z</time>
      </trkpt>
      <trkpt lat="46.83415" lon="6.00889">
        <ele>828.8</ele>
        <time>2022-05-01T12:16:07Z</time>
      </trkpt>
      <trkpt lat="46.8341" lon="6.00887">
        <ele>830.4</ele>
        <time>2022-05-01T12:16:12Z</time>
      </trkpt>
      <trkpt lat="46.83406" lon="6.00883">
        <ele>830.9</ele>
        <time>2022-05-01T12:16:17Z</time>
      </trkpt>
      <trkpt lat="46.83402" lon="6.00877">
        <ele>831.3</ele>
        <time>2022-05-01T12:16:22Z</time>
      </trkpt>
      <trkpt lat="46.83397" lon="6.00872">
        <ele>831.2</ele>
        <time>2022-05-01T12:16:26Z</time>
      </trkpt>
      <trkpt lat="46.83393" lon="6.00868">
        <ele>830.3</ele>
        <time>2022-05-01T12:16:31Z</time>
      </trkpt>
      <trkpt lat="46.83388" lon="6.00865">
        <ele>829.1</ele>
        <time>2022-05-01T12:16:36Z</time>
      </trkpt>
      <trkpt lat="46.83384" lon="6.0086">
        <ele>828.3</ele>
        <time>2022-05-01T12:16:41Z</time>
      </trkpt>
      <trkpt lat="46.8338" lon="6.00855">
        <ele>827.6</ele>
        <time>2022-05-01T12:16:47Z</time>
      </trkpt>
      <trkpt lat="46.83376" lon="6.00851">
        <ele>827.1</ele>
        <time>2022-05-01T12:16:51Z</time>
      </trkpt>
      <trkpt lat="46.83372" lon="6.00846">
        <ele>827</ele>
        <time>2022-05-01T12:16:55Z</time>
      </trkpt>
      <trkpt lat="46.83368" lon="6.00842">
        <ele>827</ele>
        <time>2022-05-01T12:16:59Z</time>
      </trkpt>
      <trkpt lat="46.83366" lon="6.00835">
        <ele>827.4</ele>
        <time>2022-05-01T12:17:04Z</time>
      </trkpt>
      <trkpt lat="46.83362" lon="6.0083">
        <ele>828.8</ele>
        <time>2022-05-01T12:17:10Z</time>
      </trkpt>
      <trkpt lat="46.83357" lon="6.00828">
        <ele>829.4</ele>
        <time>2022-05-01T12:17:15Z</time>
      </trkpt>
      <trkpt lat="46.83353" lon="6.00825">
        <ele>830.1</ele>
        <time>2022-05-01T12:17:19Z</time>
      </trkpt>
      <trkpt lat="46.83348" lon="6.00821">
        <ele>831.2</ele>
        <time>2022-05-01T12:17:24Z</time>
      </trkpt>
      <trkpt lat="46.83344" lon="6.00818">
        <ele>832.4</ele>
        <time>2022-05-01T12:17:28Z</time>
      </trkpt>
      <trkpt lat="46.8334" lon="6.00814">
        <ele>833.9</ele>
        <time>2022-05-01T12:17:33Z</time>
      </trkpt>
      <trkpt lat="46.83336" lon="6.00807">
        <ele>834.8</ele>
        <time>2022-05-01T12:17:38Z</time>
      </trkpt>
      <trkpt lat="46.83332" lon="6.00802">
        <ele>835.4</ele>
        <time>2022-05-01T12:17:42Z</time>
      </trkpt>
      <trkpt lat="46.83328" lon="6.00798">
        <ele>835.8</ele>
        <time>2022-05-01T12:17:46Z</time>
      </trkpt>
      <trkpt lat="46.83325" lon="6.00793">
        <ele>836.2</ele>
        <time>2022-05-01T12:17:51Z</time>
      </trkpt>
      <trkpt lat="46.8332" lon="6.00788">
        <ele>836.7</ele>
        <time>2022-05-01T12:17:56Z</time>
      </trkpt>
      <trkpt lat="46.83317" lon="6.00784">
        <ele>836.8</ele>
        <time>2022-05-01T12:18:00Z</time>
      </trkpt>
      <trkpt lat="46.83313" lon="6.00778">
        <ele>836.1</ele>
        <time>2022-05-01T12:18:05Z</time>
      </trkpt>
      <trkpt lat="46.83309" lon="6.00774">
        <ele>835.2</ele>
        <time>2022-05-01T12:18:10Z</time>
      </trkpt>
      <trkpt lat="46.83304" lon="6.0077">
        <ele>834.1</ele>
        <time>2022-05-01T12:18:14Z</time>
      </trkpt>
      <trkpt lat="46.83301" lon="6.00764">
        <ele>833.1</ele>
        <time>2022-05-01T12:18:19Z</time>
      </trkpt>
      <trkpt lat="46.83297" lon="6.0076">
        <ele>832.7</ele>
        <time>2022-05-01T12:18:24Z</time>
      </trkpt>
      <trkpt lat="46.83293" lon="6.00756">
        <ele>833</ele>
        <time>2022-05-01T12:18:29Z</time>
      </trkpt>
      <trkpt lat="46.83288" lon="6.00752">
        <ele>833.9</ele>
        <time>2022-05-01T12:18:34Z</time>
      </trkpt>
      <trkpt lat="46.83283" lon="6.0075">
        <ele>834.9</ele>
        <time>2022-05-01T12:18:38Z</time>
      </trkpt>
      <trkpt lat="46.83279" lon="6.00746">
        <ele>836.1</ele>
        <time>2022-05-01T12:18:43Z</time>
      </trkpt>
      <trkpt lat="46.83275" lon="6.00742">
        <ele>837</ele>
        <time>2022-05-01T12:18:48Z</time>
      </trkpt>
      <trkpt lat="46.83272" lon="6.00737">
        <ele>837.4</ele>
        <time>2022-05-01T12:18:52Z</time>
      </trkpt>
      <trkpt lat="46.83267" lon="6.00735">
        <ele>837.6</ele>
        <time>2022-05-01T12:18:56Z</time>
      </trkpt>
      <trkpt lat="46.83263" lon="6.00731">
        <ele>837.9</ele>
        <time>2022-05-01T12:19:01Z</time>
      </trkpt>
      <trkpt lat="46.83258" lon="6.00727">
        <ele>838.1</ele>
        <time>2022-05-01T12:19:06Z</time>
      </trkpt>
      <trkpt lat="46.83254" lon="6.00724">
        <ele>838.5</ele>
        <time>2022-05-01T12:19:11Z</time>
      </trkpt>
      <trkpt lat="46.83249" lon="6.00718">
        <ele>839</ele>
        <time>2022-05-01T12:19:16Z</time>
      </trkpt>
      <trkpt lat="46.83245" lon="6.00715">
        <ele>839.2</ele>
        <time>2022-05-01T12:19:20Z</time>
      </trkpt>
      <trkpt lat="46.8324" lon="6.00711">
        <ele>839.7</ele>
        <time>2022-05-01T12:19:25Z</time>
      </trkpt>
      <trkpt lat="46.83237" lon="6.00706">
        <ele>840.5</ele>
        <time>2022-05-01T12:19:29Z</time>
      </trkpt>
      <trkpt lat="46.83233" lon="6.007">
        <ele>841.9</ele>
        <time>2022-05-01T12:19:34Z</time>
      </trkpt>
      <trkpt lat="46.83229" lon="6.00696">
        <ele>842.8</ele>
        <time>2022-05-01T12:19:39Z</time>
      </trkpt>
      <trkpt lat="46.83225" lon="6.00692">
        <ele>843.4</ele>
        <time>2022-05-01T12:19:43Z</time>
      </trkpt>
      <trkpt lat="46.8322" lon="6.00689">
        <ele>843.2</ele>
        <time>2022-05-01T12:19:47Z</time>
      </trkpt>
      <trkpt lat="46.83215" lon="6.00685">
        <ele>842.9</ele>
        <time>2022-05-01T12:19:51Z</time>
      </trkpt>
      <trkpt lat="46.83211" lon="6.00681">
        <ele>842.7</ele>
        <time>2022-05-01T12:19:55Z</time>
      </trkpt>
      <trkpt lat="46.83206" lon="6.00677">
        <ele>842.5</ele>
        <time>2022-05-01T12:19:59Z</time>
      </trkpt>
      <trkpt lat="46.83202" lon="6.00673">
        <ele>842</ele>
        <time>2022-05-01T12:20:04Z</time>
      </trkpt>
      <trkpt lat="46.83198" lon="6.00671">
        <ele>841.5</ele>
        <time>2022-05-01T12:20:09Z</time>
      </trkpt>
      <trkpt lat="46.83193" lon="6.0067">
        <ele>841.2</ele>
        <time>2022-05-01T12:20:14Z</time>
      </trkpt>
      <trkpt lat="46.83188" lon="6.00667">
        <ele>840.7</ele>
        <time>2022-05-01T12:20:19Z</time>
      </trkpt>
      <trkpt lat="46.83182" lon="6.00665">
        <ele>840.6</ele>
        <time>2022-05-01T12:20:23Z</time>
      </trkpt>
      <trkpt lat="46.83177" lon="6.00664">
        <ele>841</ele>
        <time>2022-05-01T12:20:27Z</time>
      </trkpt>
      <trkpt lat="46.83173" lon="6.00665">
        <ele>841.6</ele>
        <time>2022-05-01T12:20:33Z</time>
      </trkpt>
      <trkpt lat="46.83168" lon="6.00666">
        <ele>841.8</ele>
        <time>2022-05-01T12:20:38Z</time>
      </trkpt>
      <trkpt lat="46.83162" lon="6.00667">
        <ele>841.7</ele>
        <time>2022-05-01T12:20:42Z</time>
      </trkpt>
      <trkpt lat="46.83157" lon="6.00667">
        <ele>841.7</ele>
        <time>2022-05-01T12:20:46Z</time>
      </trkpt>
      <trkpt lat="46.83152" lon="6.00667">
        <ele>842.2</ele>
        <time>2022-05-01T12:20:51Z</time>
      </trkpt>
      <trkpt lat="46.83147" lon="6.00667">
        <ele>842.7</ele>
        <time>2022-05-01T12:20:56Z</time>
      </trkpt>
      <trkpt lat="46.83142" lon="6.00667">
        <ele>842.8</ele>
        <time>2022-05-01T12:21:00Z</time>
      </trkpt>
      <trkpt lat="46.83137" lon="6.00666">
        <ele>842.5</ele>
        <time>2022-05-01T12:21:04Z</time>
      </trkpt>
      <trkpt lat="46.83132" lon="6.00668">
        <ele>841.9</ele>
        <time>2022-05-01T12:21:09Z</time>
      </trkpt>
      <trkpt lat="46.83127" lon="6.00669">
        <ele>841.3</ele>
        <time>2022-05-01T12:21:15Z</time>
      </trkpt>
      <trkpt lat="46.83122" lon="6.00669">
        <ele>840.9</ele>
        <time>2022-05-01T12:21:20Z</time>
      </trkpt>
      <trkpt lat="46.83117" lon="6.0067">
        <ele>841</ele>
        <time>2022-05-01T12:21:26Z</time>
      </trkpt>
      <trkpt lat="46.83112" lon="6.0067">
        <ele>840.7</ele>
        <time>2022-05-01T12:21:30Z</time>
      </trkpt>
      <trkpt lat="46.83107" lon="6.00669">
        <ele>840.5</ele>
        <time>2022-05-01T12:21:35Z</time>
      </trkpt>
      <trkpt lat="46.83102" lon="6.00671">
        <ele>840.5</ele>
        <time>2022-05-01T12:21:40Z</time>
      </trkpt>
      <trkpt lat="46.83098" lon="6.00673">
        <ele>840.6</ele>
        <time>2022-05-01T12:21:44Z</time>
      </trkpt>
      <trkpt lat="46.83093" lon="6.00675">
        <ele>840.4</ele>
        <time>2022-05-01T12:21:49Z</time>
      </trkpt>
      <trkpt lat="46.83088" lon="6.00675">
        <ele>839.8</ele>
        <time>2022-05-01T12:21:53Z</time>
      </trkpt>
      <trkpt lat="46.83083" lon="6.00676">
        <ele>839.1</ele>
        <time>2022-05-01T12:21:57Z</time>
      </trkpt>
      <trkpt lat="46.83077" lon="6.00676">
        <ele>838.4</ele>
        <time>2022-05-01T12:22:01Z</time>
      </trkpt>
      <trkpt lat="46.83072" lon="6.00676">
        <ele>837.8</ele>
        <time>2022-05-01T12:22:05Z</time>
      </trkpt>
      <trkpt lat="46.83068" lon="6.00677">
        <ele>837.4</ele>
        <time>2022-05-01T12:22:08Z</time>
      </trkpt>
      <trkpt lat="46.83062" lon="6.00678">
        <ele>837.1</ele>
        <time>2022-05-01T12:22:12Z</time>
      </trkpt>
      <trkpt lat="46.83056" lon="6.0068">
        <ele>836.9</ele>
        <time>2022-05-01T12:22:16Z</time>
      </trkpt>
      <trkpt lat="46.83052" lon="6.00682">
        <ele>836.7</ele>
        <time>2022-05-01T12:22:19Z</time>
      </trkpt>
      <trkpt lat="46.83047" lon="6.00682">
        <ele>836.3</ele>
        <time>2022-05-01T12:22:23Z</time>
      </trkpt>
      <trkpt lat="46.83041" lon="6.00683">
        <ele>836.2</ele>
        <time>2022-05-01T12:22:28Z</time>
      </trkpt>
      <trkpt lat="46.83037" lon="6.00684">
        <ele>836.7</ele>
        <time>2022-05-01T12:22:33Z</time>
      </trkpt>
      <trkpt lat="46.83032" lon="6.00685">
        <ele>838.2</ele>
        <time>2022-05-01T12:22:39Z</time>
      </trkpt>
      <trkpt lat="46.83027" lon="6.00686">
        <ele>840</ele>
        <time>2022-05-01T12:22:44Z</time>
      </trkpt>
      <trkpt lat="46.83022" lon="6.00685">
        <ele>841.1</ele>
        <time>2022-05-01T12:22:47Z</time>
      </trkpt>
      <trkpt lat="46.83017" lon="6.00684">
        <ele>842.4</ele>
        <time>2022-05-01T12:22:51Z</time>
      </trkpt>
      <trkpt lat="46.83012" lon="6.00684">
        <ele>842.9</ele>
        <time>2022-05-01T12:22:55Z</time>
      </trkpt>
      <trkpt lat="46.83007" lon="6.00685">
        <ele>841.6</ele>
        <time>2022-05-01T12:23:00Z</time>
      </trkpt>
      <trkpt lat="46.83002" lon="6.00684">
        <ele>840.2</ele>
        <time>2022-05-01T12:23:04Z</time>
      </trkpt>
      <trkpt lat="46.82997" lon="6.00683">
        <ele>838.3</ele>
        <time>2022-05-01T12:23:09Z</time>
      </trkpt>
      <trkpt lat="46.82992" lon="6.00684">
        <ele>836</ele>
        <time>2022-05-01T12:23:14Z</time>
      </trkpt>
      <trkpt lat="46.82988" lon="6.00685">
        <ele>834.3</ele>
        <time>2022-05-01T12:23:18Z</time>
      </trkpt>
      <trkpt lat="46.82983" lon="6.00681">
        <ele>833.3</ele>
        <time>2022-05-01T12:23:23Z</time>
      </trkpt>
      <trkpt lat="46.82977" lon="6.00681">
        <ele>833.6</ele>
        <time>2022-05-01T12:23:28Z</time>
      </trkpt>
      <trkpt lat="46.82973" lon="6.00683">
        <ele>834.7</ele>
        <time>2022-05-01T12:23:32Z</time>
      </trkpt>
      <trkpt lat="46.82968" lon="6.00685">
        <ele>836.3</ele>
        <time>2022-05-01T12:23:40Z</time>
      </trkpt>
      <trkpt lat="46.82963" lon="6.00681">
        <ele>836.5</ele>
        <time>2022-05-01T12:23:46Z</time>
      </trkpt>
      <trkpt lat="46.82959" lon="6.00678">
        <ele>836.6</ele>
        <time>2022-05-01T12:23:49Z</time>
      </trkpt>
      <trkpt lat="46.82955" lon="6.00674">
        <ele>836.6</ele>
        <time>2022-05-01T12:23:52Z</time>
      </trkpt>
      <trkpt lat="46.82951" lon="6.00671">
        <ele>836.8</ele>
        <time>2022-05-01T12:23:56Z</time>
      </trkpt>
      <trkpt lat="46.82946" lon="6.0067">
        <ele>837</ele>
        <time>2022-05-01T12:24:01Z</time>
      </trkpt>
      <trkpt lat="46.82942" lon="6.00669">
        <ele>836.7</ele>
        <time>2022-05-01T12:24:06Z</time>
      </trkpt>
      <trkpt lat="46.82937" lon="6.00666">
        <ele>836</ele>
        <time>2022-05-01T12:24:11Z</time>
      </trkpt>
      <trkpt lat="46.82932" lon="6.00664">
        <ele>835.4</ele>
        <time>2022-05-01T12:24:16Z</time>
      </trkpt>
      <trkpt lat="46.82927" lon="6.00662">
        <ele>836</ele>
        <time>2022-05-01T12:24:25Z</time>
      </trkpt>
      <trkpt lat="46.82923" lon="6.00659">
        <ele>836</ele>
        <time>2022-05-01T12:24:31Z</time>
      </trkpt>
      <trkpt lat="46.82919" lon="6.00653">
        <ele>836</ele>
        <time>2022-05-01T12:24:36Z</time>
      </trkpt>
      <trkpt lat="46.82916" lon="6.00648">
        <ele>835.9</ele>
        <time>2022-05-01T12:24:40Z</time>
      </trkpt>
      <trkpt lat="46.82911" lon="6.00645">
        <ele>835.5</ele>
        <time>2022-05-01T12:24:45Z</time>
      </trkpt>
      <trkpt lat="46.82905" lon="6.00645">
        <ele>835.6</ele>
        <time>2022-05-01T12:24:50Z</time>
      </trkpt>
      <trkpt lat="46.829" lon="6.00644">
        <ele>835.4</ele>
        <time>2022-05-01T12:24:54Z</time>
      </trkpt>
      <trkpt lat="46.82895" lon="6.00642">
        <ele>835.3</ele>
        <time>2022-05-01T12:24:59Z</time>
      </trkpt>
      <trkpt lat="46.82891" lon="6.00638">
        <ele>835</ele>
        <time>2022-05-01T12:25:03Z</time>
      </trkpt>
      <trkpt lat="46.82886" lon="6.00634">
        <ele>834.7</ele>
        <time>2022-05-01T12:25:06Z</time>
      </trkpt>
      <trkpt lat="46.82881" lon="6.00631">
        <ele>834.5</ele>
        <time>2022-05-01T12:25:10Z</time>
      </trkpt>
      <trkpt lat="46.82877" lon="6.00626">
        <ele>834.3</ele>
        <time>2022-05-01T12:25:15Z</time>
      </trkpt>
      <trkpt lat="46.82873" lon="6.00623">
        <ele>833.7</ele>
        <time>2022-05-01T12:25:21Z</time>
      </trkpt>
      <trkpt lat="46.82867" lon="6.00623">
        <ele>833.2</ele>
        <time>2022-05-01T12:25:27Z</time>
      </trkpt>
      <trkpt lat="46.82863" lon="6.00624">
        <ele>832.6</ele>
        <time>2022-05-01T12:25:32Z</time>
      </trkpt>
      <trkpt lat="46.82858" lon="6.00626">
        <ele>832.1</ele>
        <time>2022-05-01T12:25:36Z</time>
      </trkpt>
      <trkpt lat="46.82853" lon="6.00627">
        <ele>831.7</ele>
        <time>2022-05-01T12:25:41Z</time>
      </trkpt>
      <trkpt lat="46.82848" lon="6.00626">
        <ele>831.2</ele>
        <time>2022-05-01T12:25:45Z</time>
      </trkpt>
      <trkpt lat="46.82844" lon="6.00623">
        <ele>831.1</ele>
        <time>2022-05-01T12:25:48Z</time>
      </trkpt>
      <trkpt lat="46.82839" lon="6.00621">
        <ele>831.2</ele>
        <time>2022-05-01T12:25:52Z</time>
      </trkpt>
      <trkpt lat="46.82834" lon="6.0062">
        <ele>831</ele>
        <time>2022-05-01T12:25:58Z</time>
      </trkpt>
      <trkpt lat="46.8283" lon="6.00614">
        <ele>830.9</ele>
        <time>2022-05-01T12:26:01Z</time>
      </trkpt>
      <trkpt lat="46.82827" lon="6.00608">
        <ele>831</ele>
        <time>2022-05-01T12:26:05Z</time>
      </trkpt>
      <trkpt lat="46.82823" lon="6.00604">
        <ele>831.8</ele>
        <time>2022-05-01T12:26:09Z</time>
      </trkpt>
      <trkpt lat="46.82819" lon="6.00599">
        <ele>832.7</ele>
        <time>2022-05-01T12:26:14Z</time>
      </trkpt>
      <trkpt lat="46.82815" lon="6.00595">
        <ele>833.7</ele>
        <time>2022-05-01T12:26:19Z</time>
      </trkpt>
      <trkpt lat="46.8281" lon="6.00591">
        <ele>834.6</ele>
        <time>2022-05-01T12:26:23Z</time>
      </trkpt>
      <trkpt lat="46.82805" lon="6.0059">
        <ele>835.3</ele>
        <time>2022-05-01T12:26:27Z</time>
      </trkpt>
      <trkpt lat="46.828" lon="6.00587">
        <ele>836</ele>
        <time>2022-05-01T12:26:31Z</time>
      </trkpt>
      <trkpt lat="46.82796" lon="6.00584">
        <ele>836.8</ele>
        <time>2022-05-01T12:26:35Z</time>
      </trkpt>
      <trkpt lat="46.8279" lon="6.00583">
        <ele>837.8</ele>
        <time>2022-05-01T12:26:39Z</time>
      </trkpt>
      <trkpt lat="46.82785" lon="6.00582">
        <ele>839.3</ele>
        <time>2022-05-01T12:26:43Z</time>
      </trkpt>
      <trkpt lat="46.8278" lon="6.00581">
        <ele>840.2</ele>
        <time>2022-05-01T12:26:46Z</time>
      </trkpt>
      <trkpt lat="46.82775" lon="6.00577">
        <ele>841.4</ele>
        <time>2022-05-01T12:26:50Z</time>
      </trkpt>
      <trkpt lat="46.8277" lon="6.00574">
        <ele>842.5</ele>
        <time>2022-05-01T12:26:54Z</time>
      </trkpt>
      <trkpt lat="46.82766" lon="6.00571">
        <ele>843.9</ele>
        <time>2022-05-01T12:26:58Z</time>
      </trkpt>
      <trkpt lat="46.82762" lon="6.00566">
        <ele>845.1</ele>
        <time>2022-05-01T12:27:02Z</time>
      </trkpt>
      <trkpt lat="46.82758" lon="6.00562">
        <ele>846.3</ele>
        <time>2022-05-01T12:27:06Z</time>
      </trkpt>
      <trkpt lat="46.82753" lon="6.00561">
        <ele>847.1</ele>
        <time>2022-05-01T12:27:10Z</time>
      </trkpt>
      <trkpt lat="46.82749" lon="6.00558">
        <ele>847.8</ele>
        <time>2022-05-01T12:27:15Z</time>
      </trkpt>
      <trkpt lat="46.82746" lon="6.00552">
        <ele>848.3</ele>
        <time>2022-05-01T12:27:21Z</time>
      </trkpt>
      <trkpt lat="46.82741" lon="6.00548">
        <ele>848.2</ele>
        <time>2022-05-01T12:27:25Z</time>
      </trkpt>
      <trkpt lat="46.82736" lon="6.00545">
        <ele>848.1</ele>
        <time>2022-05-01T12:27:29Z</time>
      </trkpt>
      <trkpt lat="46.82733" lon="6.00539">
        <ele>848.1</ele>
        <time>2022-05-01T12:27:34Z</time>
      </trkpt>
      <trkpt lat="46.82729" lon="6.00535">
        <ele>847.9</ele>
        <time>2022-05-01T12:27:38Z</time>
      </trkpt>
      <trkpt lat="46.82724" lon="6.00531">
        <ele>847.8</ele>
        <time>2022-05-01T12:27:42Z</time>
      </trkpt>
      <trkpt lat="46.82719" lon="6.00528">
        <ele>847.7</ele>
        <time>2022-05-01T12:27:47Z</time>
      </trkpt>
      <trkpt lat="46.82715" lon="6.00527">
        <ele>847.3</ele>
        <time>2022-05-01T12:27:52Z</time>
      </trkpt>
      <trkpt lat="46.8271" lon="6.00526">
        <ele>846.5</ele>
        <time>2022-05-01T12:27:57Z</time>
      </trkpt>
      <trkpt lat="46.82705" lon="6.00524">
        <ele>845.9</ele>
        <time>2022-05-01T12:28:00Z</time>
      </trkpt>
      <trkpt lat="46.827" lon="6.0052">
        <ele>845.2</ele>
        <time>2022-05-01T12:28:04Z</time>
      </trkpt>
      <trkpt lat="46.82696" lon="6.00519">
        <ele>845.1</ele>
        <time>2022-05-01T12:28:08Z</time>
      </trkpt>
      <trkpt lat="46.82691" lon="6.00516">
        <ele>845.3</ele>
        <time>2022-05-01T12:28:12Z</time>
      </trkpt>
      <trkpt lat="46.82686" lon="6.00517">
        <ele>845.7</ele>
        <time>2022-05-01T12:28:16Z</time>
      </trkpt>
      <trkpt lat="46.82681" lon="6.00517">
        <ele>845.7</ele>
        <time>2022-05-01T12:28:21Z</time>
      </trkpt>
      <trkpt lat="46.82678" lon="6.00512">
        <ele>845.2</ele>
        <time>2022-05-01T12:28:26Z</time>
      </trkpt>
      <trkpt lat="46.82676" lon="6.00505">
        <ele>844.4</ele>
        <time>2022-05-01T12:28:30Z</time>
      </trkpt>
      <trkpt lat="46.82671" lon="6.00501">
        <ele>843.3</ele>
        <time>2022-05-01T12:28:35Z</time>
      </trkpt>
      <trkpt lat="46.82666" lon="6.00498">
        <ele>842</ele>
        <time>2022-05-01T12:28:40Z</time>
      </trkpt>
      <trkpt lat="46.8266" lon="6.00495">
        <ele>840.8</ele>
        <time>2022-05-01T12:28:44Z</time>
      </trkpt>
      <trkpt lat="46.82655" lon="6.00491">
        <ele>840</ele>
        <time>2022-05-01T12:28:48Z</time>
      </trkpt>
      <trkpt lat="46.82651" lon="6.00488">
        <ele>839.7</ele>
        <time>2022-05-01T12:28:51Z</time>
      </trkpt>
      <trkpt lat="46.82646" lon="6.00484">
        <ele>839.8</ele>
        <time>2022-05-01T12:28:55Z</time>
      </trkpt>
      <trkpt lat="46.82642" lon="6.00482">
        <ele>840.3</ele>
        <time>2022-05-01T12:28:59Z</time>
      </trkpt>
      <trkpt lat="46.82637" lon="6.0048">
        <ele>840.7</ele>
        <time>2022-05-01T12:29:04Z</time>
      </trkpt>
      <trkpt lat="46.82632" lon="6.00479">
        <ele>841.5</ele>
        <time>2022-05-01T12:29:09Z</time>
      </trkpt>
      <trkpt lat="46.82627" lon="6.00475">
        <ele>841.7</ele>
        <time>2022-05-01T12:29:14Z</time>
      </trkpt>
      <trkpt lat="46.82623" lon="6.00473">
        <ele>841.1</ele>
        <time>2022-05-01T12:29:21Z</time>
      </trkpt>
      <trkpt lat="46.82619" lon="6.00469">
        <ele>840.6</ele>
        <time>2022-05-01T12:29:27Z</time>
      </trkpt>
      <trkpt lat="46.82615" lon="6.00465">
        <ele>840.3</ele>
        <time>2022-05-01T12:29:31Z</time>
      </trkpt>
      <trkpt lat="46.82609" lon="6.00461">
        <ele>840.3</ele>
        <time>2022-05-01T12:29:35Z</time>
      </trkpt>
      <trkpt lat="46.82605" lon="6.00457">
        <ele>840.6</ele>
        <time>2022-05-01T12:29:38Z</time>
      </trkpt>
      <trkpt lat="46.82601" lon="6.00452">
        <ele>841.3</ele>
        <time>2022-05-01T12:29:42Z</time>
      </trkpt>
      <trkpt lat="46.82596" lon="6.0045">
        <ele>841.8</ele>
        <time>2022-05-01T12:29:47Z</time>
      </trkpt>
      <trkpt lat="46.82591" lon="6.00448">
        <ele>842.3</ele>
        <time>2022-05-01T12:29:51Z</time>
      </trkpt>
      <trkpt lat="46.82587" lon="6.00447">
        <ele>843</ele>
        <time>2022-05-01T12:29:55Z</time>
      </trkpt>
      <trkpt lat="46.82583" lon="6.00442">
        <ele>843.5</ele>
        <time>2022-05-01T12:30:00Z</time>
      </trkpt>
      <trkpt lat="46.82579" lon="6.00437">
        <ele>843.5</ele>
        <time>2022-05-01T12:30:05Z</time>
      </trkpt>
      <trkpt lat="46.82574" lon="6.00434">
        <ele>843.1</ele>
        <time>2022-05-01T12:30:10Z</time>
      </trkpt>
      <trkpt lat="46.82569" lon="6.00434">
        <ele>842.3</ele>
        <time>2022-05-01T12:30:13Z</time>
      </trkpt>
      <trkpt lat="46.82564" lon="6.00433">
        <ele>841.1</ele>
        <time>2022-05-01T12:30:17Z</time>
      </trkpt>
      <trkpt lat="46.8256" lon="6.0043">
        <ele>840</ele>
        <time>2022-05-01T12:30:22Z</time>
      </trkpt>
      <trkpt lat="46.82556" lon="6.00425">
        <ele>839.1</ele>
        <time>2022-05-01T12:30:27Z</time>
      </trkpt>
      <trkpt lat="46.82552" lon="6.00421">
        <ele>838.8</ele>
        <time>2022-05-01T12:30:32Z</time>
      </trkpt>
      <trkpt lat="46.82548" lon="6.00416">
        <ele>838.7</ele>
        <time>2022-05-01T12:30:36Z</time>
      </trkpt>
      <trkpt lat="46.82543" lon="6.00412">
        <ele>839</ele>
        <time>2022-05-01T12:30:40Z</time>
      </trkpt>
      <trkpt lat="46.82539" lon="6.00408">
        <ele>839.4</ele>
        <time>2022-05-01T12:30:43Z</time>
      </trkpt>
      <trkpt lat="46.82535" lon="6.00404">
        <ele>839.8</ele>
        <time>2022-05-01T12:30:47Z</time>
      </trkpt>
      <trkpt lat="46.8253" lon="6.004">
        <ele>839.8</ele>
        <time>2022-05-01T12:30:53Z</time>
      </trkpt>
      <trkpt lat="46.82525" lon="6.00398">
        <ele>839.9</ele>
        <time>2022-05-01T12:30:58Z</time>
      </trkpt>
      <trkpt lat="46.8252" lon="6.00397">
        <ele>840.5</ele>
        <time>2022-05-01T12:31:03Z</time>
      </trkpt>
      <trkpt lat="46.82515" lon="6.00395">
        <ele>840.7</ele>
        <time>2022-05-01T12:31:08Z</time>
      </trkpt>
      <trkpt lat="46.82511" lon="6.00393">
        <ele>840.5</ele>
        <time>2022-05-01T12:31:12Z</time>
      </trkpt>
      <trkpt lat="46.82506" lon="6.00391">
        <ele>840.2</ele>
        <time>2022-05-01T12:31:16Z</time>
      </trkpt>
      <trkpt lat="46.82501" lon="6.00387">
        <ele>839.7</ele>
        <time>2022-05-01T12:31:21Z</time>
      </trkpt>
      <trkpt lat="46.82497" lon="6.00383">
        <ele>839.3</ele>
        <time>2022-05-01T12:31:25Z</time>
      </trkpt>
      <trkpt lat="46.82494" lon="6.00379">
        <ele>838.7</ele>
        <time>2022-05-01T12:31:29Z</time>
      </trkpt>
      <trkpt lat="46.8249" lon="6.00374">
        <ele>838.2</ele>
        <time>2022-05-01T12:31:34Z</time>
      </trkpt>
      <trkpt lat="46.82485" lon="6.0037">
        <ele>837.5</ele>
        <time>2022-05-01T12:31:38Z</time>
      </trkpt>
      <trkpt lat="46.82481" lon="6.00367">
        <ele>836.3</ele>
        <time>2022-05-01T12:31:42Z</time>
      </trkpt>
      <trkpt lat="46.82475" lon="6.00365">
        <ele>835.3</ele>
        <time>2022-05-01T12:31:47Z</time>
      </trkpt>
      <trkpt lat="46.82471" lon="6.00362">
        <ele>835</ele>
        <time>2022-05-01T12:31:51Z</time>
      </trkpt>
      <trkpt lat="46.82467" lon="6.00358">
        <ele>834.8</ele>
        <time>2022-05-01T12:31:55Z</time>
      </trkpt>
      <trkpt lat="46.82463" lon="6.00354">
        <ele>834.6</ele>
        <time>2022-05-01T12:31:59Z</time>
      </trkpt>
      <trkpt lat="46.82458" lon="6.00352">
        <ele>834.6</ele>
        <time>2022-05-01T12:32:03Z</time>
      </trkpt>
      <trkpt lat="46.82453" lon="6.0035">
        <ele>834.6</ele>
        <time>2022-05-01T12:32:08Z</time>
      </trkpt>
      <trkpt lat="46.8245" lon="6.00344">
        <ele>834.6</ele>
        <time>2022-05-01T12:32:13Z</time>
      </trkpt>
      <trkpt lat="46.82446" lon="6.0034">
        <ele>834.3</ele>
        <time>2022-05-01T12:32:17Z</time>
      </trkpt>
      <trkpt lat="46.82442" lon="6.00337">
        <ele>834</ele>
        <time>2022-05-01T12:32:21Z</time>
      </trkpt>
      <trkpt lat="46.82438" lon="6.00334">
        <ele>834.1</ele>
        <time>2022-05-01T12:32:25Z</time>
      </trkpt>
      <trkpt lat="46.82433" lon="6.00332">
        <ele>834.7</ele>
        <time>2022-05-01T12:32:29Z</time>
      </trkpt>
      <trkpt lat="46.82429" lon="6.00327">
        <ele>836.4</ele>
        <time>2022-05-01T12:32:36Z</time>
      </trkpt>
      <trkpt lat="46.82426" lon="6.00321">
        <ele>837.4</ele>
        <time>2022-05-01T12:32:40Z</time>
      </trkpt>
      <trkpt lat="46.82423" lon="6.00314">
        <ele>837.9</ele>
        <time>2022-05-01T12:32:44Z</time>
      </trkpt>
      <trkpt lat="46.82419" lon="6.0031">
        <ele>837.9</ele>
        <time>2022-05-01T12:32:47Z</time>
      </trkpt>
      <trkpt lat="46.82417" lon="6.00304">
        <ele>837.7</ele>
        <time>2022-05-01T12:32:51Z</time>
      </trkpt>
      <trkpt lat="46.82412" lon="6.00299">
        <ele>836.8</ele>
        <time>2022-05-01T12:32:56Z</time>
      </trkpt>
      <trkpt lat="46.82408" lon="6.00297">
        <ele>836.1</ele>
        <time>2022-05-01T12:33:00Z</time>
      </trkpt>
      <trkpt lat="46.82403" lon="6.00295">
        <ele>836</ele>
        <time>2022-05-01T12:33:04Z</time>
      </trkpt>
      <trkpt lat="46.82399" lon="6.00291">
        <ele>836</ele>
        <time>2022-05-01T12:33:08Z</time>
      </trkpt>
      <trkpt lat="46.82394" lon="6.0029">
        <ele>836.5</ele>
        <time>2022-05-01T12:33:13Z</time>
      </trkpt>
      <trkpt lat="46.82389" lon="6.00289">
        <ele>838</ele>
        <time>2022-05-01T12:33:33Z</time>
      </trkpt>
      <trkpt lat="46.82384" lon="6.00288">
        <ele>838.1</ele>
        <time>2022-05-01T12:33:38Z</time>
      </trkpt>
      <trkpt lat="46.8238" lon="6.00284">
        <ele>838.2</ele>
        <time>2022-05-01T12:33:42Z</time>
      </trkpt>
      <trkpt lat="46.82375" lon="6.0028">
        <ele>838</ele>
        <time>2022-05-01T12:33:46Z</time>
      </trkpt>
      <trkpt lat="46.82371" lon="6.00278">
        <ele>837.1</ele>
        <time>2022-05-01T12:33:50Z</time>
      </trkpt>
      <trkpt lat="46.82365" lon="6.00278">
        <ele>836</ele>
        <time>2022-05-01T12:33:56Z</time>
      </trkpt>
      <trkpt lat="46.8236" lon="6.00278">
        <ele>835.6</ele>
        <time>2022-05-01T12:34:01Z</time>
      </trkpt>
      <trkpt lat="46.82355" lon="6.00277">
        <ele>836.6</ele>
        <time>2022-05-01T12:34:05Z</time>
      </trkpt>
      <trkpt lat="46.82349" lon="6.00277">
        <ele>837.6</ele>
        <time>2022-05-01T12:34:09Z</time>
      </trkpt>
      <trkpt lat="46.82345" lon="6.00279">
        <ele>838.3</ele>
        <time>2022-05-01T12:34:13Z</time>
      </trkpt>
      <trkpt lat="46.8234" lon="6.00281">
        <ele>838.4</ele>
        <time>2022-05-01T12:34:17Z</time>
      </trkpt>
      <trkpt lat="46.82335" lon="6.00283">
        <ele>838.2</ele>
        <time>2022-05-01T12:34:21Z</time>
      </trkpt>
      <trkpt lat="46.8233" lon="6.00288">
        <ele>837.7</ele>
        <time>2022-05-01T12:34:27Z</time>
      </trkpt>
      <trkpt lat="46.82326" lon="6.0029">
        <ele>837.1</ele>
        <time>2022-05-01T12:34:32Z</time>
      </trkpt>
      <trkpt lat="46.82322" lon="6.00294">
        <ele>836.1</ele>
        <time>2022-05-01T12:34:38Z</time>
      </trkpt>
      <trkpt lat="46.82316" lon="6.00294">
        <ele>836</ele>
        <time>2022-05-01T12:34:43Z</time>
      </trkpt>
      <trkpt lat="46.82311" lon="6.00296">
        <ele>836.2</ele>
        <time>2022-05-01T12:34:47Z</time>
      </trkpt>
      <trkpt lat="46.82307" lon="6.00298">
        <ele>836.4</ele>
        <time>2022-05-01T12:34:55Z</time>
      </trkpt>
      <trkpt lat="46.82302" lon="6.00302">
        <ele>836.5</ele>
        <time>2022-05-01T12:35:01Z</time>
      </trkpt>
      <trkpt lat="46.82297" lon="6.00304">
        <ele>835.6</ele>
        <time>2022-05-01T12:35:08Z</time>
      </trkpt>
      <trkpt lat="46.82293" lon="6.00307">
        <ele>835.1</ele>
        <time>2022-05-01T12:35:14Z</time>
      </trkpt>
      <trkpt lat="46.82288" lon="6.0031">
        <ele>835.1</ele>
        <time>2022-05-01T12:35:18Z</time>
      </trkpt>
      <trkpt lat="46.82284" lon="6.00312">
        <ele>835.1</ele>
        <time>2022-05-01T12:35:22Z</time>
      </trkpt>
      <trkpt lat="46.82279" lon="6.00312">
        <ele>834.7</ele>
        <time>2022-05-01T12:35:27Z</time>
      </trkpt>
      <trkpt lat="46.82274" lon="6.00316">
        <ele>834</ele>
        <time>2022-05-01T12:35:31Z</time>
      </trkpt>
      <trkpt lat="46.82271" lon="6.00323">
        <ele>833.8</ele>
        <time>2022-05-01T12:35:34Z</time>
      </trkpt>
      <trkpt lat="46.82268" lon="6.00329">
        <ele>833.2</ele>
        <time>2022-05-01T12:35:37Z</time>
      </trkpt>
      <trkpt lat="46.82263" lon="6.00333">
        <ele>832.2</ele>
        <time>2022-05-01T12:35:41Z</time>
      </trkpt>
      <trkpt lat="46.82259" lon="6.00333">
        <ele>830.4</ele>
        <time>2022-05-01T12:35:45Z</time>
      </trkpt>
      <trkpt lat="46.82254" lon="6.00333">
        <ele>828.3</ele>
        <time>2022-05-01T12:35:50Z</time>
      </trkpt>
      <trkpt lat="46.82249" lon="6.00332">
        <ele>827.1</ele>
        <time>2022-05-01T12:35:54Z</time>
      </trkpt>
      <trkpt lat="46.82243" lon="6.00333">
        <ele>827.1</ele>
        <time>2022-05-01T12:35:58Z</time>
      </trkpt>
      <trkpt lat="46.82238" lon="6.00333">
        <ele>827.1</ele>
        <time>2022-05-01T12:36:03Z</time>
      </trkpt>
      <trkpt lat="46.82233" lon="6.00332">
        <ele>826.7</ele>
        <time>2022-05-01T12:36:08Z</time>
      </trkpt>
      <trkpt lat="46.82228" lon="6.00328">
        <ele>826.2</ele>
        <time>2022-05-01T12:36:13Z</time>
      </trkpt>
      <trkpt lat="46.82222" lon="6.00325">
        <ele>825.9</ele>
        <time>2022-05-01T12:36:17Z</time>
      </trkpt>
      <trkpt lat="46.82217" lon="6.00325">
        <ele>825.3</ele>
        <time>2022-05-01T12:36:22Z</time>
      </trkpt>
      <trkpt lat="46.82213" lon="6.00322">
        <ele>825.2</ele>
        <time>2022-05-01T12:36:27Z</time>
      </trkpt>
      <trkpt lat="46.8221" lon="6.00316">
        <ele>825.3</ele>
        <time>2022-05-01T12:36:31Z</time>
      </trkpt>
      <trkpt lat="46.82207" lon="6.00309">
        <ele>826.2</ele>
        <time>2022-05-01T12:36:35Z</time>
      </trkpt>
      <trkpt lat="46.82204" lon="6.00303">
        <ele>826.9</ele>
        <time>2022-05-01T12:36:39Z</time>
      </trkpt>
      <trkpt lat="46.82202" lon="6.00296">
        <ele>827.2</ele>
        <time>2022-05-01T12:36:43Z</time>
      </trkpt>
      <trkpt lat="46.82199" lon="6.00289">
        <ele>827.4</ele>
        <time>2022-05-01T12:36:47Z</time>
      </trkpt>
      <trkpt lat="46.82196" lon="6.00283">
        <ele>827.2</ele>
        <time>2022-05-01T12:36:50Z</time>
      </trkpt>
      <trkpt lat="46.82194" lon="6.00277">
        <ele>827.3</ele>
        <time>2022-05-01T12:36:53Z</time>
      </trkpt>
      <trkpt lat="46.82193" lon="6.00269">
        <ele>827.5</ele>
        <time>2022-05-01T12:36:57Z</time>
      </trkpt>
      <trkpt lat="46.82193" lon="6.00262">
        <ele>827.4</ele>
        <time>2022-05-01T12:37:01Z</time>
      </trkpt>
      <trkpt lat="46.82193" lon="6.00254">
        <ele>826.9</ele>
        <time>2022-05-01T12:37:07Z</time>
      </trkpt>
      <trkpt lat="46.82195" lon="6.00247">
        <ele>826.8</ele>
        <time>2022-05-01T12:37:12Z</time>
      </trkpt>
      <trkpt lat="46.82193" lon="6.0024">
        <ele>826.6</ele>
        <time>2022-05-01T12:37:18Z</time>
      </trkpt>
      <trkpt lat="46.82194" lon="6.00232">
        <ele>826.3</ele>
        <time>2022-05-01T12:37:23Z</time>
      </trkpt>
      <trkpt lat="46.82194" lon="6.00225">
        <ele>826</ele>
        <time>2022-05-01T12:37:28Z</time>
      </trkpt>
      <trkpt lat="46.82192" lon="6.00217">
        <ele>825.6</ele>
        <time>2022-05-01T12:37:32Z</time>
      </trkpt>
      <trkpt lat="46.8219" lon="6.00208">
        <ele>825.5</ele>
        <time>2022-05-01T12:37:36Z</time>
      </trkpt>
      <trkpt lat="46.82188" lon="6.00202">
        <ele>825.7</ele>
        <time>2022-05-01T12:37:40Z</time>
      </trkpt>
      <trkpt lat="46.82186" lon="6.00195">
        <ele>826</ele>
        <time>2022-05-01T12:37:44Z</time>
      </trkpt>
      <trkpt lat="46.82182" lon="6.00191">
        <ele>826.3</ele>
        <time>2022-05-01T12:37:48Z</time>
      </trkpt>
      <trkpt lat="46.82179" lon="6.00184">
        <ele>827.2</ele>
        <time>2022-05-01T12:37:53Z</time>
      </trkpt>
      <trkpt lat="46.82176" lon="6.00178">
        <ele>828.1</ele>
        <time>2022-05-01T12:37:58Z</time>
      </trkpt>
      <trkpt lat="46.82173" lon="6.00172">
        <ele>828</ele>
        <time>2022-05-01T12:38:03Z</time>
      </trkpt>
      <trkpt lat="46.8217" lon="6.00164">
        <ele>828</ele>
        <time>2022-05-01T12:38:07Z</time>
      </trkpt>
      <trkpt lat="46.82168" lon="6.00157">
        <ele>828.1</ele>
        <time>2022-05-01T12:38:10Z</time>
      </trkpt>
      <trkpt lat="46.82165" lon="6.0015">
        <ele>827.8</ele>
        <time>2022-05-01T12:38:14Z</time>
      </trkpt>
      <trkpt lat="46.82162" lon="6.00144">
        <ele>827.6</ele>
        <time>2022-05-01T12:38:19Z</time>
      </trkpt>
      <trkpt lat="46.82158" lon="6.00139">
        <ele>827.7</ele>
        <time>2022-05-01T12:38:23Z</time>
      </trkpt>
      <trkpt lat="46.82154" lon="6.00134">
        <ele>827.9</ele>
        <time>2022-05-01T12:38:27Z</time>
      </trkpt>
      <trkpt lat="46.8215" lon="6.0013">
        <ele>827.9</ele>
        <time>2022-05-01T12:38:32Z</time>
      </trkpt>
      <trkpt lat="46.82145" lon="6.00126">
        <ele>827.3</ele>
        <time>2022-05-01T12:38:37Z</time>
      </trkpt>
      <trkpt lat="46.8214" lon="6.00122">
        <ele>827.1</ele>
        <time>2022-05-01T12:38:42Z</time>
      </trkpt>
      <trkpt lat="46.82137" lon="6.00117">
        <ele>827.3</ele>
        <time>2022-05-01T12:38:47Z</time>
      </trkpt>
      <trkpt lat="46.82133" lon="6.00114">
        <ele>827.7</ele>
        <time>2022-05-01T12:38:52Z</time>
      </trkpt>
      <trkpt lat="46.82128" lon="6.00111">
        <ele>828</ele>
        <time>2022-05-01T12:38:56Z</time>
      </trkpt>
      <trkpt lat="46.82123" lon="6.00109">
        <ele>828.5</ele>
        <time>2022-05-01T12:39:00Z</time>
      </trkpt>
      <trkpt lat="46.82118" lon="6.00106">
        <ele>828.7</ele>
        <time>2022-05-01T12:39:04Z</time>
      </trkpt>
      <trkpt lat="46.82113" lon="6.00102">
        <ele>829</ele>
        <time>2022-05-01T12:39:09Z</time>
      </trkpt>
      <trkpt lat="46.82109" lon="6.00098">
        <ele>828.9</ele>
        <time>2022-05-01T12:39:14Z</time>
      </trkpt>
      <trkpt lat="46.82105" lon="6.00094">
        <ele>828.2</ele>
        <time>2022-05-01T12:39:19Z</time>
      </trkpt>
      <trkpt lat="46.82101" lon="6.0009">
        <ele>827.9</ele>
        <time>2022-05-01T12:39:23Z</time>
      </trkpt>
      <trkpt lat="46.82097" lon="6.00086">
        <ele>827.1</ele>
        <time>2022-05-01T12:39:28Z</time>
      </trkpt>
      <trkpt lat="46.82092" lon="6.00083">
        <ele>826.2</ele>
        <time>2022-05-01T12:39:34Z</time>
      </trkpt>
      <trkpt lat="46.82086" lon="6.00082">
        <ele>825.6</ele>
        <time>2022-05-01T12:39:38Z</time>
      </trkpt>
      <trkpt lat="46.82081" lon="6.00081">
        <ele>824.6</ele>
        <time>2022-05-01T12:39:42Z</time>
      </trkpt>
      <trkpt lat="46.82076" lon="6.00078">
        <ele>823.4</ele>
        <time>2022-05-01T12:39:48Z</time>
      </trkpt>
      <trkpt lat="46.82072" lon="6.00075">
        <ele>822.8</ele>
        <time>2022-05-01T12:39:53Z</time>
      </trkpt>
      <trkpt lat="46.82067" lon="6.00072">
        <ele>822.3</ele>
        <time>2022-05-01T12:39:57Z</time>
      </trkpt>
      <trkpt lat="46.82062" lon="6.00069">
        <ele>821.5</ele>
        <time>2022-05-01T12:40:02Z</time>
      </trkpt>
      <trkpt lat="46.82058" lon="6.00066">
        <ele>821</ele>
        <time>2022-05-01T12:40:07Z</time>
      </trkpt>
      <trkpt lat="46.82052" lon="6.00064">
        <ele>820.8</ele>
        <time>2022-05-01T12:40:12Z</time>
      </trkpt>
      <trkpt lat="46.82048" lon="6.00061">
        <ele>820.6</ele>
        <time>2022-05-01T12:40:16Z</time>
      </trkpt>
      <trkpt lat="46.82043" lon="6.00059">
        <ele>820.3</ele>
        <time>2022-05-01T12:40:21Z</time>
      </trkpt>
      <trkpt lat="46.82038" lon="6.00059">
        <ele>820.1</ele>
        <time>2022-05-01T12:40:26Z</time>
      </trkpt>
      <trkpt lat="46.82033" lon="6.00059">
        <ele>820.4</ele>
        <time>2022-05-01T12:40:30Z</time>
      </trkpt>
      <trkpt lat="46.82028" lon="6.00059">
        <ele>820.3</ele>
        <time>2022-05-01T12:40:34Z</time>
      </trkpt>
      <trkpt lat="46.82022" lon="6.00056">
        <ele>820.6</ele>
        <time>2022-05-01T12:40:38Z</time>
      </trkpt>
      <trkpt lat="46.82017" lon="6.00054">
        <ele>820.4</ele>
        <time>2022-05-01T12:40:42Z</time>
      </trkpt>
      <trkpt lat="46.82012" lon="6.00051">
        <ele>820</ele>
        <time>2022-05-01T12:40:47Z</time>
      </trkpt>
      <trkpt lat="46.82008" lon="6.00048">
        <ele>818.9</ele>
        <time>2022-05-01T12:40:52Z</time>
      </trkpt>
      <trkpt lat="46.82003" lon="6.00046">
        <ele>817.4</ele>
        <time>2022-05-01T12:40:57Z</time>
      </trkpt>
      <trkpt lat="46.81998" lon="6.00043">
        <ele>816.4</ele>
        <time>2022-05-01T12:41:02Z</time>
      </trkpt>
      <trkpt lat="46.81993" lon="6.0004">
        <ele>816.2</ele>
        <time>2022-05-01T12:41:07Z</time>
      </trkpt>
      <trkpt lat="46.81989" lon="6.00038">
        <ele>816.3</ele>
        <time>2022-05-01T12:41:11Z</time>
      </trkpt>
      <trkpt lat="46.81983" lon="6.00036">
        <ele>816.5</ele>
        <time>2022-05-01T12:41:16Z</time>
      </trkpt>
      <trkpt lat="46.81978" lon="6.00032">
        <ele>816.8</ele>
        <time>2022-05-01T12:41:21Z</time>
      </trkpt>
      <trkpt lat="46.81973" lon="6.00031">
        <ele>816.9</ele>
        <time>2022-05-01T12:41:25Z</time>
      </trkpt>
      <trkpt lat="46.81969" lon="6.00028">
        <ele>817.1</ele>
        <time>2022-05-01T12:41:28Z</time>
      </trkpt>
      <trkpt lat="46.81965" lon="6.00025">
        <ele>817.6</ele>
        <time>2022-05-01T12:41:31Z</time>
      </trkpt>
      <trkpt lat="46.8196" lon="6.00023">
        <ele>818.3</ele>
        <time>2022-05-01T12:41:35Z</time>
      </trkpt>
      <trkpt lat="46.81955" lon="6.0002">
        <ele>818.6</ele>
        <time>2022-05-01T12:41:42Z</time>
      </trkpt>
      <trkpt lat="46.81951" lon="6.00016">
        <ele>818.5</ele>
        <time>2022-05-01T12:41:47Z</time>
      </trkpt>
      <trkpt lat="46.81947" lon="6.0001">
        <ele>818.3</ele>
        <time>2022-05-01T12:41:51Z</time>
      </trkpt>
      <trkpt lat="46.81945" lon="6.00004">
        <ele>817.8</ele>
        <time>2022-05-01T12:41:55Z</time>
      </trkpt>
      <trkpt lat="46.81942" lon="5.99999">
        <ele>817.3</ele>
        <time>2022-05-01T12:42:01Z</time>
      </trkpt>
      <trkpt lat="46.81938" lon="5.99994">
        <ele>816.6</ele>
        <time>2022-05-01T12:42:07Z</time>
      </trkpt>
      <trkpt lat="46.81935" lon="5.99989">
        <ele>815.3</ele>
        <time>2022-05-01T12:42:12Z</time>
      </trkpt>
      <trkpt lat="46.81931" lon="5.99986">
        <ele>813.3</ele>
        <time>2022-05-01T12:42:17Z</time>
      </trkpt>
      <trkpt lat="46.81926" lon="5.99983">
        <ele>811.8</ele>
        <time>2022-05-01T12:42:28Z</time>
      </trkpt>
      <trkpt lat="46.81921" lon="5.99982">
        <ele>812</ele>
        <time>2022-05-01T12:42:32Z</time>
      </trkpt>
      <trkpt lat="46.81917" lon="5.99979">
        <ele>811.9</ele>
        <time>2022-05-01T12:42:37Z</time>
      </trkpt>
      <trkpt lat="46.81913" lon="5.99977">
        <ele>811.2</ele>
        <time>2022-05-01T12:42:43Z</time>
      </trkpt>
      <trkpt lat="46.81908" lon="5.99974">
        <ele>810.3</ele>
        <time>2022-05-01T12:42:48Z</time>
      </trkpt>
      <trkpt lat="46.81904" lon="5.99971">
        <ele>809.3</ele>
        <time>2022-05-01T12:42:52Z</time>
      </trkpt>
      <trkpt lat="46.81899" lon="5.99969">
        <ele>808</ele>
        <time>2022-05-01T12:42:57Z</time>
      </trkpt>
      <trkpt lat="46.81894" lon="5.99967">
        <ele>807.4</ele>
        <time>2022-05-01T12:43:01Z</time>
      </trkpt>
      <trkpt lat="46.81889" lon="5.99965">
        <ele>806.7</ele>
        <time>2022-05-01T12:43:06Z</time>
      </trkpt>
      <trkpt lat="46.81884" lon="5.99963">
        <ele>805.7</ele>
        <time>2022-05-01T12:43:11Z</time>
      </trkpt>
      <trkpt lat="46.8188" lon="5.99961">
        <ele>805</ele>
        <time>2022-05-01T12:43:15Z</time>
      </trkpt>
      <trkpt lat="46.81875" lon="5.99959">
        <ele>804.6</ele>
        <time>2022-05-01T12:43:20Z</time>
      </trkpt>
      <trkpt lat="46.81871" lon="5.99955">
        <ele>804.5</ele>
        <time>2022-05-01T12:43:25Z</time>
      </trkpt>
      <trkpt lat="46.81867" lon="5.99953">
        <ele>804.2</ele>
        <time>2022-05-01T12:43:30Z</time>
      </trkpt>
      <trkpt lat="46.81861" lon="5.99951">
        <ele>804.4</ele>
        <time>2022-05-01T12:43:35Z</time>
      </trkpt>
      <trkpt lat="46.81856" lon="5.99949">
        <ele>804.7</ele>
        <time>2022-05-01T12:43:40Z</time>
      </trkpt>
      <trkpt lat="46.81851" lon="5.99948">
        <ele>805</ele>
        <time>2022-05-01T12:43:45Z</time>
      </trkpt>
      <trkpt lat="46.81846" lon="5.99949">
        <ele>805.7</ele>
        <time>2022-05-01T12:43:49Z</time>
      </trkpt>
      <trkpt lat="46.81842" lon="5.99946">
        <ele>806</ele>
        <time>2022-05-01T12:43:53Z</time>
      </trkpt>
      <trkpt lat="46.81837" lon="5.99946">
        <ele>805.6</ele>
        <time>2022-05-01T12:43:59Z</time>
      </trkpt>
      <trkpt lat="46.81831" lon="5.99944">
        <ele>804.7</ele>
        <time>2022-05-01T12:44:04Z</time>
      </trkpt>
      <trkpt lat="46.81826" lon="5.99943">
        <ele>804.2</ele>
        <time>2022-05-01T12:44:08Z</time>
      </trkpt>
      <trkpt lat="46.81821" lon="5.99941">
        <ele>804.3</ele>
        <time>2022-05-01T12:44:12Z</time>
      </trkpt>
      <trkpt lat="46.81816" lon="5.9994">
        <ele>804.4</ele>
        <time>2022-05-01T12:44:18Z</time>
      </trkpt>
      <trkpt lat="46.81811" lon="5.9994">
        <ele>803.8</ele>
        <time>2022-05-01T12:44:24Z</time>
      </trkpt>
      <trkpt lat="46.81806" lon="5.9994">
        <ele>803</ele>
        <time>2022-05-01T12:44:28Z</time>
      </trkpt>
      <trkpt lat="46.818" lon="5.99941">
        <ele>802.4</ele>
        <time>2022-05-01T12:44:32Z</time>
      </trkpt>
      <trkpt lat="46.81795" lon="5.99941">
        <ele>802.3</ele>
        <time>2022-05-01T12:44:37Z</time>
      </trkpt>
      <trkpt lat="46.8179" lon="5.9994">
        <ele>802.1</ele>
        <time>2022-05-01T12:44:42Z</time>
      </trkpt>
      <trkpt lat="46.81785" lon="5.99941">
        <ele>801.9</ele>
        <time>2022-05-01T12:44:47Z</time>
      </trkpt>
      <trkpt lat="46.81779" lon="5.99942">
        <ele>801.1</ele>
        <time>2022-05-01T12:44:52Z</time>
      </trkpt>
      <trkpt lat="46.81774" lon="5.99945">
        <ele>800.8</ele>
        <time>2022-05-01T12:44:58Z</time>
      </trkpt>
      <trkpt lat="46.81769" lon="5.99946">
        <ele>801.2</ele>
        <time>2022-05-01T12:45:03Z</time>
      </trkpt>
      <trkpt lat="46.81764" lon="5.99948">
        <ele>801.5</ele>
        <time>2022-05-01T12:45:07Z</time>
      </trkpt>
      <trkpt lat="46.81759" lon="5.99948">
        <ele>801.6</ele>
        <time>2022-05-01T12:45:11Z</time>
      </trkpt>
      <trkpt lat="46.81755" lon="5.99946">
        <ele>801.5</ele>
        <time>2022-05-01T12:45:17Z</time>
      </trkpt>
      <trkpt lat="46.8175" lon="5.99945">
        <ele>802.7</ele>
        <time>2022-05-01T12:47:06Z</time>
      </trkpt>
      <trkpt lat="46.81745" lon="5.99947">
        <ele>803.3</ele>
        <time>2022-05-01T12:47:11Z</time>
      </trkpt>
      <trkpt lat="46.81739" lon="5.99945">
        <ele>804.2</ele>
        <time>2022-05-01T12:47:16Z</time>
      </trkpt>
      <trkpt lat="46.81733" lon="5.99945">
        <ele>804.8</ele>
        <time>2022-05-01T12:47:21Z</time>
      </trkpt>
      <trkpt lat="46.81729" lon="5.99944">
        <ele>805.6</ele>
        <time>2022-05-01T12:47:26Z</time>
      </trkpt>
      <trkpt lat="46.81724" lon="5.99944">
        <ele>806.3</ele>
        <time>2022-05-01T12:47:30Z</time>
      </trkpt>
      <trkpt lat="46.81719" lon="5.99943">
        <ele>806.8</ele>
        <time>2022-05-01T12:47:35Z</time>
      </trkpt>
      <trkpt lat="46.81714" lon="5.99941">
        <ele>806.1</ele>
        <time>2022-05-01T12:47:39Z</time>
      </trkpt>
      <trkpt lat="46.8171" lon="5.99937">
        <ele>805.3</ele>
        <time>2022-05-01T12:47:43Z</time>
      </trkpt>
      <trkpt lat="46.81705" lon="5.99934">
        <ele>804.6</ele>
        <time>2022-05-01T12:47:47Z</time>
      </trkpt>
      <trkpt lat="46.817" lon="5.99932">
        <ele>804.4</ele>
        <time>2022-05-01T12:47:51Z</time>
      </trkpt>
      <trkpt lat="46.81695" lon="5.9993">
        <ele>804.7</ele>
        <time>2022-05-01T12:47:56Z</time>
      </trkpt>
      <trkpt lat="46.8169" lon="5.99928">
        <ele>805</ele>
        <time>2022-05-01T12:48:00Z</time>
      </trkpt>
      <trkpt lat="46.81686" lon="5.99925">
        <ele>805.3</ele>
        <time>2022-05-01T12:48:04Z</time>
      </trkpt>
      <trkpt lat="46.8168" lon="5.99924">
        <ele>805.5</ele>
        <time>2022-05-01T12:48:09Z</time>
      </trkpt>
      <trkpt lat="46.81676" lon="5.99923">
        <ele>805.7</ele>
        <time>2022-05-01T12:48:13Z</time>
      </trkpt>
      <trkpt lat="46.81671" lon="5.99921">
        <ele>805.7</ele>
        <time>2022-05-01T12:48:17Z</time>
      </trkpt>
      <trkpt lat="46.81667" lon="5.9992">
        <ele>806.1</ele>
        <time>2022-05-01T12:48:21Z</time>
      </trkpt>
      <trkpt lat="46.81662" lon="5.99919">
        <ele>806.5</ele>
        <time>2022-05-01T12:48:25Z</time>
      </trkpt>
      <trkpt lat="46.81657" lon="5.99918">
        <ele>806.9</ele>
        <time>2022-05-01T12:48:30Z</time>
      </trkpt>
      <trkpt lat="46.81652" lon="5.99915">
        <ele>807.4</ele>
        <time>2022-05-01T12:48:35Z</time>
      </trkpt>
      <trkpt lat="46.81648" lon="5.99914">
        <ele>807.6</ele>
        <time>2022-05-01T12:48:39Z</time>
      </trkpt>
      <trkpt lat="46.81643" lon="5.99912">
        <ele>807.6</ele>
        <time>2022-05-01T12:48:43Z</time>
      </trkpt>
      <trkpt lat="46.81639" lon="5.99909">
        <ele>807.8</ele>
        <time>2022-05-01T12:48:47Z</time>
      </trkpt>
      <trkpt lat="46.81634" lon="5.99909">
        <ele>808.1</ele>
        <time>2022-05-01T12:48:51Z</time>
      </trkpt>
      <trkpt lat="46.81629" lon="5.99907">
        <ele>808.2</ele>
        <time>2022-05-01T12:48:56Z</time>
      </trkpt>
      <trkpt lat="46.81623" lon="5.99906">
        <ele>808.6</ele>
        <time>2022-05-01T12:49:01Z</time>
      </trkpt>
      <trkpt lat="46.81618" lon="5.99904">
        <ele>808.3</ele>
        <time>2022-05-01T12:49:05Z</time>
      </trkpt>
      <trkpt lat="46.81613" lon="5.99902">
        <ele>807.7</ele>
        <time>2022-05-01T12:49:08Z</time>
      </trkpt>
      <trkpt lat="46.81608" lon="5.999">
        <ele>807</ele>
        <time>2022-05-01T12:49:11Z</time>
      </trkpt>
      <trkpt lat="46.81603" lon="5.99898">
        <ele>806.2</ele>
        <time>2022-05-01T12:49:15Z</time>
      </trkpt>
      <trkpt lat="46.81599" lon="5.99895">
        <ele>805.7</ele>
        <time>2022-05-01T12:49:19Z</time>
      </trkpt>
      <trkpt lat="46.81594" lon="5.99892">
        <ele>804.7</ele>
        <time>2022-05-01T12:49:23Z</time>
      </trkpt>
      <trkpt lat="46.8159" lon="5.99889">
        <ele>803.5</ele>
        <time>2022-05-01T12:49:27Z</time>
      </trkpt>
      <trkpt lat="46.81585" lon="5.99886">
        <ele>802.3</ele>
        <time>2022-05-01T12:49:32Z</time>
      </trkpt>
      <trkpt lat="46.8158" lon="5.99884">
        <ele>801.4</ele>
        <time>2022-05-01T12:49:37Z</time>
      </trkpt>
      <trkpt lat="46.81575" lon="5.99883">
        <ele>800.5</ele>
        <time>2022-05-01T12:49:42Z</time>
      </trkpt>
      <trkpt lat="46.8157" lon="5.99882">
        <ele>800.1</ele>
        <time>2022-05-01T12:49:46Z</time>
      </trkpt>
      <trkpt lat="46.81565" lon="5.99882">
        <ele>799.7</ele>
        <time>2022-05-01T12:49:50Z</time>
      </trkpt>
      <trkpt lat="46.8156" lon="5.99881">
        <ele>799.4</ele>
        <time>2022-05-01T12:49:54Z</time>
      </trkpt>
      <trkpt lat="46.81555" lon="5.99882">
        <ele>799.1</ele>
        <time>2022-05-01T12:49:58Z</time>
      </trkpt>
      <trkpt lat="46.8155" lon="5.99881">
        <ele>798.9</ele>
        <time>2022-05-01T12:50:02Z</time>
      </trkpt>
      <trkpt lat="46.81545" lon="5.99881">
        <ele>798.8</ele>
        <time>2022-05-01T12:50:06Z</time>
      </trkpt>
      <trkpt lat="46.8154" lon="5.99878">
        <ele>798.7</ele>
        <time>2022-05-01T12:50:11Z</time>
      </trkpt>
      <trkpt lat="46.81535" lon="5.99876">
        <ele>798.7</ele>
        <time>2022-05-01T12:50:16Z</time>
      </trkpt>
      <trkpt lat="46.8153" lon="5.99874">
        <ele>798.6</ele>
        <time>2022-05-01T12:50:20Z</time>
      </trkpt>
      <trkpt lat="46.81526" lon="5.99871">
        <ele>798.2</ele>
        <time>2022-05-01T12:50:25Z</time>
      </trkpt>
      <trkpt lat="46.81522" lon="5.99868">
        <ele>797.9</ele>
        <time>2022-05-01T12:50:30Z</time>
      </trkpt>
      <trkpt lat="46.81517" lon="5.99864">
        <ele>797.7</ele>
        <time>2022-05-01T12:50:35Z</time>
      </trkpt>
      <trkpt lat="46.81512" lon="5.99861">
        <ele>797.6</ele>
        <time>2022-05-01T12:50:40Z</time>
      </trkpt>
      <trkpt lat="46.81507" lon="5.99858">
        <ele>797.9</ele>
        <time>2022-05-01T12:50:44Z</time>
      </trkpt>
      <trkpt lat="46.81502" lon="5.99856">
        <ele>797.9</ele>
        <time>2022-05-01T12:50:47Z</time>
      </trkpt>
      <trkpt lat="46.81497" lon="5.99853">
        <ele>797.8</ele>
        <time>2022-05-01T12:50:51Z</time>
      </trkpt>
      <trkpt lat="46.81493" lon="5.9985">
        <ele>797.4</ele>
        <time>2022-05-01T12:50:55Z</time>
      </trkpt>
      <trkpt lat="46.81488" lon="5.99848">
        <ele>797.4</ele>
        <time>2022-05-01T12:51:01Z</time>
      </trkpt>
      <trkpt lat="46.81483" lon="5.99846">
        <ele>797.2</ele>
        <time>2022-05-01T12:51:05Z</time>
      </trkpt>
      <trkpt lat="46.81478" lon="5.99843">
        <ele>797.3</ele>
        <time>2022-05-01T12:51:09Z</time>
      </trkpt>
      <trkpt lat="46.81472" lon="5.99841">
        <ele>797.5</ele>
        <time>2022-05-01T12:51:13Z</time>
      </trkpt>
      <trkpt lat="46.81468" lon="5.9984">
        <ele>797.9</ele>
        <time>2022-05-01T12:51:17Z</time>
      </trkpt>
      <trkpt lat="46.81462" lon="5.9984">
        <ele>797.8</ele>
        <time>2022-05-01T12:51:22Z</time>
      </trkpt>
      <trkpt lat="46.81458" lon="5.99839">
        <ele>797</ele>
        <time>2022-05-01T12:51:27Z</time>
      </trkpt>
      <trkpt lat="46.81454" lon="5.99835">
        <ele>795.9</ele>
        <time>2022-05-01T12:51:32Z</time>
      </trkpt>
      <trkpt lat="46.81449" lon="5.99832">
        <ele>794.9</ele>
        <time>2022-05-01T12:51:37Z</time>
      </trkpt>
      <trkpt lat="46.81445" lon="5.99829">
        <ele>794.3</ele>
        <time>2022-05-01T12:51:41Z</time>
      </trkpt>
      <trkpt lat="46.81441" lon="5.99824">
        <ele>794</ele>
        <time>2022-05-01T12:51:45Z</time>
      </trkpt>
      <trkpt lat="46.81436" lon="5.99821">
        <ele>794.2</ele>
        <time>2022-05-01T12:51:50Z</time>
      </trkpt>
      <trkpt lat="46.81432" lon="5.99819">
        <ele>794.6</ele>
        <time>2022-05-01T12:51:55Z</time>
      </trkpt>
      <trkpt lat="46.81426" lon="5.99818">
        <ele>795.3</ele>
        <time>2022-05-01T12:52:00Z</time>
      </trkpt>
      <trkpt lat="46.81422" lon="5.99817">
        <ele>795.9</ele>
        <time>2022-05-01T12:52:04Z</time>
      </trkpt>
      <trkpt lat="46.81417" lon="5.99816">
        <ele>796.3</ele>
        <time>2022-05-01T12:52:08Z</time>
      </trkpt>
      <trkpt lat="46.81412" lon="5.99813">
        <ele>796.5</ele>
        <time>2022-05-01T12:52:13Z</time>
      </trkpt>
      <trkpt lat="46.81407" lon="5.99809">
        <ele>796.6</ele>
        <time>2022-05-01T12:52:17Z</time>
      </trkpt>
      <trkpt lat="46.81403" lon="5.99807">
        <ele>796.6</ele>
        <time>2022-05-01T12:52:22Z</time>
      </trkpt>
      <trkpt lat="46.81398" lon="5.99807">
        <ele>796.6</ele>
        <time>2022-05-01T12:52:27Z</time>
      </trkpt>
      <trkpt lat="46.81393" lon="5.99806">
        <ele>796.1</ele>
        <time>2022-05-01T12:52:33Z</time>
      </trkpt>
      <trkpt lat="46.81388" lon="5.99803">
        <ele>795.6</ele>
        <time>2022-05-01T12:52:37Z</time>
      </trkpt>
      <trkpt lat="46.81383" lon="5.99802">
        <ele>795.1</ele>
        <time>2022-05-01T12:52:41Z</time>
      </trkpt>
      <trkpt lat="46.81378" lon="5.99801">
        <ele>794.6</ele>
        <time>2022-05-01T12:52:46Z</time>
      </trkpt>
      <trkpt lat="46.81373" lon="5.99798">
        <ele>794.2</ele>
        <time>2022-05-01T12:52:52Z</time>
      </trkpt>
      <trkpt lat="46.81369" lon="5.99794">
        <ele>793.8</ele>
        <time>2022-05-01T12:52:56Z</time>
      </trkpt>
      <trkpt lat="46.81365" lon="5.9979">
        <ele>793.4</ele>
        <time>2022-05-01T12:53:00Z</time>
      </trkpt>
      <trkpt lat="46.8136" lon="5.99786">
        <ele>793.1</ele>
        <time>2022-05-01T12:53:04Z</time>
      </trkpt>
      <trkpt lat="46.81355" lon="5.99783">
        <ele>793.2</ele>
        <time>2022-05-01T12:53:08Z</time>
      </trkpt>
      <trkpt lat="46.8135" lon="5.99779">
        <ele>793.3</ele>
        <time>2022-05-01T12:53:12Z</time>
      </trkpt>
      <trkpt lat="46.81345" lon="5.99779">
        <ele>793.2</ele>
        <time>2022-05-01T12:53:18Z</time>
      </trkpt>
      <trkpt lat="46.8134" lon="5.99777">
        <ele>793</ele>
        <time>2022-05-01T12:53:23Z</time>
      </trkpt>
      <trkpt lat="46.81336" lon="5.99776">
        <ele>792.9</ele>
        <time>2022-05-01T12:53:26Z</time>
      </trkpt>
      <trkpt lat="46.81332" lon="5.99773">
        <ele>792.7</ele>
        <time>2022-05-01T12:53:30Z</time>
      </trkpt>
      <trkpt lat="46.81327" lon="5.99771">
        <ele>793</ele>
        <time>2022-05-01T12:53:35Z</time>
      </trkpt>
      <trkpt lat="46.81322" lon="5.99771">
        <ele>793.8</ele>
        <time>2022-05-01T12:53:39Z</time>
      </trkpt>
      <trkpt lat="46.81317" lon="5.9977">
        <ele>795.3</ele>
        <time>2022-05-01T12:53:44Z</time>
      </trkpt>
      <trkpt lat="46.81313" lon="5.9977">
        <ele>796.6</ele>
        <time>2022-05-01T12:53:48Z</time>
      </trkpt>
      <trkpt lat="46.81307" lon="5.9977">
        <ele>797.5</ele>
        <time>2022-05-01T12:53:52Z</time>
      </trkpt>
      <trkpt lat="46.81302" lon="5.9977">
        <ele>798.4</ele>
        <time>2022-05-01T12:53:57Z</time>
      </trkpt>
      <trkpt lat="46.81296" lon="5.9977">
        <ele>799.3</ele>
        <time>2022-05-01T12:54:01Z</time>
      </trkpt>
      <trkpt lat="46.81292" lon="5.99769">
        <ele>800.3</ele>
        <time>2022-05-01T12:54:04Z</time>
      </trkpt>
      <trkpt lat="46.81286" lon="5.99769">
        <ele>801.8</ele>
        <time>2022-05-01T12:54:08Z</time>
      </trkpt>
      <trkpt lat="46.81281" lon="5.99769">
        <ele>804.3</ele>
        <time>2022-05-01T12:54:13Z</time>
      </trkpt>
      <trkpt lat="46.81276" lon="5.9977">
        <ele>806.1</ele>
        <time>2022-05-01T12:54:18Z</time>
      </trkpt>
      <trkpt lat="46.81271" lon="5.9977">
        <ele>807.1</ele>
        <time>2022-05-01T12:54:23Z</time>
      </trkpt>
      <trkpt lat="46.81266" lon="5.99769">
        <ele>807.7</ele>
        <time>2022-05-01T12:54:27Z</time>
      </trkpt>
      <trkpt lat="46.8126" lon="5.99768">
        <ele>808.6</ele>
        <time>2022-05-01T12:54:32Z</time>
      </trkpt>
      <trkpt lat="46.81255" lon="5.99768">
        <ele>809.1</ele>
        <time>2022-05-01T12:54:37Z</time>
      </trkpt>
      <trkpt lat="46.8125" lon="5.99767">
        <ele>809.7</ele>
        <time>2022-05-01T12:54:41Z</time>
      </trkpt>
      <trkpt lat="46.81244" lon="5.99768">
        <ele>810.5</ele>
        <time>2022-05-01T12:54:45Z</time>
      </trkpt>
      <trkpt lat="46.81239" lon="5.99769">
        <ele>811.5</ele>
        <time>2022-05-01T12:54:49Z</time>
      </trkpt>
      <trkpt lat="46.81235" lon="5.99769">
        <ele>812.6</ele>
        <time>2022-05-01T12:54:55Z</time>
      </trkpt>
      <trkpt lat="46.81229" lon="5.99768">
        <ele>812.9</ele>
        <time>2022-05-01T12:55:00Z</time>
      </trkpt>
      <trkpt lat="46.81225" lon="5.99765">
        <ele>813.1</ele>
        <time>2022-05-01T12:55:04Z</time>
      </trkpt>
      <trkpt lat="46.8122" lon="5.99763">
        <ele>813.3</ele>
        <time>2022-05-01T12:55:08Z</time>
      </trkpt>
      <trkpt lat="46.81214" lon="5.99762">
        <ele>813.3</ele>
        <time>2022-05-01T12:55:12Z</time>
      </trkpt>
      <trkpt lat="46.81209" lon="5.99762">
        <ele>813</ele>
        <time>2022-05-01T12:55:18Z</time>
      </trkpt>
      <trkpt lat="46.81204" lon="5.99762">
        <ele>812.4</ele>
        <time>2022-05-01T12:55:23Z</time>
      </trkpt>
      <trkpt lat="46.81199" lon="5.99759">
        <ele>811.3</ele>
        <time>2022-05-01T12:55:28Z</time>
      </trkpt>
      <trkpt lat="46.81195" lon="5.99757">
        <ele>810.2</ele>
        <time>2022-05-01T12:55:34Z</time>
      </trkpt>
      <trkpt lat="46.8119" lon="5.99758">
        <ele>809.2</ele>
        <time>2022-05-01T12:55:38Z</time>
      </trkpt>
      <trkpt lat="46.81185" lon="5.99757">
        <ele>808.3</ele>
        <time>2022-05-01T12:55:42Z</time>
      </trkpt>
      <trkpt lat="46.8118" lon="5.99755">
        <ele>806.9</ele>
        <time>2022-05-01T12:55:46Z</time>
      </trkpt>
      <trkpt lat="46.81175" lon="5.99752">
        <ele>805.6</ele>
        <time>2022-05-01T12:55:50Z</time>
      </trkpt>
      <trkpt lat="46.8117" lon="5.9975">
        <ele>803.8</ele>
        <time>2022-05-01T12:55:55Z</time>
      </trkpt>
      <trkpt lat="46.81165" lon="5.99748">
        <ele>801.6</ele>
        <time>2022-05-01T12:56:01Z</time>
      </trkpt>
      <trkpt lat="46.8116" lon="5.99748">
        <ele>799.9</ele>
        <time>2022-05-01T12:56:06Z</time>
      </trkpt>
      <trkpt lat="46.81155" lon="5.99749">
        <ele>798.3</ele>
        <time>2022-05-01T12:56:11Z</time>
      </trkpt>
      <trkpt lat="46.81151" lon="5.99748">
        <ele>797.4</ele>
        <time>2022-05-01T12:56:15Z</time>
      </trkpt>
      <trkpt lat="46.81145" lon="5.99747">
        <ele>796.8</ele>
        <time>2022-05-01T12:56:19Z</time>
      </trkpt>
      <trkpt lat="46.81139" lon="5.99747">
        <ele>796.4</ele>
        <time>2022-05-01T12:56:24Z</time>
      </trkpt>
      <trkpt lat="46.81135" lon="5.99746">
        <ele>796.1</ele>
        <time>2022-05-01T12:56:29Z</time>
      </trkpt>
      <trkpt lat="46.81129" lon="5.99745">
        <ele>795.8</ele>
        <time>2022-05-01T12:56:34Z</time>
      </trkpt>
      <trkpt lat="46.81124" lon="5.99744">
        <ele>795.5</ele>
        <time>2022-05-01T12:56:38Z</time>
      </trkpt>
      <trkpt lat="46.81119" lon="5.99742">
        <ele>795.5</ele>
        <time>2022-05-01T12:56:43Z</time>
      </trkpt>
      <trkpt lat="46.81115" lon="5.9974">
        <ele>795.8</ele>
        <time>2022-05-01T12:56:47Z</time>
      </trkpt>
      <trkpt lat="46.8111" lon="5.9974">
        <ele>796</ele>
        <time>2022-05-01T12:56:51Z</time>
      </trkpt>
      <trkpt lat="46.81104" lon="5.99741">
        <ele>795.8</ele>
        <time>2022-05-01T12:56:56Z</time>
      </trkpt>
      <trkpt lat="46.811" lon="5.9974">
        <ele>795.1</ele>
        <time>2022-05-01T12:57:01Z</time>
      </trkpt>
      <trkpt lat="46.81098" lon="5.99733">
        <ele>794.8</ele>
        <time>2022-05-01T12:57:08Z</time>
      </trkpt>
      <trkpt lat="46.81098" lon="5.99726">
        <ele>796.8</ele>
        <time>2022-05-01T12:57:14Z</time>
      </trkpt>
      <trkpt lat="46.81103" lon="5.99723">
        <ele>799.5</ele>
        <time>2022-05-01T12:57:20Z</time>
      </trkpt>
      <trkpt lat="46.81107" lon="5.99721">
        <ele>801.9</ele>
        <time>2022-05-01T12:57:25Z</time>
      </trkpt>
      <trkpt lat="46.81112" lon="5.9972">
        <ele>805.6</ele>
        <time>2022-05-01T12:57:32Z</time>
      </trkpt>
      <trkpt lat="46.81116" lon="5.99717">
        <ele>808.5</ele>
        <time>2022-05-01T12:57:44Z</time>
      </trkpt>
      <trkpt lat="46.81111" lon="5.99715">
        <ele>809.2</ele>
        <time>2022-05-01T12:57:57Z</time>
      </trkpt>
      <trkpt lat="46.81107" lon="5.99719">
        <ele>809.1</ele>
        <time>2022-05-01T12:58:01Z</time>
      </trkpt>
      <trkpt lat="46.81103" lon="5.99723">
        <ele>808.9</ele>
        <time>2022-05-01T12:58:05Z</time>
      </trkpt>
      <trkpt lat="46.81099" lon="5.99727">
        <ele>809.8</ele>
        <time>2022-05-01T12:58:09Z</time>
      </trkpt>
      <trkpt lat="46.81096" lon="5.99734">
        <ele>813.3</ele>
        <time>2022-05-01T12:58:15Z</time>
      </trkpt>
      <trkpt lat="46.81091" lon="5.99734">
        <ele>818.5</ele>
        <time>2022-05-01T12:58:50Z</time>
      </trkpt>
      <trkpt lat="46.81085" lon="5.99733">
        <ele>818.9</ele>
        <time>2022-05-01T12:58:54Z</time>
      </trkpt>
      <trkpt lat="46.8108" lon="5.99732">
        <ele>818.8</ele>
        <time>2022-05-01T12:58:58Z</time>
      </trkpt>
      <trkpt lat="46.81076" lon="5.99731">
        <ele>818.5</ele>
        <time>2022-05-01T12:59:03Z</time>
      </trkpt>
      <trkpt lat="46.81071" lon="5.99728">
        <ele>817.8</ele>
        <time>2022-05-01T12:59:10Z</time>
      </trkpt>
      <trkpt lat="46.81066" lon="5.99725">
        <ele>817.3</ele>
        <time>2022-05-01T12:59:15Z</time>
      </trkpt>
      <trkpt lat="46.81062" lon="5.99722">
        <ele>816.6</ele>
        <time>2022-05-01T12:59:19Z</time>
      </trkpt>
      <trkpt lat="46.81058" lon="5.99718">
        <ele>815.3</ele>
        <time>2022-05-01T12:59:23Z</time>
      </trkpt>
      <trkpt lat="46.81055" lon="5.99713">
        <ele>814.1</ele>
        <time>2022-05-01T12:59:27Z</time>
      </trkpt>
      <trkpt lat="46.8105" lon="5.99709">
        <ele>813.2</ele>
        <time>2022-05-01T12:59:31Z</time>
      </trkpt>
      <trkpt lat="46.81045" lon="5.99704">
        <ele>812.1</ele>
        <time>2022-05-01T12:59:35Z</time>
      </trkpt>
      <trkpt lat="46.81042" lon="5.99699">
        <ele>810.8</ele>
        <time>2022-05-01T12:59:39Z</time>
      </trkpt>
      <trkpt lat="46.8104" lon="5.99693">
        <ele>808.7</ele>
        <time>2022-05-01T12:59:45Z</time>
      </trkpt>
      <trkpt lat="46.81037" lon="5.99687">
        <ele>807.5</ele>
        <time>2022-05-01T12:59:50Z</time>
      </trkpt>
      <trkpt lat="46.81033" lon="5.99682">
        <ele>806.9</ele>
        <time>2022-05-01T12:59:54Z</time>
      </trkpt>
      <trkpt lat="46.81029" lon="5.99677">
        <ele>806.6</ele>
        <time>2022-05-01T12:59:58Z</time>
      </trkpt>
      <trkpt lat="46.81025" lon="5.99673">
        <ele>806.4</ele>
        <time>2022-05-01T13:00:02Z</time>
      </trkpt>
      <trkpt lat="46.81021" lon="5.9967">
        <ele>806.3</ele>
        <time>2022-05-01T13:00:06Z</time>
      </trkpt>
      <trkpt lat="46.81017" lon="5.99665">
        <ele>806.1</ele>
        <time>2022-05-01T13:00:10Z</time>
      </trkpt>
      <trkpt lat="46.81013" lon="5.99661">
        <ele>806.2</ele>
        <time>2022-05-01T13:00:15Z</time>
      </trkpt>
      <trkpt lat="46.81009" lon="5.99658">
        <ele>807.9</ele>
        <time>2022-05-01T13:00:21Z</time>
      </trkpt>
      <trkpt lat="46.81004" lon="5.99658">
        <ele>809.7</ele>
        <time>2022-05-01T13:00:27Z</time>
      </trkpt>
      <trkpt lat="46.81001" lon="5.99652">
        <ele>811.9</ele>
        <time>2022-05-01T13:00:33Z</time>
      </trkpt>
      <trkpt lat="46.81001" lon="5.99644">
        <ele>812.9</ele>
        <time>2022-05-01T13:00:39Z</time>
      </trkpt>
      <trkpt lat="46.81" lon="5.99638">
        <ele>813.1</ele>
        <time>2022-05-01T13:00:42Z</time>
      </trkpt>
      <trkpt lat="46.80998" lon="5.9963">
        <ele>813.3</ele>
        <time>2022-05-01T13:00:45Z</time>
      </trkpt>
      <trkpt lat="46.80995" lon="5.99624">
        <ele>813.2</ele>
        <time>2022-05-01T13:00:49Z</time>
      </trkpt>
      <trkpt lat="46.80991" lon="5.99621">
        <ele>813.2</ele>
        <time>2022-05-01T13:00:53Z</time>
      </trkpt>
      <trkpt lat="46.80985" lon="5.9962">
        <ele>813.7</ele>
        <time>2022-05-01T13:00:57Z</time>
      </trkpt>
      <trkpt lat="46.8098" lon="5.99618">
        <ele>813.9</ele>
        <time>2022-05-01T13:01:03Z</time>
      </trkpt>
      <trkpt lat="46.80977" lon="5.99612">
        <ele>813.1</ele>
        <time>2022-05-01T13:01:08Z</time>
      </trkpt>
      <trkpt lat="46.80975" lon="5.99606">
        <ele>811.9</ele>
        <time>2022-05-01T13:01:12Z</time>
      </trkpt>
      <trkpt lat="46.80971" lon="5.99603">
        <ele>810.9</ele>
        <time>2022-05-01T13:01:16Z</time>
      </trkpt>
      <trkpt lat="46.80966" lon="5.99602">
        <ele>809.7</ele>
        <time>2022-05-01T13:01:21Z</time>
      </trkpt>
      <trkpt lat="46.80961" lon="5.99602">
        <ele>809</ele>
        <time>2022-05-01T13:01:27Z</time>
      </trkpt>
      <trkpt lat="46.80957" lon="5.996">
        <ele>808.9</ele>
        <time>2022-05-01T13:01:33Z</time>
      </trkpt>
      <trkpt lat="46.80953" lon="5.99596">
        <ele>809.2</ele>
        <time>2022-05-01T13:01:39Z</time>
      </trkpt>
      <trkpt lat="46.80947" lon="5.99593">
        <ele>809.6</ele>
        <time>2022-05-01T13:01:43Z</time>
      </trkpt>
      <trkpt lat="46.80942" lon="5.9959">
        <ele>810.4</ele>
        <time>2022-05-01T13:01:47Z</time>
      </trkpt>
      <trkpt lat="46.80937" lon="5.99586">
        <ele>811.7</ele>
        <time>2022-05-01T13:01:52Z</time>
      </trkpt>
      <trkpt lat="46.80932" lon="5.99584">
        <ele>813.2</ele>
        <time>2022-05-01T13:01:56Z</time>
      </trkpt>
      <trkpt lat="46.80928" lon="5.99581">
        <ele>814.9</ele>
        <time>2022-05-01T13:02:00Z</time>
      </trkpt>
      <trkpt lat="46.80923" lon="5.99577">
        <ele>816.6</ele>
        <time>2022-05-01T13:02:05Z</time>
      </trkpt>
      <trkpt lat="46.80919" lon="5.99574">
        <ele>818.2</ele>
        <time>2022-05-01T13:02:09Z</time>
      </trkpt>
      <trkpt lat="46.80914" lon="5.9957">
        <ele>820.4</ele>
        <time>2022-05-01T13:02:13Z</time>
      </trkpt>
      <trkpt lat="46.80911" lon="5.99566">
        <ele>822.6</ele>
        <time>2022-05-01T13:02:17Z</time>
      </trkpt>
      <trkpt lat="46.80907" lon="5.99561">
        <ele>824.1</ele>
        <time>2022-05-01T13:02:22Z</time>
      </trkpt>
      <trkpt lat="46.80903" lon="5.99556">
        <ele>824.4</ele>
        <time>2022-05-01T13:02:26Z</time>
      </trkpt>
      <trkpt lat="46.80899" lon="5.99552">
        <ele>824</ele>
        <time>2022-05-01T13:02:31Z</time>
      </trkpt>
      <trkpt lat="46.80895" lon="5.99547">
        <ele>823.5</ele>
        <time>2022-05-01T13:02:35Z</time>
      </trkpt>
      <trkpt lat="46.8089" lon="5.99543">
        <ele>823.1</ele>
        <time>2022-05-01T13:02:39Z</time>
      </trkpt>
      <trkpt lat="46.80886" lon="5.99539">
        <ele>823.1</ele>
        <time>2022-05-01T13:02:42Z</time>
      </trkpt>
      <trkpt lat="46.80881" lon="5.99536">
        <ele>822.8</ele>
        <time>2022-05-01T13:02:46Z</time>
      </trkpt>
      <trkpt lat="46.80877" lon="5.99532">
        <ele>822.4</ele>
        <time>2022-05-01T13:02:52Z</time>
      </trkpt>
      <trkpt lat="46.80872" lon="5.99531">
        <ele>822.3</ele>
        <time>2022-05-01T13:02:56Z</time>
      </trkpt>
      <trkpt lat="46.80867" lon="5.99528">
        <ele>822.4</ele>
        <time>2022-05-01T13:03:00Z</time>
      </trkpt>
      <trkpt lat="46.80863" lon="5.99524">
        <ele>822.6</ele>
        <time>2022-05-01T13:03:04Z</time>
      </trkpt>
      <trkpt lat="46.80859" lon="5.99522">
        <ele>823.3</ele>
        <time>2022-05-01T13:03:09Z</time>
      </trkpt>
      <trkpt lat="46.80854" lon="5.99517">
        <ele>823</ele>
        <time>2022-05-01T13:03:19Z</time>
      </trkpt>
      <trkpt lat="46.80849" lon="5.99514">
        <ele>822</ele>
        <time>2022-05-01T13:03:26Z</time>
      </trkpt>
      <trkpt lat="46.80845" lon="5.99513">
        <ele>822</ele>
        <time>2022-05-01T13:03:29Z</time>
      </trkpt>
      <trkpt lat="46.8084" lon="5.99512">
        <ele>822.3</ele>
        <time>2022-05-01T13:03:32Z</time>
      </trkpt>
      <trkpt lat="46.80835" lon="5.99512">
        <ele>822.8</ele>
        <time>2022-05-01T13:03:36Z</time>
      </trkpt>
      <trkpt lat="46.80829" lon="5.99512">
        <ele>823.6</ele>
        <time>2022-05-01T13:03:41Z</time>
      </trkpt>
      <trkpt lat="46.80824" lon="5.99513">
        <ele>824.6</ele>
        <time>2022-05-01T13:03:46Z</time>
      </trkpt>
      <trkpt lat="46.80819" lon="5.99514">
        <ele>825.9</ele>
        <time>2022-05-01T13:03:50Z</time>
      </trkpt>
      <trkpt lat="46.80814" lon="5.99515">
        <ele>827.7</ele>
        <time>2022-05-01T13:03:54Z</time>
      </trkpt>
      <trkpt lat="46.80809" lon="5.99517">
        <ele>829.5</ele>
        <time>2022-05-01T13:03:57Z</time>
      </trkpt>
      <trkpt lat="46.80804" lon="5.9952">
        <ele>831.1</ele>
        <time>2022-05-01T13:04:00Z</time>
      </trkpt>
      <trkpt lat="46.80799" lon="5.9952">
        <ele>832.6</ele>
        <time>2022-05-01T13:04:04Z</time>
      </trkpt>
      <trkpt lat="46.80794" lon="5.9952">
        <ele>833.9</ele>
        <time>2022-05-01T13:04:09Z</time>
      </trkpt>
      <trkpt lat="46.8079" lon="5.99518">
        <ele>833.4</ele>
        <time>2022-05-01T13:04:14Z</time>
      </trkpt>
      <trkpt lat="46.80785" lon="5.99516">
        <ele>832.9</ele>
        <time>2022-05-01T13:04:19Z</time>
      </trkpt>
      <trkpt lat="46.80781" lon="5.99516">
        <ele>832.7</ele>
        <time>2022-05-01T13:04:24Z</time>
      </trkpt>
      <trkpt lat="46.80776" lon="5.99516">
        <ele>832.2</ele>
        <time>2022-05-01T13:04:29Z</time>
      </trkpt>
      <trkpt lat="46.8077" lon="5.99517">
        <ele>831.4</ele>
        <time>2022-05-01T13:04:33Z</time>
      </trkpt>
      <trkpt lat="46.80765" lon="5.99516">
        <ele>830.4</ele>
        <time>2022-05-01T13:04:38Z</time>
      </trkpt>
      <trkpt lat="46.80761" lon="5.99514">
        <ele>829.1</ele>
        <time>2022-05-01T13:04:44Z</time>
      </trkpt>
      <trkpt lat="46.80756" lon="5.9951">
        <ele>828.2</ele>
        <time>2022-05-01T13:04:52Z</time>
      </trkpt>
      <trkpt lat="46.80753" lon="5.99505">
        <ele>828.3</ele>
        <time>2022-05-01T13:04:58Z</time>
      </trkpt>
      <trkpt lat="46.80748" lon="5.99501">
        <ele>828.5</ele>
        <time>2022-05-01T13:05:02Z</time>
      </trkpt>
      <trkpt lat="46.80743" lon="5.99498">
        <ele>829</ele>
        <time>2022-05-01T13:05:07Z</time>
      </trkpt>
      <trkpt lat="46.80738" lon="5.99498">
        <ele>829.6</ele>
        <time>2022-05-01T13:05:13Z</time>
      </trkpt>
      <trkpt lat="46.80734" lon="5.99501">
        <ele>829.2</ele>
        <time>2022-05-01T13:05:18Z</time>
      </trkpt>
      <trkpt lat="46.8073" lon="5.99496">
        <ele>828.8</ele>
        <time>2022-05-01T13:05:34Z</time>
      </trkpt>
      <trkpt lat="46.80727" lon="5.9949">
        <ele>829.7</ele>
        <time>2022-05-01T13:05:44Z</time>
      </trkpt>
      <trkpt lat="46.80731" lon="5.99487">
        <ele>833.2</ele>
        <time>2022-05-01T13:05:55Z</time>
      </trkpt>
      <trkpt lat="46.80736" lon="5.99485">
        <ele>834.5</ele>
        <time>2022-05-01T13:06:02Z</time>
      </trkpt>
      <trkpt lat="46.80731" lon="5.99487">
        <ele>834.5</ele>
        <time>2022-05-01T13:06:18Z</time>
      </trkpt>
      <trkpt lat="46.80726" lon="5.99486">
        <ele>834.1</ele>
        <time>2022-05-01T13:06:23Z</time>
      </trkpt>
      <trkpt lat="46.80722" lon="5.99481">
        <ele>834.9</ele>
        <time>2022-05-01T13:06:30Z</time>
      </trkpt>
      <trkpt lat="46.80719" lon="5.99475">
        <ele>835.9</ele>
        <time>2022-05-01T13:06:35Z</time>
      </trkpt>
      <trkpt lat="46.80717" lon="5.99469">
        <ele>836.1</ele>
        <time>2022-05-01T13:06:41Z</time>
      </trkpt>
      <trkpt lat="46.80713" lon="5.99464">
        <ele>835.8</ele>
        <time>2022-05-01T13:06:45Z</time>
      </trkpt>
      <trkpt lat="46.80708" lon="5.9946">
        <ele>835.5</ele>
        <time>2022-05-01T13:06:49Z</time>
      </trkpt>
      <trkpt lat="46.80705" lon="5.99454">
        <ele>835.7</ele>
        <time>2022-05-01T13:06:54Z</time>
      </trkpt>
      <trkpt lat="46.807" lon="5.9945">
        <ele>836.4</ele>
        <time>2022-05-01T13:06:59Z</time>
      </trkpt>
      <trkpt lat="46.80698" lon="5.99443">
        <ele>836.8</ele>
        <time>2022-05-01T13:07:05Z</time>
      </trkpt>
      <trkpt lat="46.80696" lon="5.99438">
        <ele>836.8</ele>
        <time>2022-05-01T13:07:10Z</time>
      </trkpt>
      <trkpt lat="46.80692" lon="5.99432">
        <ele>836.6</ele>
        <time>2022-05-01T13:07:15Z</time>
      </trkpt>
      <trkpt lat="46.80689" lon="5.99427">
        <ele>836.6</ele>
        <time>2022-05-01T13:07:20Z</time>
      </trkpt>
      <trkpt lat="46.80685" lon="5.99422">
        <ele>836.7</ele>
        <time>2022-05-01T13:07:25Z</time>
      </trkpt>
      <trkpt lat="46.80682" lon="5.99417">
        <ele>837.5</ele>
        <time>2022-05-01T13:07:30Z</time>
      </trkpt>
      <trkpt lat="46.80679" lon="5.99412">
        <ele>838.3</ele>
        <time>2022-05-01T13:07:35Z</time>
      </trkpt>
      <trkpt lat="46.80675" lon="5.99407">
        <ele>838.1</ele>
        <time>2022-05-01T13:07:40Z</time>
      </trkpt>
      <trkpt lat="46.80673" lon="5.99401">
        <ele>838.1</ele>
        <time>2022-05-01T13:07:44Z</time>
      </trkpt>
      <trkpt lat="46.80671" lon="5.99394">
        <ele>838.2</ele>
        <time>2022-05-01T13:07:47Z</time>
      </trkpt>
      <trkpt lat="46.80668" lon="5.99385">
        <ele>838.5</ele>
        <time>2022-05-01T13:07:50Z</time>
      </trkpt>
      <trkpt lat="46.80666" lon="5.99379">
        <ele>838.7</ele>
        <time>2022-05-01T13:07:53Z</time>
      </trkpt>
      <trkpt lat="46.80664" lon="5.99372">
        <ele>838.8</ele>
        <time>2022-05-01T13:07:57Z</time>
      </trkpt>
      <trkpt lat="46.8066" lon="5.99368">
        <ele>838.5</ele>
        <time>2022-05-01T13:08:01Z</time>
      </trkpt>
      <trkpt lat="46.80656" lon="5.99363">
        <ele>837.9</ele>
        <time>2022-05-01T13:08:06Z</time>
      </trkpt>
      <trkpt lat="46.80652" lon="5.99358">
        <ele>837.2</ele>
        <time>2022-05-01T13:08:10Z</time>
      </trkpt>
      <trkpt lat="46.80649" lon="5.99353">
        <ele>836.8</ele>
        <time>2022-05-01T13:08:14Z</time>
      </trkpt>
      <trkpt lat="46.80645" lon="5.99349">
        <ele>837</ele>
        <time>2022-05-01T13:08:20Z</time>
      </trkpt>
      <trkpt lat="46.8064" lon="5.99344">
        <ele>837.2</ele>
        <time>2022-05-01T13:08:25Z</time>
      </trkpt>
      <trkpt lat="46.80636" lon="5.99339">
        <ele>837.5</ele>
        <time>2022-05-01T13:08:30Z</time>
      </trkpt>
      <trkpt lat="46.80631" lon="5.99335">
        <ele>838.2</ele>
        <time>2022-05-01T13:08:34Z</time>
      </trkpt>
      <trkpt lat="46.80627" lon="5.9933">
        <ele>839.1</ele>
        <time>2022-05-01T13:08:38Z</time>
      </trkpt>
      <trkpt lat="46.80622" lon="5.99325">
        <ele>839.9</ele>
        <time>2022-05-01T13:08:42Z</time>
      </trkpt>
      <trkpt lat="46.80618" lon="5.99321">
        <ele>840.2</ele>
        <time>2022-05-01T13:08:46Z</time>
      </trkpt>
      <trkpt lat="46.80613" lon="5.99319">
        <ele>840</ele>
        <time>2022-05-01T13:08:52Z</time>
      </trkpt>
      <trkpt lat="46.80609" lon="5.99318">
        <ele>838.8</ele>
        <time>2022-05-01T13:08:57Z</time>
      </trkpt>
      <trkpt lat="46.80604" lon="5.99315">
        <ele>836.9</ele>
        <time>2022-05-01T13:09:03Z</time>
      </trkpt>
      <trkpt lat="46.80599" lon="5.99315">
        <ele>835.7</ele>
        <time>2022-05-01T13:09:08Z</time>
      </trkpt>
      <trkpt lat="46.80594" lon="5.99316">
        <ele>835</ele>
        <time>2022-05-01T13:09:13Z</time>
      </trkpt>
      <trkpt lat="46.80588" lon="5.99313">
        <ele>833.7</ele>
        <time>2022-05-01T13:09:18Z</time>
      </trkpt>
      <trkpt lat="46.80584" lon="5.99313">
        <ele>832.8</ele>
        <time>2022-05-01T13:09:23Z</time>
      </trkpt>
      <trkpt lat="46.80578" lon="5.99312">
        <ele>832.5</ele>
        <time>2022-05-01T13:09:28Z</time>
      </trkpt>
      <trkpt lat="46.80574" lon="5.99309">
        <ele>832.3</ele>
        <time>2022-05-01T13:09:32Z</time>
      </trkpt>
      <trkpt lat="46.80569" lon="5.99307">
        <ele>832.5</ele>
        <time>2022-05-01T13:09:36Z</time>
      </trkpt>
      <trkpt lat="46.80565" lon="5.99305">
        <ele>832.7</ele>
        <time>2022-05-01T13:09:40Z</time>
      </trkpt>
      <trkpt lat="46.80559" lon="5.99303">
        <ele>832.6</ele>
        <time>2022-05-01T13:09:46Z</time>
      </trkpt>
      <trkpt lat="46.80554" lon="5.99301">
        <ele>832.7</ele>
        <time>2022-05-01T13:09:50Z</time>
      </trkpt>
      <trkpt lat="46.80549" lon="5.99298">
        <ele>833.3</ele>
        <time>2022-05-01T13:09:55Z</time>
      </trkpt>
      <trkpt lat="46.80545" lon="5.99293">
        <ele>834</ele>
        <time>2022-05-01T13:10:00Z</time>
      </trkpt>
      <trkpt lat="46.80541" lon="5.9929">
        <ele>834.9</ele>
        <time>2022-05-01T13:10:05Z</time>
      </trkpt>
      <trkpt lat="46.80536" lon="5.99289">
        <ele>836.4</ele>
        <time>2022-05-01T13:10:09Z</time>
      </trkpt>
      <trkpt lat="46.80531" lon="5.99286">
        <ele>838.3</ele>
        <time>2022-05-01T13:10:14Z</time>
      </trkpt>
      <trkpt lat="46.80528" lon="5.99281">
        <ele>839.1</ele>
        <time>2022-05-01T13:10:18Z</time>
      </trkpt>
      <trkpt lat="46.80523" lon="5.99279">
        <ele>839.6</ele>
        <time>2022-05-01T13:10:23Z</time>
      </trkpt>
      <trkpt lat="46.80518" lon="5.99277">
        <ele>840.5</ele>
        <time>2022-05-01T13:10:27Z</time>
      </trkpt>
      <trkpt lat="46.80513" lon="5.99276">
        <ele>842.2</ele>
        <time>2022-05-01T13:10:31Z</time>
      </trkpt>
      <trkpt lat="46.80508" lon="5.99274">
        <ele>844.3</ele>
        <time>2022-05-01T13:10:36Z</time>
      </trkpt>
      <trkpt lat="46.80503" lon="5.99272">
        <ele>845.8</ele>
        <time>2022-05-01T13:10:40Z</time>
      </trkpt>
      <trkpt lat="46.80499" lon="5.99269">
        <ele>847.6</ele>
        <time>2022-05-01T13:10:45Z</time>
      </trkpt>
      <trkpt lat="46.80494" lon="5.99266">
        <ele>848.8</ele>
        <time>2022-05-01T13:10:49Z</time>
      </trkpt>
      <trkpt lat="46.80491" lon="5.99261">
        <ele>849.4</ele>
        <time>2022-05-01T13:10:52Z</time>
      </trkpt>
      <trkpt lat="46.80487" lon="5.99258">
        <ele>849.6</ele>
        <time>2022-05-01T13:10:56Z</time>
      </trkpt>
      <trkpt lat="46.80481" lon="5.99257">
        <ele>849.5</ele>
        <time>2022-05-01T13:11:00Z</time>
      </trkpt>
      <trkpt lat="46.80477" lon="5.99254">
        <ele>849.3</ele>
        <time>2022-05-01T13:11:03Z</time>
      </trkpt>
      <trkpt lat="46.80472" lon="5.9925">
        <ele>848.6</ele>
        <time>2022-05-01T13:11:07Z</time>
      </trkpt>
      <trkpt lat="46.80467" lon="5.99247">
        <ele>848</ele>
        <time>2022-05-01T13:11:11Z</time>
      </trkpt>
      <trkpt lat="46.80462" lon="5.99246">
        <ele>848</ele>
        <time>2022-05-01T13:11:15Z</time>
      </trkpt>
      <trkpt lat="46.80457" lon="5.99245">
        <ele>848.5</ele>
        <time>2022-05-01T13:11:21Z</time>
      </trkpt>
      <trkpt lat="46.80452" lon="5.99243">
        <ele>849.2</ele>
        <time>2022-05-01T13:11:27Z</time>
      </trkpt>
      <trkpt lat="46.80449" lon="5.99238">
        <ele>849.2</ele>
        <time>2022-05-01T13:11:32Z</time>
      </trkpt>
      <trkpt lat="46.80446" lon="5.99232">
        <ele>849.3</ele>
        <time>2022-05-01T13:11:37Z</time>
      </trkpt>
      <trkpt lat="46.80441" lon="5.99231">
        <ele>849.4</ele>
        <time>2022-05-01T13:11:41Z</time>
      </trkpt>
      <trkpt lat="46.80437" lon="5.99228">
        <ele>849.6</ele>
        <time>2022-05-01T13:11:46Z</time>
      </trkpt>
      <trkpt lat="46.80433" lon="5.99225">
        <ele>849.2</ele>
        <time>2022-05-01T13:11:50Z</time>
      </trkpt>
      <trkpt lat="46.80428" lon="5.9922">
        <ele>848.4</ele>
        <time>2022-05-01T13:11:56Z</time>
      </trkpt>
      <trkpt lat="46.80423" lon="5.99216">
        <ele>848.2</ele>
        <time>2022-05-01T13:12:00Z</time>
      </trkpt>
      <trkpt lat="46.80418" lon="5.99213">
        <ele>848.5</ele>
        <time>2022-05-01T13:12:04Z</time>
      </trkpt>
      <trkpt lat="46.80413" lon="5.99209">
        <ele>848.7</ele>
        <time>2022-05-01T13:12:08Z</time>
      </trkpt>
      <trkpt lat="46.80408" lon="5.99204">
        <ele>848.8</ele>
        <time>2022-05-01T13:12:12Z</time>
      </trkpt>
      <trkpt lat="46.80404" lon="5.992">
        <ele>849.1</ele>
        <time>2022-05-01T13:12:16Z</time>
      </trkpt>
      <trkpt lat="46.80401" lon="5.99195">
        <ele>849.1</ele>
        <time>2022-05-01T13:12:20Z</time>
      </trkpt>
      <trkpt lat="46.80398" lon="5.99189">
        <ele>849.4</ele>
        <time>2022-05-01T13:12:24Z</time>
      </trkpt>
      <trkpt lat="46.80394" lon="5.99184">
        <ele>849.3</ele>
        <time>2022-05-01T13:12:28Z</time>
      </trkpt>
      <trkpt lat="46.80391" lon="5.99178">
        <ele>849.3</ele>
        <time>2022-05-01T13:12:33Z</time>
      </trkpt>
      <trkpt lat="46.80386" lon="5.99173">
        <ele>849.5</ele>
        <time>2022-05-01T13:12:38Z</time>
      </trkpt>
      <trkpt lat="46.80381" lon="5.99169">
        <ele>849.7</ele>
        <time>2022-05-01T13:12:42Z</time>
      </trkpt>
      <trkpt lat="46.80377" lon="5.99165">
        <ele>850</ele>
        <time>2022-05-01T13:12:47Z</time>
      </trkpt>
      <trkpt lat="46.80372" lon="5.99162">
        <ele>850.2</ele>
        <time>2022-05-01T13:12:52Z</time>
      </trkpt>
      <trkpt lat="46.80369" lon="5.99157">
        <ele>850.9</ele>
        <time>2022-05-01T13:12:56Z</time>
      </trkpt>
      <trkpt lat="46.80366" lon="5.99151">
        <ele>851.9</ele>
        <time>2022-05-01T13:13:02Z</time>
      </trkpt>
      <trkpt lat="46.80364" lon="5.99145">
        <ele>852</ele>
        <time>2022-05-01T13:13:07Z</time>
      </trkpt>
      <trkpt lat="46.80361" lon="5.99138">
        <ele>851.7</ele>
        <time>2022-05-01T13:13:12Z</time>
      </trkpt>
      <trkpt lat="46.80358" lon="5.99133">
        <ele>851.6</ele>
        <time>2022-05-01T13:13:16Z</time>
      </trkpt>
      <trkpt lat="46.80354" lon="5.99127">
        <ele>851.5</ele>
        <time>2022-05-01T13:13:21Z</time>
      </trkpt>
      <trkpt lat="46.8035" lon="5.99122">
        <ele>851.6</ele>
        <time>2022-05-01T13:13:25Z</time>
      </trkpt>
      <trkpt lat="46.80347" lon="5.99118">
        <ele>851.9</ele>
        <time>2022-05-01T13:13:28Z</time>
      </trkpt>
      <trkpt lat="46.80343" lon="5.99112">
        <ele>852.1</ele>
        <time>2022-05-01T13:13:32Z</time>
      </trkpt>
      <trkpt lat="46.8034" lon="5.99106">
        <ele>851.9</ele>
        <time>2022-05-01T13:13:36Z</time>
      </trkpt>
      <trkpt lat="46.80335" lon="5.99102">
        <ele>851.3</ele>
        <time>2022-05-01T13:13:40Z</time>
      </trkpt>
      <trkpt lat="46.80331" lon="5.99096">
        <ele>850.3</ele>
        <time>2022-05-01T13:13:44Z</time>
      </trkpt>
      <trkpt lat="46.80328" lon="5.99091">
        <ele>850.2</ele>
        <time>2022-05-01T13:13:51Z</time>
      </trkpt>
      <trkpt lat="46.80322" lon="5.99089">
        <ele>849.9</ele>
        <time>2022-05-01T13:13:57Z</time>
      </trkpt>
      <trkpt lat="46.80318" lon="5.99086">
        <ele>849</ele>
        <time>2022-05-01T13:14:02Z</time>
      </trkpt>
      <trkpt lat="46.80314" lon="5.99083">
        <ele>847.9</ele>
        <time>2022-05-01T13:14:06Z</time>
      </trkpt>
      <trkpt lat="46.80309" lon="5.99079">
        <ele>846.9</ele>
        <time>2022-05-01T13:14:10Z</time>
      </trkpt>
      <trkpt lat="46.80304" lon="5.99076">
        <ele>845.7</ele>
        <time>2022-05-01T13:14:14Z</time>
      </trkpt>
      <trkpt lat="46.80299" lon="5.99074">
        <ele>844.1</ele>
        <time>2022-05-01T13:14:19Z</time>
      </trkpt>
      <trkpt lat="46.80295" lon="5.99071">
        <ele>843</ele>
        <time>2022-05-01T13:14:24Z</time>
      </trkpt>
      <trkpt lat="46.8029" lon="5.99069">
        <ele>842</ele>
        <time>2022-05-01T13:14:28Z</time>
      </trkpt>
      <trkpt lat="46.80285" lon="5.99068">
        <ele>840.9</ele>
        <time>2022-05-01T13:14:32Z</time>
      </trkpt>
      <trkpt lat="46.8028" lon="5.99066">
        <ele>839.9</ele>
        <time>2022-05-01T13:14:36Z</time>
      </trkpt>
      <trkpt lat="46.80275" lon="5.99065">
        <ele>838.6</ele>
        <time>2022-05-01T13:14:41Z</time>
      </trkpt>
      <trkpt lat="46.8027" lon="5.99064">
        <ele>837.8</ele>
        <time>2022-05-01T13:14:45Z</time>
      </trkpt>
      <trkpt lat="46.80265" lon="5.99062">
        <ele>837.8</ele>
        <time>2022-05-01T13:14:49Z</time>
      </trkpt>
      <trkpt lat="46.8026" lon="5.99061">
        <ele>838.3</ele>
        <time>2022-05-01T13:14:53Z</time>
      </trkpt>
      <trkpt lat="46.80255" lon="5.99062">
        <ele>839.2</ele>
        <time>2022-05-01T13:14:57Z</time>
      </trkpt>
      <trkpt lat="46.8025" lon="5.99064">
        <ele>841.4</ele>
        <time>2022-05-01T13:15:03Z</time>
      </trkpt>
      <trkpt lat="46.80246" lon="5.99065">
        <ele>844.1</ele>
        <time>2022-05-01T13:15:11Z</time>
      </trkpt>
      <trkpt lat="46.80241" lon="5.99064">
        <ele>845.6</ele>
        <time>2022-05-01T13:15:19Z</time>
      </trkpt>
      <trkpt lat="46.80236" lon="5.99064">
        <ele>846.2</ele>
        <time>2022-05-01T13:15:22Z</time>
      </trkpt>
      <trkpt lat="46.80232" lon="5.99066">
        <ele>847.1</ele>
        <time>2022-05-01T13:15:25Z</time>
      </trkpt>
      <trkpt lat="46.80227" lon="5.99067">
        <ele>848.4</ele>
        <time>2022-05-01T13:15:29Z</time>
      </trkpt>
      <trkpt lat="46.80222" lon="5.99066">
        <ele>848.7</ele>
        <time>2022-05-01T13:15:32Z</time>
      </trkpt>
      <trkpt lat="46.80217" lon="5.99065">
        <ele>848.7</ele>
        <time>2022-05-01T13:15:35Z</time>
      </trkpt>
      <trkpt lat="46.80212" lon="5.99062">
        <ele>848.5</ele>
        <time>2022-05-01T13:15:40Z</time>
      </trkpt>
      <trkpt lat="46.80208" lon="5.99058">
        <ele>848.3</ele>
        <time>2022-05-01T13:15:44Z</time>
      </trkpt>
      <trkpt lat="46.80204" lon="5.99056">
        <ele>848.6</ele>
        <time>2022-05-01T13:15:49Z</time>
      </trkpt>
      <trkpt lat="46.80199" lon="5.99053">
        <ele>850.4</ele>
        <time>2022-05-01T13:15:55Z</time>
      </trkpt>
      <trkpt lat="46.80196" lon="5.9905">
        <ele>851.5</ele>
        <time>2022-05-01T13:16:00Z</time>
      </trkpt>
      <trkpt lat="46.80191" lon="5.99046">
        <ele>852.5</ele>
        <time>2022-05-01T13:16:05Z</time>
      </trkpt>
      <trkpt lat="46.80187" lon="5.99043">
        <ele>852.7</ele>
        <time>2022-05-01T13:16:08Z</time>
      </trkpt>
      <trkpt lat="46.80182" lon="5.99039">
        <ele>852.5</ele>
        <time>2022-05-01T13:16:12Z</time>
      </trkpt>
      <trkpt lat="46.80176" lon="5.99038">
        <ele>852</ele>
        <time>2022-05-01T13:16:16Z</time>
      </trkpt>
      <trkpt lat="46.80171" lon="5.99037">
        <ele>851.2</ele>
        <time>2022-05-01T13:16:20Z</time>
      </trkpt>
      <trkpt lat="46.80166" lon="5.99035">
        <ele>850.8</ele>
        <time>2022-05-01T13:16:24Z</time>
      </trkpt>
      <trkpt lat="46.80161" lon="5.99033">
        <ele>850.2</ele>
        <time>2022-05-01T13:16:30Z</time>
      </trkpt>
      <trkpt lat="46.80156" lon="5.99031">
        <ele>849.5</ele>
        <time>2022-05-01T13:16:35Z</time>
      </trkpt>
      <trkpt lat="46.80152" lon="5.99027">
        <ele>848.8</ele>
        <time>2022-05-01T13:16:40Z</time>
      </trkpt>
      <trkpt lat="46.80147" lon="5.99024">
        <ele>848</ele>
        <time>2022-05-01T13:16:45Z</time>
      </trkpt>
      <trkpt lat="46.80143" lon="5.99021">
        <ele>847.5</ele>
        <time>2022-05-01T13:16:49Z</time>
      </trkpt>
      <trkpt lat="46.80138" lon="5.99019">
        <ele>847</ele>
        <time>2022-05-01T13:16:53Z</time>
      </trkpt>
      <trkpt lat="46.80134" lon="5.99017">
        <ele>846.5</ele>
        <time>2022-05-01T13:16:57Z</time>
      </trkpt>
      <trkpt lat="46.8013" lon="5.99015">
        <ele>845.5</ele>
        <time>2022-05-01T13:17:02Z</time>
      </trkpt>
      <trkpt lat="46.80126" lon="5.99009">
        <ele>845.2</ele>
        <time>2022-05-01T13:17:07Z</time>
      </trkpt>
      <trkpt lat="46.80123" lon="5.99002">
        <ele>845.5</ele>
        <time>2022-05-01T13:17:12Z</time>
      </trkpt>
      <trkpt lat="46.8012" lon="5.98995">
        <ele>845.5</ele>
        <time>2022-05-01T13:17:16Z</time>
      </trkpt>
      <trkpt lat="46.80118" lon="5.98989">
        <ele>845.6</ele>
        <time>2022-05-01T13:17:20Z</time>
      </trkpt>
      <trkpt lat="46.80116" lon="5.98982">
        <ele>845.5</ele>
        <time>2022-05-01T13:17:24Z</time>
      </trkpt>
      <trkpt lat="46.80113" lon="5.98976">
        <ele>845.6</ele>
        <time>2022-05-01T13:17:29Z</time>
      </trkpt>
      <trkpt lat="46.8011" lon="5.98969">
        <ele>845.8</ele>
        <time>2022-05-01T13:17:35Z</time>
      </trkpt>
      <trkpt lat="46.80108" lon="5.98962">
        <ele>846.4</ele>
        <time>2022-05-01T13:17:41Z</time>
      </trkpt>
      <trkpt lat="46.80105" lon="5.98956">
        <ele>847.3</ele>
        <time>2022-05-01T13:17:46Z</time>
      </trkpt>
      <trkpt lat="46.80102" lon="5.9895">
        <ele>847.5</ele>
        <time>2022-05-01T13:17:52Z</time>
      </trkpt>
      <trkpt lat="46.801" lon="5.98944">
        <ele>846.8</ele>
        <time>2022-05-01T13:17:57Z</time>
      </trkpt>
      <trkpt lat="46.80097" lon="5.98937">
        <ele>845.9</ele>
        <time>2022-05-01T13:18:02Z</time>
      </trkpt>
      <trkpt lat="46.80094" lon="5.9893">
        <ele>845.2</ele>
        <time>2022-05-01T13:18:06Z</time>
      </trkpt>
      <trkpt lat="46.80091" lon="5.98925">
        <ele>845</ele>
        <time>2022-05-01T13:18:10Z</time>
      </trkpt>
      <trkpt lat="46.80089" lon="5.98919">
        <ele>844.4</ele>
        <time>2022-05-01T13:18:15Z</time>
      </trkpt>
      <trkpt lat="46.80086" lon="5.98912">
        <ele>844.3</ele>
        <time>2022-05-01T13:18:20Z</time>
      </trkpt>
      <trkpt lat="46.80083" lon="5.98907">
        <ele>844</ele>
        <time>2022-05-01T13:18:25Z</time>
      </trkpt>
      <trkpt lat="46.80078" lon="5.98903">
        <ele>842.5</ele>
        <time>2022-05-01T13:18:31Z</time>
      </trkpt>
      <trkpt lat="46.80075" lon="5.98896">
        <ele>841.2</ele>
        <time>2022-05-01T13:18:36Z</time>
      </trkpt>
      <trkpt lat="46.80075" lon="5.98888">
        <ele>840.2</ele>
        <time>2022-05-01T13:18:40Z</time>
      </trkpt>
      <trkpt lat="46.80074" lon="5.98881">
        <ele>839.2</ele>
        <time>2022-05-01T13:18:44Z</time>
      </trkpt>
      <trkpt lat="46.80072" lon="5.98875">
        <ele>838.9</ele>
        <time>2022-05-01T13:18:47Z</time>
      </trkpt>
      <trkpt lat="46.80069" lon="5.98868">
        <ele>838.5</ele>
        <time>2022-05-01T13:18:51Z</time>
      </trkpt>
      <trkpt lat="46.80066" lon="5.98862">
        <ele>838.7</ele>
        <time>2022-05-01T13:18:54Z</time>
      </trkpt>
      <trkpt lat="46.80063" lon="5.98857">
        <ele>839.2</ele>
        <time>2022-05-01T13:18:58Z</time>
      </trkpt>
      <trkpt lat="46.8006" lon="5.98852">
        <ele>839.8</ele>
        <time>2022-05-01T13:19:03Z</time>
      </trkpt>
      <trkpt lat="46.80061" lon="5.98845">
        <ele>840.4</ele>
        <time>2022-05-01T13:19:49Z</time>
      </trkpt>
      <trkpt lat="46.80055" lon="5.98842">
        <ele>841</ele>
        <time>2022-05-01T13:19:55Z</time>
      </trkpt>
      <trkpt lat="46.80052" lon="5.98836">
        <ele>841.6</ele>
        <time>2022-05-01T13:20:00Z</time>
      </trkpt>
      <trkpt lat="46.80051" lon="5.98829">
        <ele>842</ele>
        <time>2022-05-01T13:20:05Z</time>
      </trkpt>
      <trkpt lat="46.80047" lon="5.98824">
        <ele>842.5</ele>
        <time>2022-05-01T13:20:10Z</time>
      </trkpt>
      <trkpt lat="46.80045" lon="5.98819">
        <ele>841.8</ele>
        <time>2022-05-01T13:20:15Z</time>
      </trkpt>
      <trkpt lat="46.80042" lon="5.98813">
        <ele>840.9</ele>
        <time>2022-05-01T13:20:20Z</time>
      </trkpt>
      <trkpt lat="46.80039" lon="5.98807">
        <ele>840.1</ele>
        <time>2022-05-01T13:20:26Z</time>
      </trkpt>
      <trkpt lat="46.80036" lon="5.98801">
        <ele>838.6</ele>
        <time>2022-05-01T13:20:32Z</time>
      </trkpt>
      <trkpt lat="46.80034" lon="5.98795">
        <ele>837.3</ele>
        <time>2022-05-01T13:20:37Z</time>
      </trkpt>
      <trkpt lat="46.8003" lon="5.98789">
        <ele>836.6</ele>
        <time>2022-05-01T13:20:41Z</time>
      </trkpt>
      <trkpt lat="46.80025" lon="5.98784">
        <ele>836.4</ele>
        <time>2022-05-01T13:20:45Z</time>
      </trkpt>
      <trkpt lat="46.80021" lon="5.9878">
        <ele>836.6</ele>
        <time>2022-05-01T13:20:49Z</time>
      </trkpt>
      <trkpt lat="46.80018" lon="5.98774">
        <ele>836.7</ele>
        <time>2022-05-01T13:20:52Z</time>
      </trkpt>
      <trkpt lat="46.80015" lon="5.98767">
        <ele>836.5</ele>
        <time>2022-05-01T13:20:56Z</time>
      </trkpt>
      <trkpt lat="46.80012" lon="5.98761">
        <ele>836.2</ele>
        <time>2022-05-01T13:21:00Z</time>
      </trkpt>
      <trkpt lat="46.80011" lon="5.98754">
        <ele>836.1</ele>
        <time>2022-05-01T13:21:03Z</time>
      </trkpt>
      <trkpt lat="46.8001" lon="5.98746">
        <ele>835.9</ele>
        <time>2022-05-01T13:21:07Z</time>
      </trkpt>
      <trkpt lat="46.80011" lon="5.98739">
        <ele>837</ele>
        <time>2022-05-01T13:21:20Z</time>
      </trkpt>
      <trkpt lat="46.80009" lon="5.98733">
        <ele>837</ele>
        <time>2022-05-01T13:21:26Z</time>
      </trkpt>
      <trkpt lat="46.80008" lon="5.98725">
        <ele>837</ele>
        <time>2022-05-01T13:21:35Z</time>
      </trkpt>
      <trkpt lat="46.80006" lon="5.98719">
        <ele>837.1</ele>
        <time>2022-05-01T13:21:41Z</time>
      </trkpt>
      <trkpt lat="46.80007" lon="5.98726">
        <ele>842.5</ele>
        <time>2022-05-01T13:22:01Z</time>
      </trkpt>
      <trkpt lat="46.80006" lon="5.98719">
        <ele>840.2</ele>
        <time>2022-05-01T13:22:39Z</time>
      </trkpt>
      <trkpt lat="46.80007" lon="5.98712">
        <ele>839.3</ele>
        <time>2022-05-01T13:22:45Z</time>
      </trkpt>
      <trkpt lat="46.80008" lon="5.98705">
        <ele>838.6</ele>
        <time>2022-05-01T13:22:51Z</time>
      </trkpt>
      <trkpt lat="46.80011" lon="5.98699">
        <ele>838.7</ele>
        <time>2022-05-01T13:22:57Z</time>
      </trkpt>
      <trkpt lat="46.80014" lon="5.98694">
        <ele>838.6</ele>
        <time>2022-05-01T13:23:02Z</time>
      </trkpt>
      <trkpt lat="46.80014" lon="5.98687">
        <ele>838.1</ele>
        <time>2022-05-01T13:23:09Z</time>
      </trkpt>
      <trkpt lat="46.80013" lon="5.9868">
        <ele>837.1</ele>
        <time>2022-05-01T13:23:16Z</time>
      </trkpt>
      <trkpt lat="46.80012" lon="5.98672">
        <ele>836.7</ele>
        <time>2022-05-01T13:23:22Z</time>
      </trkpt>
      <trkpt lat="46.80011" lon="5.98663">
        <ele>837</ele>
        <time>2022-05-01T13:23:25Z</time>
      </trkpt>
      <trkpt lat="46.80011" lon="5.98656">
        <ele>837.3</ele>
        <time>2022-05-01T13:23:28Z</time>
      </trkpt>
      <trkpt lat="46.80012" lon="5.98648">
        <ele>837.3</ele>
        <time>2022-05-01T13:23:32Z</time>
      </trkpt>
      <trkpt lat="46.8001" lon="5.98641">
        <ele>837.1</ele>
        <time>2022-05-01T13:23:36Z</time>
      </trkpt>
      <trkpt lat="46.80009" lon="5.98633">
        <ele>837.8</ele>
        <time>2022-05-01T13:23:41Z</time>
      </trkpt>
      <trkpt lat="46.80009" lon="5.98627">
        <ele>838.3</ele>
        <time>2022-05-01T13:23:46Z</time>
      </trkpt>
      <trkpt lat="46.80009" lon="5.9862">
        <ele>838.9</ele>
        <time>2022-05-01T13:23:50Z</time>
      </trkpt>
      <trkpt lat="46.80011" lon="5.98612">
        <ele>839.4</ele>
        <time>2022-05-01T13:23:54Z</time>
      </trkpt>
      <trkpt lat="46.80011" lon="5.98604">
        <ele>840.7</ele>
        <time>2022-05-01T13:23:59Z</time>
      </trkpt>
      <trkpt lat="46.80009" lon="5.98597">
        <ele>842.7</ele>
        <time>2022-05-01T13:24:05Z</time>
      </trkpt>
      <trkpt lat="46.80007" lon="5.98591">
        <ele>844.7</ele>
        <time>2022-05-01T13:24:11Z</time>
      </trkpt>
      <trkpt lat="46.80006" lon="5.98584">
        <ele>846.7</ele>
        <time>2022-05-01T13:24:16Z</time>
      </trkpt>
      <trkpt lat="46.80004" lon="5.98577">
        <ele>848.5</ele>
        <time>2022-05-01T13:24:21Z</time>
      </trkpt>
      <trkpt lat="46.80003" lon="5.9857">
        <ele>850.7</ele>
        <time>2022-05-01T13:24:28Z</time>
      </trkpt>
      <trkpt lat="46.8" lon="5.98564">
        <ele>853.8</ele>
        <time>2022-05-01T13:24:37Z</time>
      </trkpt>
      <trkpt lat="46.79994" lon="5.98556">
        <ele>858.4</ele>
        <time>2022-05-01T13:24:57Z</time>
      </trkpt>
      <trkpt lat="46.79991" lon="5.9855">
        <ele>859.6</ele>
        <time>2022-05-01T13:25:00Z</time>
      </trkpt>
      <trkpt lat="46.79988" lon="5.98544">
        <ele>861.2</ele>
        <time>2022-05-01T13:25:04Z</time>
      </trkpt>
      <trkpt lat="46.79984" lon="5.98541">
        <ele>862.4</ele>
        <time>2022-05-01T13:25:08Z</time>
      </trkpt>
      <trkpt lat="46.7998" lon="5.98538">
        <ele>862.9</ele>
        <time>2022-05-01T13:25:12Z</time>
      </trkpt>
      <trkpt lat="46.79979" lon="5.9853">
        <ele>863</ele>
        <time>2022-05-01T13:25:19Z</time>
      </trkpt>
      <trkpt lat="46.79979" lon="5.98522">
        <ele>863</ele>
        <time>2022-05-01T13:25:24Z</time>
      </trkpt>
      <trkpt lat="46.7998" lon="5.98516">
        <ele>863.4</ele>
        <time>2022-05-01T13:25:30Z</time>
      </trkpt>
      <trkpt lat="46.79978" lon="5.98509">
        <ele>862.9</ele>
        <time>2022-05-01T13:25:38Z</time>
      </trkpt>
      <trkpt lat="46.79976" lon="5.98502">
        <ele>862.4</ele>
        <time>2022-05-01T13:25:43Z</time>
      </trkpt>
      <trkpt lat="46.79975" lon="5.98494">
        <ele>862.2</ele>
        <time>2022-05-01T13:25:47Z</time>
      </trkpt>
      <trkpt lat="46.79976" lon="5.98487">
        <ele>862.1</ele>
        <time>2022-05-01T13:25:53Z</time>
      </trkpt>
      <trkpt lat="46.79976" lon="5.98479">
        <ele>862.4</ele>
        <time>2022-05-01T13:26:00Z</time>
      </trkpt>
      <trkpt lat="46.79974" lon="5.98473">
        <ele>863.5</ele>
        <time>2022-05-01T13:26:06Z</time>
      </trkpt>
      <trkpt lat="46.79969" lon="5.98469">
        <ele>864.2</ele>
        <time>2022-05-01T13:26:12Z</time>
      </trkpt>
      <trkpt lat="46.79966" lon="5.98463">
        <ele>864.7</ele>
        <time>2022-05-01T13:26:19Z</time>
      </trkpt>
      <trkpt lat="46.79965" lon="5.98456">
        <ele>865</ele>
        <time>2022-05-01T13:26:25Z</time>
      </trkpt>
      <trkpt lat="46.79965" lon="5.9845">
        <ele>865.2</ele>
        <time>2022-05-01T13:26:31Z</time>
      </trkpt>
      <trkpt lat="46.79964" lon="5.98442">
        <ele>865.3</ele>
        <time>2022-05-01T13:26:38Z</time>
      </trkpt>
      <trkpt lat="46.79963" lon="5.98435">
        <ele>865.7</ele>
        <time>2022-05-01T13:26:43Z</time>
      </trkpt>
      <trkpt lat="46.79962" lon="5.98428">
        <ele>866.6</ele>
        <time>2022-05-01T13:26:50Z</time>
      </trkpt>
      <trkpt lat="46.79963" lon="5.98422">
        <ele>867.6</ele>
        <time>2022-05-01T13:26:59Z</time>
      </trkpt>
      <trkpt lat="46.79961" lon="5.98414">
        <ele>868.3</ele>
        <time>2022-05-01T13:27:07Z</time>
      </trkpt>
      <trkpt lat="46.79962" lon="5.98406">
        <ele>868.8</ele>
        <time>2022-05-01T13:27:12Z</time>
      </trkpt>
      <trkpt lat="46.79964" lon="5.98399">
        <ele>869.5</ele>
        <time>2022-05-01T13:27:17Z</time>
      </trkpt>
      <trkpt lat="46.79966" lon="5.98392">
        <ele>870.8</ele>
        <time>2022-05-01T13:27:21Z</time>
      </trkpt>
      <trkpt lat="46.79968" lon="5.98385">
        <ele>872.3</ele>
        <time>2022-05-01T13:27:25Z</time>
      </trkpt>
      <trkpt lat="46.79969" lon="5.98379">
        <ele>873.9</ele>
        <time>2022-05-01T13:27:30Z</time>
      </trkpt>
      <trkpt lat="46.79973" lon="5.98373">
        <ele>875.7</ele>
        <time>2022-05-01T13:27:36Z</time>
      </trkpt>
      <trkpt lat="46.79976" lon="5.98368">
        <ele>876.9</ele>
        <time>2022-05-01T13:27:42Z</time>
      </trkpt>
      <trkpt lat="46.79981" lon="5.98365">
        <ele>877.4</ele>
        <time>2022-05-01T13:27:47Z</time>
      </trkpt>
      <trkpt lat="46.79984" lon="5.9836">
        <ele>877.7</ele>
        <time>2022-05-01T13:27:54Z</time>
      </trkpt>
      <trkpt lat="46.79988" lon="5.98356">
        <ele>878</ele>
        <time>2022-05-01T13:28:01Z</time>
      </trkpt>
      <trkpt lat="46.79992" lon="5.98352">
        <ele>878.4</ele>
        <time>2022-05-01T13:28:09Z</time>
      </trkpt>
      <trkpt lat="46.79997" lon="5.98346">
        <ele>878.8</ele>
        <time>2022-05-01T13:28:14Z</time>
      </trkpt>
      <trkpt lat="46.80001" lon="5.98342">
        <ele>879</ele>
        <time>2022-05-01T13:28:18Z</time>
      </trkpt>
      <trkpt lat="46.80005" lon="5.98339">
        <ele>879.8</ele>
        <time>2022-05-01T13:28:24Z</time>
      </trkpt>
      <trkpt lat="46.80009" lon="5.98337">
        <ele>880.1</ele>
        <time>2022-05-01T13:28:30Z</time>
      </trkpt>
      <trkpt lat="46.80013" lon="5.98334">
        <ele>879.7</ele>
        <time>2022-05-01T13:28:36Z</time>
      </trkpt>
      <trkpt lat="46.80019" lon="5.98332">
        <ele>879.1</ele>
        <time>2022-05-01T13:28:42Z</time>
      </trkpt>
      <trkpt lat="46.80023" lon="5.98332">
        <ele>879.1</ele>
        <time>2022-05-01T13:28:46Z</time>
      </trkpt>
      <trkpt lat="46.80028" lon="5.98332">
        <ele>879.5</ele>
        <time>2022-05-01T13:28:51Z</time>
      </trkpt>
      <trkpt lat="46.80033" lon="5.98331">
        <ele>879.8</ele>
        <time>2022-05-01T13:28:56Z</time>
      </trkpt>
      <trkpt lat="46.80038" lon="5.98329">
        <ele>880</ele>
        <time>2022-05-01T13:29:02Z</time>
      </trkpt>
      <trkpt lat="46.80043" lon="5.98326">
        <ele>880.6</ele>
        <time>2022-05-01T13:29:07Z</time>
      </trkpt>
      <trkpt lat="46.80048" lon="5.98321">
        <ele>881.7</ele>
        <time>2022-05-01T13:29:11Z</time>
      </trkpt>
      <trkpt lat="46.80052" lon="5.98318">
        <ele>882.9</ele>
        <time>2022-05-01T13:29:15Z</time>
      </trkpt>
      <trkpt lat="46.80057" lon="5.98315">
        <ele>884</ele>
        <time>2022-05-01T13:29:19Z</time>
      </trkpt>
      <trkpt lat="46.80061" lon="5.98314">
        <ele>884.7</ele>
        <time>2022-05-01T13:29:23Z</time>
      </trkpt>
      <trkpt lat="46.80067" lon="5.98315">
        <ele>884.8</ele>
        <time>2022-05-01T13:29:27Z</time>
      </trkpt>
      <trkpt lat="46.80071" lon="5.9831">
        <ele>884.2</ele>
        <time>2022-05-01T13:29:34Z</time>
      </trkpt>
      <trkpt lat="46.80074" lon="5.98305">
        <ele>883.8</ele>
        <time>2022-05-01T13:29:40Z</time>
      </trkpt>
      <trkpt lat="46.80077" lon="5.983">
        <ele>883.4</ele>
        <time>2022-05-01T13:29:45Z</time>
      </trkpt>
      <trkpt lat="46.80081" lon="5.98296">
        <ele>883.3</ele>
        <time>2022-05-01T13:29:49Z</time>
      </trkpt>
      <trkpt lat="46.80086" lon="5.98295">
        <ele>882.8</ele>
        <time>2022-05-01T13:29:54Z</time>
      </trkpt>
      <trkpt lat="46.80091" lon="5.98294">
        <ele>882.5</ele>
        <time>2022-05-01T13:30:01Z</time>
      </trkpt>
      <trkpt lat="46.80095" lon="5.98289">
        <ele>882.5</ele>
        <time>2022-05-01T13:30:06Z</time>
      </trkpt>
      <trkpt lat="46.80099" lon="5.98285">
        <ele>882.3</ele>
        <time>2022-05-01T13:30:10Z</time>
      </trkpt>
      <trkpt lat="46.80103" lon="5.98282">
        <ele>882.3</ele>
        <time>2022-05-01T13:30:15Z</time>
      </trkpt>
      <trkpt lat="46.80108" lon="5.98278">
        <ele>882.3</ele>
        <time>2022-05-01T13:30:21Z</time>
      </trkpt>
      <trkpt lat="46.80112" lon="5.98273">
        <ele>882.1</ele>
        <time>2022-05-01T13:30:27Z</time>
      </trkpt>
      <trkpt lat="46.80116" lon="5.98272">
        <ele>881.7</ele>
        <time>2022-05-01T13:30:31Z</time>
      </trkpt>
      <trkpt lat="46.80121" lon="5.98269">
        <ele>881.6</ele>
        <time>2022-05-01T13:30:34Z</time>
      </trkpt>
      <trkpt lat="46.80123" lon="5.98262">
        <ele>881.8</ele>
        <time>2022-05-01T13:30:37Z</time>
      </trkpt>
      <trkpt lat="46.8012" lon="5.98252">
        <ele>882.1</ele>
        <time>2022-05-01T13:30:40Z</time>
      </trkpt>
      <trkpt lat="46.80121" lon="5.98264">
        <ele>883</ele>
        <time>2022-05-01T13:30:44Z</time>
      </trkpt>
      <trkpt lat="46.80121" lon="5.9828">
        <ele>883.9</ele>
        <time>2022-05-01T13:30:47Z</time>
      </trkpt>
      <trkpt lat="46.80117" lon="5.98285">
        <ele>884.2</ele>
        <time>2022-05-01T13:30:50Z</time>
      </trkpt>
      <trkpt lat="46.80113" lon="5.98283">
        <ele>885.3</ele>
        <time>2022-05-01T13:30:54Z</time>
      </trkpt>
      <trkpt lat="46.80116" lon="5.98274">
        <ele>886.3</ele>
        <time>2022-05-01T13:30:59Z</time>
      </trkpt>
      <trkpt lat="46.80119" lon="5.98268">
        <ele>885.7</ele>
        <time>2022-05-01T13:31:02Z</time>
      </trkpt>
      <trkpt lat="46.80125" lon="5.98262">
        <ele>885.3</ele>
        <time>2022-05-01T13:31:05Z</time>
      </trkpt>
      <trkpt lat="46.8013" lon="5.98255">
        <ele>884.8</ele>
        <time>2022-05-01T13:31:08Z</time>
      </trkpt>
      <trkpt lat="46.80134" lon="5.9825">
        <ele>884.3</ele>
        <time>2022-05-01T13:31:12Z</time>
      </trkpt>
      <trkpt lat="46.80139" lon="5.98248">
        <ele>883.8</ele>
        <time>2022-05-01T13:31:17Z</time>
      </trkpt>
      <trkpt lat="46.80144" lon="5.98246">
        <ele>883.1</ele>
        <time>2022-05-01T13:31:22Z</time>
      </trkpt>
      <trkpt lat="46.80148" lon="5.98242">
        <ele>882.8</ele>
        <time>2022-05-01T13:31:28Z</time>
      </trkpt>
      <trkpt lat="46.80152" lon="5.98237">
        <ele>881.2</ele>
        <time>2022-05-01T13:31:37Z</time>
      </trkpt>
      <trkpt lat="46.80156" lon="5.98232">
        <ele>880.6</ele>
        <time>2022-05-01T13:31:41Z</time>
      </trkpt>
      <trkpt lat="46.80159" lon="5.98227">
        <ele>880.1</ele>
        <time>2022-05-01T13:31:45Z</time>
      </trkpt>
      <trkpt lat="46.80162" lon="5.98221">
        <ele>879.8</ele>
        <time>2022-05-01T13:31:51Z</time>
      </trkpt>
      <trkpt lat="46.80166" lon="5.98217">
        <ele>878.9</ele>
        <time>2022-05-01T13:31:59Z</time>
      </trkpt>
      <trkpt lat="46.80169" lon="5.98212">
        <ele>877.6</ele>
        <time>2022-05-01T13:32:06Z</time>
      </trkpt>
      <trkpt lat="46.80171" lon="5.98206">
        <ele>876.2</ele>
        <time>2022-05-01T13:32:13Z</time>
      </trkpt>
      <trkpt lat="46.80174" lon="5.98199">
        <ele>875.1</ele>
        <time>2022-05-01T13:32:18Z</time>
      </trkpt>
      <trkpt lat="46.80176" lon="5.98192">
        <ele>873.8</ele>
        <time>2022-05-01T13:32:23Z</time>
      </trkpt>
      <trkpt lat="46.80179" lon="5.98186">
        <ele>872.6</ele>
        <time>2022-05-01T13:32:29Z</time>
      </trkpt>
      <trkpt lat="46.80181" lon="5.98181">
        <ele>871</ele>
        <time>2022-05-01T13:32:37Z</time>
      </trkpt>
      <trkpt lat="46.80185" lon="5.98174">
        <ele>869.7</ele>
        <time>2022-05-01T13:32:44Z</time>
      </trkpt>
      <trkpt lat="46.80189" lon="5.98168">
        <ele>868.7</ele>
        <time>2022-05-01T13:32:48Z</time>
      </trkpt>
      <trkpt lat="46.80193" lon="5.98161">
        <ele>867.9</ele>
        <time>2022-05-01T13:32:52Z</time>
      </trkpt>
      <trkpt lat="46.80197" lon="5.98157">
        <ele>867.2</ele>
        <time>2022-05-01T13:32:56Z</time>
      </trkpt>
      <trkpt lat="46.802" lon="5.98152">
        <ele>865.9</ele>
        <time>2022-05-01T13:33:02Z</time>
      </trkpt>
      <trkpt lat="46.80203" lon="5.98147">
        <ele>864.4</ele>
        <time>2022-05-01T13:33:08Z</time>
      </trkpt>
      <trkpt lat="46.80208" lon="5.98143">
        <ele>863.4</ele>
        <time>2022-05-01T13:33:13Z</time>
      </trkpt>
      <trkpt lat="46.80213" lon="5.98142">
        <ele>862</ele>
        <time>2022-05-01T13:33:18Z</time>
      </trkpt>
      <trkpt lat="46.80218" lon="5.9814">
        <ele>860.8</ele>
        <time>2022-05-01T13:33:23Z</time>
      </trkpt>
      <trkpt lat="46.80222" lon="5.98137">
        <ele>859.4</ele>
        <time>2022-05-01T13:33:28Z</time>
      </trkpt>
      <trkpt lat="46.80226" lon="5.98132">
        <ele>858.2</ele>
        <time>2022-05-01T13:33:34Z</time>
      </trkpt>
      <trkpt lat="46.8023" lon="5.98129">
        <ele>857.2</ele>
        <time>2022-05-01T13:33:40Z</time>
      </trkpt>
      <trkpt lat="46.80235" lon="5.98126">
        <ele>856.2</ele>
        <time>2022-05-01T13:33:46Z</time>
      </trkpt>
      <trkpt lat="46.80239" lon="5.98123">
        <ele>855.4</ele>
        <time>2022-05-01T13:33:50Z</time>
      </trkpt>
      <trkpt lat="46.80244" lon="5.9812">
        <ele>853.1</ele>
        <time>2022-05-01T13:33:58Z</time>
      </trkpt>
      <trkpt lat="46.80248" lon="5.98117">
        <ele>851.3</ele>
        <time>2022-05-01T13:34:06Z</time>
      </trkpt>
      <trkpt lat="46.80251" lon="5.9811">
        <ele>850.1</ele>
        <time>2022-05-01T13:34:12Z</time>
      </trkpt>
      <trkpt lat="46.80255" lon="5.98105">
        <ele>849.1</ele>
        <time>2022-05-01T13:34:17Z</time>
      </trkpt>
      <trkpt lat="46.80258" lon="5.98101">
        <ele>848.1</ele>
        <time>2022-05-01T13:34:21Z</time>
      </trkpt>
      <trkpt lat="46.80263" lon="5.98098">
        <ele>847.2</ele>
        <time>2022-05-01T13:34:25Z</time>
      </trkpt>
      <trkpt lat="46.80269" lon="5.98097">
        <ele>846.3</ele>
        <time>2022-05-01T13:34:29Z</time>
      </trkpt>
      <trkpt lat="46.80274" lon="5.98095">
        <ele>844.9</ele>
        <time>2022-05-01T13:34:34Z</time>
      </trkpt>
      <trkpt lat="46.80278" lon="5.98093">
        <ele>843</ele>
        <time>2022-05-01T13:34:41Z</time>
      </trkpt>
      <trkpt lat="46.80283" lon="5.98091">
        <ele>841.8</ele>
        <time>2022-05-01T13:34:49Z</time>
      </trkpt>
      <trkpt lat="46.80287" lon="5.9809">
        <ele>841.5</ele>
        <time>2022-05-01T13:34:53Z</time>
      </trkpt>
      <trkpt lat="46.80291" lon="5.98087">
        <ele>841.2</ele>
        <time>2022-05-01T13:34:57Z</time>
      </trkpt>
      <trkpt lat="46.80296" lon="5.98084">
        <ele>839.6</ele>
        <time>2022-05-01T13:35:05Z</time>
      </trkpt>
      <trkpt lat="46.80298" lon="5.98078">
        <ele>839.5</ele>
        <time>2022-05-01T13:35:12Z</time>
      </trkpt>
      <trkpt lat="46.80302" lon="5.98074">
        <ele>839.6</ele>
        <time>2022-05-01T13:35:17Z</time>
      </trkpt>
      <trkpt lat="46.80306" lon="5.98069">
        <ele>839.9</ele>
        <time>2022-05-01T13:35:22Z</time>
      </trkpt>
      <trkpt lat="46.8031" lon="5.98064">
        <ele>839.9</ele>
        <time>2022-05-01T13:35:27Z</time>
      </trkpt>
      <trkpt lat="46.80314" lon="5.98063">
        <ele>839.8</ele>
        <time>2022-05-01T13:35:31Z</time>
      </trkpt>
      <trkpt lat="46.80319" lon="5.98061">
        <ele>839.5</ele>
        <time>2022-05-01T13:35:36Z</time>
      </trkpt>
      <trkpt lat="46.80323" lon="5.98058">
        <ele>838.4</ele>
        <time>2022-05-01T13:35:44Z</time>
      </trkpt>
      <trkpt lat="46.80329" lon="5.98055">
        <ele>838.5</ele>
        <time>2022-05-01T13:35:50Z</time>
      </trkpt>
      <trkpt lat="46.80333" lon="5.98053">
        <ele>838.7</ele>
        <time>2022-05-01T13:35:56Z</time>
      </trkpt>
      <trkpt lat="46.80337" lon="5.9805">
        <ele>838.8</ele>
        <time>2022-05-01T13:36:01Z</time>
      </trkpt>
      <trkpt lat="46.80342" lon="5.98046">
        <ele>838.7</ele>
        <time>2022-05-01T13:36:05Z</time>
      </trkpt>
      <trkpt lat="46.80347" lon="5.98042">
        <ele>838.4</ele>
        <time>2022-05-01T13:36:09Z</time>
      </trkpt>
      <trkpt lat="46.80352" lon="5.9804">
        <ele>838.1</ele>
        <time>2022-05-01T13:36:13Z</time>
      </trkpt>
      <trkpt lat="46.80357" lon="5.98037">
        <ele>836.8</ele>
        <time>2022-05-01T13:36:21Z</time>
      </trkpt>
      <trkpt lat="46.80361" lon="5.98034">
        <ele>835.7</ele>
        <time>2022-05-01T13:36:27Z</time>
      </trkpt>
      <trkpt lat="46.80366" lon="5.98033">
        <ele>834.2</ele>
        <time>2022-05-01T13:36:32Z</time>
      </trkpt>
      <trkpt lat="46.8037" lon="5.9803">
        <ele>832.9</ele>
        <time>2022-05-01T13:36:37Z</time>
      </trkpt>
      <trkpt lat="46.80374" lon="5.98026">
        <ele>832.4</ele>
        <time>2022-05-01T13:36:43Z</time>
      </trkpt>
      <trkpt lat="46.80378" lon="5.98023">
        <ele>832.2</ele>
        <time>2022-05-01T13:36:54Z</time>
      </trkpt>
      <trkpt lat="46.80378" lon="5.98015">
        <ele>831.8</ele>
        <time>2022-05-01T13:37:00Z</time>
      </trkpt>
      <trkpt lat="46.8038" lon="5.98009">
        <ele>830.6</ele>
        <time>2022-05-01T13:37:08Z</time>
      </trkpt>
      <trkpt lat="46.80383" lon="5.98003">
        <ele>829.8</ele>
        <time>2022-05-01T13:37:14Z</time>
      </trkpt>
      <trkpt lat="46.80385" lon="5.97996">
        <ele>829.2</ele>
        <time>2022-05-01T13:37:19Z</time>
      </trkpt>
      <trkpt lat="46.80386" lon="5.97989">
        <ele>828.1</ele>
        <time>2022-05-01T13:37:25Z</time>
      </trkpt>
      <trkpt lat="46.80388" lon="5.97983">
        <ele>826.4</ele>
        <time>2022-05-01T13:37:31Z</time>
      </trkpt>
      <trkpt lat="46.80392" lon="5.97979">
        <ele>823.7</ele>
        <time>2022-05-01T13:37:38Z</time>
      </trkpt>
      <trkpt lat="46.80394" lon="5.97971">
        <ele>821.6</ele>
        <time>2022-05-01T13:37:43Z</time>
      </trkpt>
      <trkpt lat="46.80397" lon="5.97965">
        <ele>820</ele>
        <time>2022-05-01T13:37:47Z</time>
      </trkpt>
      <trkpt lat="46.80401" lon="5.9796">
        <ele>818.7</ele>
        <time>2022-05-01T13:37:51Z</time>
      </trkpt>
      <trkpt lat="46.80404" lon="5.97954">
        <ele>817.7</ele>
        <time>2022-05-01T13:37:56Z</time>
      </trkpt>
      <trkpt lat="46.80408" lon="5.97948">
        <ele>816.8</ele>
        <time>2022-05-01T13:38:02Z</time>
      </trkpt>
      <trkpt lat="46.8041" lon="5.97941">
        <ele>816.2</ele>
        <time>2022-05-01T13:38:07Z</time>
      </trkpt>
      <trkpt lat="46.80413" lon="5.97935">
        <ele>815.4</ele>
        <time>2022-05-01T13:38:13Z</time>
      </trkpt>
      <trkpt lat="46.80415" lon="5.97928">
        <ele>814.5</ele>
        <time>2022-05-01T13:38:20Z</time>
      </trkpt>
      <trkpt lat="46.80419" lon="5.97923">
        <ele>813.7</ele>
        <time>2022-05-01T13:38:27Z</time>
      </trkpt>
      <trkpt lat="46.80422" lon="5.97918">
        <ele>812.5</ele>
        <time>2022-05-01T13:38:41Z</time>
      </trkpt>
      <trkpt lat="46.80426" lon="5.97914">
        <ele>811.7</ele>
        <time>2022-05-01T13:38:47Z</time>
      </trkpt>
      <trkpt lat="46.8043" lon="5.97909">
        <ele>810.3</ele>
        <time>2022-05-01T13:38:54Z</time>
      </trkpt>
      <trkpt lat="46.80435" lon="5.97905">
        <ele>809.2</ele>
        <time>2022-05-01T13:38:59Z</time>
      </trkpt>
      <trkpt lat="46.80437" lon="5.97899">
        <ele>808.2</ele>
        <time>2022-05-01T13:39:04Z</time>
      </trkpt>
      <trkpt lat="46.80439" lon="5.97893">
        <ele>806.7</ele>
        <time>2022-05-01T13:39:10Z</time>
      </trkpt>
      <trkpt lat="46.80442" lon="5.97887">
        <ele>804.9</ele>
        <time>2022-05-01T13:39:18Z</time>
      </trkpt>
      <trkpt lat="46.80445" lon="5.97882">
        <ele>804.7</ele>
        <time>2022-05-01T13:39:22Z</time>
      </trkpt>
      <trkpt lat="46.80449" lon="5.97878">
        <ele>804.4</ele>
        <time>2022-05-01T13:39:27Z</time>
      </trkpt>
      <trkpt lat="46.80451" lon="5.97871">
        <ele>803.2</ele>
        <time>2022-05-01T13:39:33Z</time>
      </trkpt>
      <trkpt lat="46.80452" lon="5.97864">
        <ele>800.6</ele>
        <time>2022-05-01T13:39:43Z</time>
      </trkpt>
      <trkpt lat="46.80455" lon="5.9786">
        <ele>798.5</ele>
        <time>2022-05-01T13:39:50Z</time>
      </trkpt>
      <trkpt lat="46.80458" lon="5.97854">
        <ele>797.5</ele>
        <time>2022-05-01T13:39:56Z</time>
      </trkpt>
      <trkpt lat="46.80462" lon="5.9785">
        <ele>797.1</ele>
        <time>2022-05-01T13:40:07Z</time>
      </trkpt>
      <trkpt lat="46.80464" lon="5.97844">
        <ele>796.6</ele>
        <time>2022-05-01T13:40:19Z</time>
      </trkpt>
      <trkpt lat="46.80467" lon="5.97838">
        <ele>795.5</ele>
        <time>2022-05-01T13:40:25Z</time>
      </trkpt>
      <trkpt lat="46.80471" lon="5.97834">
        <ele>794.6</ele>
        <time>2022-05-01T13:40:30Z</time>
      </trkpt>
      <trkpt lat="46.80475" lon="5.97833">
        <ele>793.6</ele>
        <time>2022-05-01T13:40:36Z</time>
      </trkpt>
      <trkpt lat="46.80481" lon="5.97828">
        <ele>790.2</ele>
        <time>2022-05-01T13:40:48Z</time>
      </trkpt>
      <trkpt lat="46.80483" lon="5.97822">
        <ele>788.7</ele>
        <time>2022-05-01T13:40:54Z</time>
      </trkpt>
      <trkpt lat="46.80484" lon="5.97815">
        <ele>787</ele>
        <time>2022-05-01T13:41:01Z</time>
      </trkpt>
      <trkpt lat="46.80486" lon="5.97808">
        <ele>785.6</ele>
        <time>2022-05-01T13:41:07Z</time>
      </trkpt>
      <trkpt lat="46.80489" lon="5.97805">
        <ele>784.1</ele>
        <time>2022-05-01T13:41:14Z</time>
      </trkpt>
      <trkpt lat="46.80494" lon="5.97801">
        <ele>782.8</ele>
        <time>2022-05-01T13:41:19Z</time>
      </trkpt>
      <trkpt lat="46.80497" lon="5.97796">
        <ele>780.9</ele>
        <time>2022-05-01T13:41:25Z</time>
      </trkpt>
      <trkpt lat="46.80502" lon="5.97793">
        <ele>779.8</ele>
        <time>2022-05-01T13:41:30Z</time>
      </trkpt>
      <trkpt lat="46.80506" lon="5.97788">
        <ele>779.3</ele>
        <time>2022-05-01T13:41:38Z</time>
      </trkpt>
      <trkpt lat="46.80509" lon="5.97783">
        <ele>779.1</ele>
        <time>2022-05-01T13:41:43Z</time>
      </trkpt>
      <trkpt lat="46.80512" lon="5.97777">
        <ele>778.8</ele>
        <time>2022-05-01T13:41:48Z</time>
      </trkpt>
      <trkpt lat="46.80516" lon="5.97775">
        <ele>778.1</ele>
        <time>2022-05-01T13:41:55Z</time>
      </trkpt>
      <trkpt lat="46.80521" lon="5.97773">
        <ele>776.9</ele>
        <time>2022-05-01T13:42:01Z</time>
      </trkpt>
      <trkpt lat="46.80525" lon="5.9777">
        <ele>776.1</ele>
        <time>2022-05-01T13:42:08Z</time>
      </trkpt>
      <trkpt lat="46.8053" lon="5.97767">
        <ele>775.6</ele>
        <time>2022-05-01T13:42:13Z</time>
      </trkpt>
      <trkpt lat="46.80535" lon="5.97769">
        <ele>774.3</ele>
        <time>2022-05-01T13:42:18Z</time>
      </trkpt>
      <trkpt lat="46.80538" lon="5.97764">
        <ele>772.4</ele>
        <time>2022-05-01T13:42:24Z</time>
      </trkpt>
      <trkpt lat="46.80542" lon="5.97758">
        <ele>770.2</ele>
        <time>2022-05-01T13:42:31Z</time>
      </trkpt>
      <trkpt lat="46.80545" lon="5.97753">
        <ele>768.6</ele>
        <time>2022-05-01T13:42:37Z</time>
      </trkpt>
      <trkpt lat="46.80549" lon="5.97751">
        <ele>766.8</ele>
        <time>2022-05-01T13:42:43Z</time>
      </trkpt>
      <trkpt lat="46.80553" lon="5.97747">
        <ele>765.5</ele>
        <time>2022-05-01T13:42:48Z</time>
      </trkpt>
      <trkpt lat="46.80557" lon="5.97743">
        <ele>764.7</ele>
        <time>2022-05-01T13:42:53Z</time>
      </trkpt>
      <trkpt lat="46.80561" lon="5.97737">
        <ele>764.2</ele>
        <time>2022-05-01T13:42:58Z</time>
      </trkpt>
      <trkpt lat="46.80564" lon="5.9773">
        <ele>764.2</ele>
        <time>2022-05-01T13:43:03Z</time>
      </trkpt>
      <trkpt lat="46.80568" lon="5.97727">
        <ele>764</ele>
        <time>2022-05-01T13:43:11Z</time>
      </trkpt>
      <trkpt lat="46.80572" lon="5.97723">
        <ele>762.8</ele>
        <time>2022-05-01T13:43:17Z</time>
      </trkpt>
      <trkpt lat="46.80576" lon="5.9772">
        <ele>761.4</ele>
        <time>2022-05-01T13:43:22Z</time>
      </trkpt>
      <trkpt lat="46.80581" lon="5.97716">
        <ele>759</ele>
        <time>2022-05-01T13:43:29Z</time>
      </trkpt>
      <trkpt lat="46.80585" lon="5.97713">
        <ele>758</ele>
        <time>2022-05-01T13:43:34Z</time>
      </trkpt>
      <trkpt lat="46.80589" lon="5.97709">
        <ele>756.9</ele>
        <time>2022-05-01T13:43:39Z</time>
      </trkpt>
      <trkpt lat="46.80593" lon="5.97704">
        <ele>755.8</ele>
        <time>2022-05-01T13:43:45Z</time>
      </trkpt>
      <trkpt lat="46.80598" lon="5.97701">
        <ele>755.3</ele>
        <time>2022-05-01T13:43:50Z</time>
      </trkpt>
      <trkpt lat="46.80602" lon="5.97698">
        <ele>754.7</ele>
        <time>2022-05-01T13:43:56Z</time>
      </trkpt>
      <trkpt lat="46.80607" lon="5.97694">
        <ele>751.6</ele>
        <time>2022-05-01T13:44:06Z</time>
      </trkpt>
      <trkpt lat="46.80611" lon="5.9769">
        <ele>749.6</ele>
        <time>2022-05-01T13:44:13Z</time>
      </trkpt>
      <trkpt lat="46.80616" lon="5.97686">
        <ele>748.5</ele>
        <time>2022-05-01T13:44:17Z</time>
      </trkpt>
      <trkpt lat="46.8062" lon="5.97682">
        <ele>748.1</ele>
        <time>2022-05-01T13:44:21Z</time>
      </trkpt>
      <trkpt lat="46.80625" lon="5.97682">
        <ele>748.3</ele>
        <time>2022-05-01T13:44:25Z</time>
      </trkpt>
      <trkpt lat="46.80629" lon="5.97679">
        <ele>748.8</ele>
        <time>2022-05-01T13:44:30Z</time>
      </trkpt>
      <trkpt lat="46.80634" lon="5.97676">
        <ele>748.8</ele>
        <time>2022-05-01T13:44:36Z</time>
      </trkpt>
      <trkpt lat="46.80638" lon="5.97673">
        <ele>748.7</ele>
        <time>2022-05-01T13:44:45Z</time>
      </trkpt>
      <trkpt lat="46.80642" lon="5.97668">
        <ele>748.3</ele>
        <time>2022-05-01T13:44:50Z</time>
      </trkpt>
      <trkpt lat="46.80646" lon="5.97664">
        <ele>747.7</ele>
        <time>2022-05-01T13:44:56Z</time>
      </trkpt>
      <trkpt lat="46.80651" lon="5.97663">
        <ele>747</ele>
        <time>2022-05-01T13:45:01Z</time>
      </trkpt>
      <trkpt lat="46.80656" lon="5.97662">
        <ele>747.1</ele>
        <time>2022-05-01T13:45:11Z</time>
      </trkpt>
      <trkpt lat="46.80652" lon="5.97659">
        <ele>748.7</ele>
        <time>2022-05-01T13:45:50Z</time>
      </trkpt>
      <trkpt lat="46.80647" lon="5.97654">
        <ele>749.4</ele>
        <time>2022-05-01T13:45:53Z</time>
      </trkpt>
      <trkpt lat="46.80651" lon="5.97649">
        <ele>748.1</ele>
        <time>2022-05-01T13:46:19Z</time>
      </trkpt>
      <trkpt lat="46.80656" lon="5.97653">
        <ele>746.4</ele>
        <time>2022-05-01T13:46:23Z</time>
      </trkpt>
      <trkpt lat="46.8066" lon="5.97655">
        <ele>745.7</ele>
        <time>2022-05-01T13:46:27Z</time>
      </trkpt>
      <trkpt lat="46.80665" lon="5.97657">
        <ele>745.2</ele>
        <time>2022-05-01T13:46:32Z</time>
      </trkpt>
      <trkpt lat="46.80668" lon="5.97651">
        <ele>748.2</ele>
        <time>2022-05-01T13:46:59Z</time>
      </trkpt>
      <trkpt lat="46.80673" lon="5.97652">
        <ele>749.5</ele>
        <time>2022-05-01T13:47:05Z</time>
      </trkpt>
      <trkpt lat="46.80678" lon="5.97654">
        <ele>749.7</ele>
        <time>2022-05-01T13:47:09Z</time>
      </trkpt>
      <trkpt lat="46.80683" lon="5.97655">
        <ele>749.3</ele>
        <time>2022-05-01T13:47:15Z</time>
      </trkpt>
      <trkpt lat="46.80687" lon="5.97652">
        <ele>748.9</ele>
        <time>2022-05-01T13:47:20Z</time>
      </trkpt>
      <trkpt lat="46.80693" lon="5.97652">
        <ele>748.6</ele>
        <time>2022-05-01T13:47:27Z</time>
      </trkpt>
      <trkpt lat="46.80697" lon="5.97656">
        <ele>747.9</ele>
        <time>2022-05-01T13:47:32Z</time>
      </trkpt>
      <trkpt lat="46.80702" lon="5.97656">
        <ele>747.7</ele>
        <time>2022-05-01T13:47:38Z</time>
      </trkpt>
      <trkpt lat="46.80706" lon="5.97651">
        <ele>747.8</ele>
        <time>2022-05-01T13:47:44Z</time>
      </trkpt>
      <trkpt lat="46.8071" lon="5.97647">
        <ele>749.1</ele>
        <time>2022-05-01T13:47:51Z</time>
      </trkpt>
      <trkpt lat="46.80715" lon="5.97646">
        <ele>750.2</ele>
        <time>2022-05-01T13:47:56Z</time>
      </trkpt>
      <trkpt lat="46.8072" lon="5.97646">
        <ele>751.4</ele>
        <time>2022-05-01T13:48:00Z</time>
      </trkpt>
      <trkpt lat="46.80724" lon="5.97647">
        <ele>752.8</ele>
        <time>2022-05-01T13:48:08Z</time>
      </trkpt>
      <trkpt lat="46.80729" lon="5.97646">
        <ele>754</ele>
        <time>2022-05-01T13:48:13Z</time>
      </trkpt>
      <trkpt lat="46.80733" lon="5.97647">
        <ele>755.7</ele>
        <time>2022-05-01T13:48:20Z</time>
      </trkpt>
      <trkpt lat="46.80739" lon="5.97649">
        <ele>756.5</ele>
        <time>2022-05-01T13:48:25Z</time>
      </trkpt>
      <trkpt lat="46.80744" lon="5.97648">
        <ele>757</ele>
        <time>2022-05-01T13:48:29Z</time>
      </trkpt>
      <trkpt lat="46.80748" lon="5.97649">
        <ele>758</ele>
        <time>2022-05-01T13:48:33Z</time>
      </trkpt>
      <trkpt lat="46.80753" lon="5.9765">
        <ele>759.1</ele>
        <time>2022-05-01T13:48:42Z</time>
      </trkpt>
      <trkpt lat="46.80758" lon="5.9765">
        <ele>759.8</ele>
        <time>2022-05-01T13:48:49Z</time>
      </trkpt>
      <trkpt lat="46.80762" lon="5.97654">
        <ele>760</ele>
        <time>2022-05-01T13:48:55Z</time>
      </trkpt>
      <trkpt lat="46.80767" lon="5.97655">
        <ele>759.6</ele>
        <time>2022-05-01T13:49:04Z</time>
      </trkpt>
      <trkpt lat="46.80771" lon="5.97652">
        <ele>760</ele>
        <time>2022-05-01T13:49:10Z</time>
      </trkpt>
      <trkpt lat="46.80776" lon="5.97653">
        <ele>760.7</ele>
        <time>2022-05-01T13:49:17Z</time>
      </trkpt>
      <trkpt lat="46.80781" lon="5.97656">
        <ele>760.8</ele>
        <time>2022-05-01T13:49:24Z</time>
      </trkpt>
      <trkpt lat="46.80786" lon="5.97655">
        <ele>762.1</ele>
        <time>2022-05-01T13:49:30Z</time>
      </trkpt>
      <trkpt lat="46.80791" lon="5.97656">
        <ele>763.5</ele>
        <time>2022-05-01T13:49:35Z</time>
      </trkpt>
      <trkpt lat="46.80796" lon="5.97659">
        <ele>765.7</ele>
        <time>2022-05-01T13:49:41Z</time>
      </trkpt>
      <trkpt lat="46.808" lon="5.97663">
        <ele>768</ele>
        <time>2022-05-01T13:49:47Z</time>
      </trkpt>
      <trkpt lat="46.80803" lon="5.97669">
        <ele>773.6</ele>
        <time>2022-05-01T13:50:09Z</time>
      </trkpt>
      <trkpt lat="46.80806" lon="5.97673">
        <ele>773.9</ele>
        <time>2022-05-01T13:50:27Z</time>
      </trkpt>
      <trkpt lat="46.80811" lon="5.97672">
        <ele>774.7</ele>
        <time>2022-05-01T13:50:34Z</time>
      </trkpt>
      <trkpt lat="46.80806" lon="5.97672">
        <ele>782.9</ele>
        <time>2022-05-01T13:51:35Z</time>
      </trkpt>
      <trkpt lat="46.80803" lon="5.97677">
        <ele>791.2</ele>
        <time>2022-05-01T13:52:13Z</time>
      </trkpt>
      <trkpt lat="46.80798" lon="5.9768">
        <ele>794.6</ele>
        <time>2022-05-01T13:52:21Z</time>
      </trkpt>
      <trkpt lat="46.80791" lon="5.97685">
        <ele>794.9</ele>
        <time>2022-05-01T13:52:39Z</time>
      </trkpt>
      <trkpt lat="46.80789" lon="5.9769">
        <ele>793.8</ele>
        <time>2022-05-01T13:52:42Z</time>
      </trkpt>
      <trkpt lat="46.80785" lon="5.97695">
        <ele>792.6</ele>
        <time>2022-05-01T13:52:47Z</time>
      </trkpt>
      <trkpt lat="46.80783" lon="5.977">
        <ele>792.1</ele>
        <time>2022-05-01T13:52:53Z</time>
      </trkpt>
      <trkpt lat="46.80782" lon="5.97707">
        <ele>791</ele>
        <time>2022-05-01T13:53:02Z</time>
      </trkpt>
      <trkpt lat="46.80781" lon="5.97714">
        <ele>793.2</ele>
        <time>2022-05-01T13:54:23Z</time>
      </trkpt>
      <trkpt lat="46.80779" lon="5.97721">
        <ele>793.4</ele>
        <time>2022-05-01T13:54:26Z</time>
      </trkpt>
      <trkpt lat="46.80779" lon="5.97729">
        <ele>793.3</ele>
        <time>2022-05-01T13:54:32Z</time>
      </trkpt>
      <trkpt lat="46.80783" lon="5.97735">
        <ele>792.8</ele>
        <time>2022-05-01T13:54:39Z</time>
      </trkpt>
      <trkpt lat="46.80784" lon="5.97741">
        <ele>792.1</ele>
        <time>2022-05-01T13:54:45Z</time>
      </trkpt>
      <trkpt lat="46.80786" lon="5.97749">
        <ele>792</ele>
        <time>2022-05-01T13:54:50Z</time>
      </trkpt>
      <trkpt lat="46.80788" lon="5.97756">
        <ele>792.2</ele>
        <time>2022-05-01T13:54:54Z</time>
      </trkpt>
      <trkpt lat="46.8079" lon="5.97763">
        <ele>792.9</ele>
        <time>2022-05-01T13:54:59Z</time>
      </trkpt>
      <trkpt lat="46.8079" lon="5.9777">
        <ele>793.4</ele>
        <time>2022-05-01T13:55:03Z</time>
      </trkpt>
      <trkpt lat="46.8079" lon="5.97777">
        <ele>794</ele>
        <time>2022-05-01T13:55:08Z</time>
      </trkpt>
      <trkpt lat="46.80789" lon="5.97783">
        <ele>794.6</ele>
        <time>2022-05-01T13:55:13Z</time>
      </trkpt>
      <trkpt lat="46.8079" lon="5.9779">
        <ele>795.5</ele>
        <time>2022-05-01T13:55:18Z</time>
      </trkpt>
      <trkpt lat="46.80792" lon="5.97796">
        <ele>797.2</ele>
        <time>2022-05-01T13:55:24Z</time>
      </trkpt>
      <trkpt lat="46.80794" lon="5.97802">
        <ele>798.5</ele>
        <time>2022-05-01T13:55:29Z</time>
      </trkpt>
      <trkpt lat="46.80797" lon="5.97807">
        <ele>799.6</ele>
        <time>2022-05-01T13:55:37Z</time>
      </trkpt>
      <trkpt lat="46.808" lon="5.97814">
        <ele>800.2</ele>
        <time>2022-05-01T13:55:44Z</time>
      </trkpt>
      <trkpt lat="46.80799" lon="5.97821">
        <ele>800.3</ele>
        <time>2022-05-01T13:55:49Z</time>
      </trkpt>
      <trkpt lat="46.80801" lon="5.97829">
        <ele>800.2</ele>
        <time>2022-05-01T13:55:54Z</time>
      </trkpt>
      <trkpt lat="46.80803" lon="5.97836">
        <ele>800.2</ele>
        <time>2022-05-01T13:55:58Z</time>
      </trkpt>
      <trkpt lat="46.80805" lon="5.97842">
        <ele>800.6</ele>
        <time>2022-05-01T13:56:02Z</time>
      </trkpt>
      <trkpt lat="46.80805" lon="5.97849">
        <ele>801.5</ele>
        <time>2022-05-01T13:56:07Z</time>
      </trkpt>
      <trkpt lat="46.80805" lon="5.97856">
        <ele>802.6</ele>
        <time>2022-05-01T13:56:13Z</time>
      </trkpt>
      <trkpt lat="46.80807" lon="5.97863">
        <ele>803.3</ele>
        <time>2022-05-01T13:56:17Z</time>
      </trkpt>
      <trkpt lat="46.8081" lon="5.97869">
        <ele>804.1</ele>
        <time>2022-05-01T13:56:22Z</time>
      </trkpt>
      <trkpt lat="46.80811" lon="5.97875">
        <ele>804.2</ele>
        <time>2022-05-01T13:56:28Z</time>
      </trkpt>
      <trkpt lat="46.80814" lon="5.97882">
        <ele>804.3</ele>
        <time>2022-05-01T13:56:34Z</time>
      </trkpt>
      <trkpt lat="46.80815" lon="5.97889">
        <ele>804.2</ele>
        <time>2022-05-01T13:56:40Z</time>
      </trkpt>
      <trkpt lat="46.80818" lon="5.97895">
        <ele>803.8</ele>
        <time>2022-05-01T13:56:45Z</time>
      </trkpt>
      <trkpt lat="46.80821" lon="5.97901">
        <ele>803.6</ele>
        <time>2022-05-01T13:56:51Z</time>
      </trkpt>
      <trkpt lat="46.80819" lon="5.97908">
        <ele>803.7</ele>
        <time>2022-05-01T13:56:57Z</time>
      </trkpt>
      <trkpt lat="46.80817" lon="5.97915">
        <ele>803.9</ele>
        <time>2022-05-01T13:57:02Z</time>
      </trkpt>
      <trkpt lat="46.80816" lon="5.97923">
        <ele>804.8</ele>
        <time>2022-05-01T13:57:07Z</time>
      </trkpt>
      <trkpt lat="46.80816" lon="5.9793">
        <ele>805.6</ele>
        <time>2022-05-01T13:57:12Z</time>
      </trkpt>
      <trkpt lat="46.80819" lon="5.97935">
        <ele>806.8</ele>
        <time>2022-05-01T13:57:18Z</time>
      </trkpt>
      <trkpt lat="46.80822" lon="5.97941">
        <ele>808.8</ele>
        <time>2022-05-01T13:57:25Z</time>
      </trkpt>
      <trkpt lat="46.80824" lon="5.97948">
        <ele>809.9</ele>
        <time>2022-05-01T13:57:30Z</time>
      </trkpt>
      <trkpt lat="46.80825" lon="5.97955">
        <ele>810.5</ele>
        <time>2022-05-01T13:57:34Z</time>
      </trkpt>
      <trkpt lat="46.80825" lon="5.97962">
        <ele>811.1</ele>
        <time>2022-05-01T13:57:39Z</time>
      </trkpt>
      <trkpt lat="46.80824" lon="5.97973">
        <ele>812.4</ele>
        <time>2022-05-01T13:57:56Z</time>
      </trkpt>
      <trkpt lat="46.80823" lon="5.97981">
        <ele>812.6</ele>
        <time>2022-05-01T13:58:00Z</time>
      </trkpt>
      <trkpt lat="46.80821" lon="5.97989">
        <ele>812.9</ele>
        <time>2022-05-01T13:58:05Z</time>
      </trkpt>
      <trkpt lat="46.80817" lon="5.97995">
        <ele>813.3</ele>
        <time>2022-05-01T13:58:10Z</time>
      </trkpt>
      <trkpt lat="46.80815" lon="5.98002">
        <ele>814.4</ele>
        <time>2022-05-01T13:58:14Z</time>
      </trkpt>
      <trkpt lat="46.80818" lon="5.98008">
        <ele>822.2</ele>
        <time>2022-05-01T13:58:33Z</time>
      </trkpt>
      <trkpt lat="46.80822" lon="5.98005">
        <ele>822.8</ele>
        <time>2022-05-01T13:58:39Z</time>
      </trkpt>
      <trkpt lat="46.80823" lon="5.98012">
        <ele>823.1</ele>
        <time>2022-05-01T13:59:39Z</time>
      </trkpt>
      <trkpt lat="46.80822" lon="5.98019">
        <ele>822.2</ele>
        <time>2022-05-01T13:59:43Z</time>
      </trkpt>
      <trkpt lat="46.80821" lon="5.98026">
        <ele>821.6</ele>
        <time>2022-05-01T13:59:48Z</time>
      </trkpt>
      <trkpt lat="46.80824" lon="5.98032">
        <ele>821.5</ele>
        <time>2022-05-01T13:59:55Z</time>
      </trkpt>
      <trkpt lat="46.80828" lon="5.98035">
        <ele>821.3</ele>
        <time>2022-05-01T14:00:00Z</time>
      </trkpt>
      <trkpt lat="46.80833" lon="5.98039">
        <ele>821.4</ele>
        <time>2022-05-01T14:00:05Z</time>
      </trkpt>
      <trkpt lat="46.80837" lon="5.9804">
        <ele>821.4</ele>
        <time>2022-05-01T14:00:17Z</time>
      </trkpt>
      <trkpt lat="46.80832" lon="5.98044">
        <ele>821.5</ele>
        <time>2022-05-01T14:00:35Z</time>
      </trkpt>
      <trkpt lat="46.80836" lon="5.98042">
        <ele>821.4</ele>
        <time>2022-05-01T14:01:09Z</time>
      </trkpt>
      <trkpt lat="46.8084" lon="5.98047">
        <ele>822.6</ele>
        <time>2022-05-01T14:01:20Z</time>
      </trkpt>
      <trkpt lat="46.80843" lon="5.98053">
        <ele>823.2</ele>
        <time>2022-05-01T14:01:26Z</time>
      </trkpt>
      <trkpt lat="46.80846" lon="5.98058">
        <ele>823.4</ele>
        <time>2022-05-01T14:01:31Z</time>
      </trkpt>
      <trkpt lat="46.80848" lon="5.98066">
        <ele>823.7</ele>
        <time>2022-05-01T14:01:37Z</time>
      </trkpt>
      <trkpt lat="46.8085" lon="5.98072">
        <ele>823.8</ele>
        <time>2022-05-01T14:01:42Z</time>
      </trkpt>
      <trkpt lat="46.80853" lon="5.98079">
        <ele>824.3</ele>
        <time>2022-05-01T14:01:48Z</time>
      </trkpt>
      <trkpt lat="46.80856" lon="5.98084">
        <ele>824.6</ele>
        <time>2022-05-01T14:01:53Z</time>
      </trkpt>
      <trkpt lat="46.80859" lon="5.9809">
        <ele>824.9</ele>
        <time>2022-05-01T14:02:00Z</time>
      </trkpt>
      <trkpt lat="46.80862" lon="5.98095">
        <ele>825.2</ele>
        <time>2022-05-01T14:02:05Z</time>
      </trkpt>
      <trkpt lat="46.80866" lon="5.98099">
        <ele>825.3</ele>
        <time>2022-05-01T14:02:09Z</time>
      </trkpt>
      <trkpt lat="46.80871" lon="5.98101">
        <ele>825.4</ele>
        <time>2022-05-01T14:02:12Z</time>
      </trkpt>
      <trkpt lat="46.80875" lon="5.98105">
        <ele>825.6</ele>
        <time>2022-05-01T14:02:17Z</time>
      </trkpt>
      <trkpt lat="46.80879" lon="5.98108">
        <ele>826.2</ele>
        <time>2022-05-01T14:02:22Z</time>
      </trkpt>
      <trkpt lat="46.80884" lon="5.98113">
        <ele>826.8</ele>
        <time>2022-05-01T14:02:27Z</time>
      </trkpt>
      <trkpt lat="46.80888" lon="5.98117">
        <ele>827.3</ele>
        <time>2022-05-01T14:02:32Z</time>
      </trkpt>
      <trkpt lat="46.80891" lon="5.98122">
        <ele>828.3</ele>
        <time>2022-05-01T14:02:40Z</time>
      </trkpt>
      <trkpt lat="46.80893" lon="5.98128">
        <ele>830.2</ele>
        <time>2022-05-01T14:02:48Z</time>
      </trkpt>
      <trkpt lat="46.80897" lon="5.98134">
        <ele>831.1</ele>
        <time>2022-05-01T14:02:52Z</time>
      </trkpt>
      <trkpt lat="46.80901" lon="5.98139">
        <ele>832</ele>
        <time>2022-05-01T14:02:55Z</time>
      </trkpt>
      <trkpt lat="46.80905" lon="5.98144">
        <ele>832.9</ele>
        <time>2022-05-01T14:02:58Z</time>
      </trkpt>
      <trkpt lat="46.80909" lon="5.98149">
        <ele>833.7</ele>
        <time>2022-05-01T14:03:01Z</time>
      </trkpt>
      <trkpt lat="46.80913" lon="5.98154">
        <ele>834.6</ele>
        <time>2022-05-01T14:03:05Z</time>
      </trkpt>
      <trkpt lat="46.80917" lon="5.98159">
        <ele>835.3</ele>
        <time>2022-05-01T14:03:10Z</time>
      </trkpt>
      <trkpt lat="46.80921" lon="5.98165">
        <ele>836</ele>
        <time>2022-05-01T14:03:16Z</time>
      </trkpt>
      <trkpt lat="46.80925" lon="5.98168">
        <ele>836.4</ele>
        <time>2022-05-01T14:03:23Z</time>
      </trkpt>
      <trkpt lat="46.80928" lon="5.98173">
        <ele>836</ele>
        <time>2022-05-01T14:03:28Z</time>
      </trkpt>
      <trkpt lat="46.80931" lon="5.98177">
        <ele>835.7</ele>
        <time>2022-05-01T14:03:33Z</time>
      </trkpt>
      <trkpt lat="46.80937" lon="5.9818">
        <ele>835.4</ele>
        <time>2022-05-01T14:03:39Z</time>
      </trkpt>
      <trkpt lat="46.80942" lon="5.98182">
        <ele>834.9</ele>
        <time>2022-05-01T14:03:46Z</time>
      </trkpt>
      <trkpt lat="46.80946" lon="5.98183">
        <ele>834.6</ele>
        <time>2022-05-01T14:03:50Z</time>
      </trkpt>
      <trkpt lat="46.80952" lon="5.98184">
        <ele>833.9</ele>
        <time>2022-05-01T14:03:54Z</time>
      </trkpt>
      <trkpt lat="46.80957" lon="5.98186">
        <ele>833</ele>
        <time>2022-05-01T14:03:58Z</time>
      </trkpt>
      <trkpt lat="46.80962" lon="5.98187">
        <ele>831.2</ele>
        <time>2022-05-01T14:04:05Z</time>
      </trkpt>
      <trkpt lat="46.80966" lon="5.98186">
        <ele>830.4</ele>
        <time>2022-05-01T14:04:09Z</time>
      </trkpt>
      <trkpt lat="46.80971" lon="5.98185">
        <ele>829.9</ele>
        <time>2022-05-01T14:04:13Z</time>
      </trkpt>
      <trkpt lat="46.80975" lon="5.98183">
        <ele>829</ele>
        <time>2022-05-01T14:04:18Z</time>
      </trkpt>
      <trkpt lat="46.8098" lon="5.98182">
        <ele>827.5</ele>
        <time>2022-05-01T14:04:26Z</time>
      </trkpt>
      <trkpt lat="46.80984" lon="5.9818">
        <ele>826.6</ele>
        <time>2022-05-01T14:04:32Z</time>
      </trkpt>
      <trkpt lat="46.80989" lon="5.98177">
        <ele>826</ele>
        <time>2022-05-01T14:04:36Z</time>
      </trkpt>
      <trkpt lat="46.80994" lon="5.98175">
        <ele>825.6</ele>
        <time>2022-05-01T14:04:41Z</time>
      </trkpt>
      <trkpt lat="46.80998" lon="5.98173">
        <ele>825.6</ele>
        <time>2022-05-01T14:04:46Z</time>
      </trkpt>
      <trkpt lat="46.81003" lon="5.98171">
        <ele>825.8</ele>
        <time>2022-05-01T14:04:50Z</time>
      </trkpt>
      <trkpt lat="46.81008" lon="5.98172">
        <ele>825.9</ele>
        <time>2022-05-01T14:04:54Z</time>
      </trkpt>
      <trkpt lat="46.81012" lon="5.98176">
        <ele>825.1</ele>
        <time>2022-05-01T14:04:58Z</time>
      </trkpt>
      <trkpt lat="46.81015" lon="5.9818">
        <ele>823.9</ele>
        <time>2022-05-01T14:05:03Z</time>
      </trkpt>
      <trkpt lat="46.8102" lon="5.98182">
        <ele>822.4</ele>
        <time>2022-05-01T14:05:09Z</time>
      </trkpt>
      <trkpt lat="46.81025" lon="5.98182">
        <ele>821.2</ele>
        <time>2022-05-01T14:05:14Z</time>
      </trkpt>
      <trkpt lat="46.8103" lon="5.98185">
        <ele>820</ele>
        <time>2022-05-01T14:05:18Z</time>
      </trkpt>
      <trkpt lat="46.81035" lon="5.98187">
        <ele>818.5</ele>
        <time>2022-05-01T14:05:23Z</time>
      </trkpt>
      <trkpt lat="46.81043" lon="5.98188">
        <ele>817.1</ele>
        <time>2022-05-01T14:05:45Z</time>
      </trkpt>
      <trkpt lat="46.81049" lon="5.98191">
        <ele>818</ele>
        <time>2022-05-01T14:05:48Z</time>
      </trkpt>
      <trkpt lat="46.81054" lon="5.98194">
        <ele>819.1</ele>
        <time>2022-05-01T14:05:52Z</time>
      </trkpt>
      <trkpt lat="46.81059" lon="5.98196">
        <ele>819.8</ele>
        <time>2022-05-01T14:05:55Z</time>
      </trkpt>
      <trkpt lat="46.81064" lon="5.98199">
        <ele>820.6</ele>
        <time>2022-05-01T14:05:59Z</time>
      </trkpt>
      <trkpt lat="46.81069" lon="5.98201">
        <ele>821</ele>
        <time>2022-05-01T14:06:02Z</time>
      </trkpt>
      <trkpt lat="46.81074" lon="5.98204">
        <ele>821.1</ele>
        <time>2022-05-01T14:06:06Z</time>
      </trkpt>
      <trkpt lat="46.81078" lon="5.98207">
        <ele>822.1</ele>
        <time>2022-05-01T14:06:11Z</time>
      </trkpt>
      <trkpt lat="46.81084" lon="5.98208">
        <ele>823.4</ele>
        <time>2022-05-01T14:06:15Z</time>
      </trkpt>
      <trkpt lat="46.81089" lon="5.98211">
        <ele>825</ele>
        <time>2022-05-01T14:06:19Z</time>
      </trkpt>
      <trkpt lat="46.81094" lon="5.98214">
        <ele>826.2</ele>
        <time>2022-05-01T14:06:22Z</time>
      </trkpt>
      <trkpt lat="46.811" lon="5.98217">
        <ele>826.8</ele>
        <time>2022-05-01T14:06:25Z</time>
      </trkpt>
      <trkpt lat="46.81105" lon="5.98219">
        <ele>827.3</ele>
        <time>2022-05-01T14:06:28Z</time>
      </trkpt>
      <trkpt lat="46.81109" lon="5.98223">
        <ele>827.8</ele>
        <time>2022-05-01T14:06:32Z</time>
      </trkpt>
      <trkpt lat="46.81112" lon="5.98228">
        <ele>828.8</ele>
        <time>2022-05-01T14:06:36Z</time>
      </trkpt>
      <trkpt lat="46.81113" lon="5.98236">
        <ele>830.6</ele>
        <time>2022-05-01T14:06:42Z</time>
      </trkpt>
      <trkpt lat="46.81117" lon="5.98241">
        <ele>831.9</ele>
        <time>2022-05-01T14:06:47Z</time>
      </trkpt>
      <trkpt lat="46.8112" lon="5.98248">
        <ele>832.2</ele>
        <time>2022-05-01T14:06:52Z</time>
      </trkpt>
      <trkpt lat="46.8112" lon="5.98255">
        <ele>832.5</ele>
        <time>2022-05-01T14:06:56Z</time>
      </trkpt>
      <trkpt lat="46.81121" lon="5.98263">
        <ele>833</ele>
        <time>2022-05-01T14:07:01Z</time>
      </trkpt>
      <trkpt lat="46.81124" lon="5.98268">
        <ele>834</ele>
        <time>2022-05-01T14:07:07Z</time>
      </trkpt>
      <trkpt lat="46.81127" lon="5.98274">
        <ele>834.9</ele>
        <time>2022-05-01T14:07:14Z</time>
      </trkpt>
      <trkpt lat="46.81128" lon="5.98281">
        <ele>836.8</ele>
        <time>2022-05-01T14:07:21Z</time>
      </trkpt>
      <trkpt lat="46.81129" lon="5.98288">
        <ele>838</ele>
        <time>2022-05-01T14:07:26Z</time>
      </trkpt>
      <trkpt lat="46.81131" lon="5.98295">
        <ele>839.6</ele>
        <time>2022-05-01T14:07:32Z</time>
      </trkpt>
      <trkpt lat="46.81133" lon="5.98301">
        <ele>840.9</ele>
        <time>2022-05-01T14:07:36Z</time>
      </trkpt>
      <trkpt lat="46.81133" lon="5.98309">
        <ele>842</ele>
        <time>2022-05-01T14:07:40Z</time>
      </trkpt>
      <trkpt lat="46.81133" lon="5.98316">
        <ele>843</ele>
        <time>2022-05-01T14:07:44Z</time>
      </trkpt>
      <trkpt lat="46.81135" lon="5.98323">
        <ele>843.8</ele>
        <time>2022-05-01T14:07:48Z</time>
      </trkpt>
      <trkpt lat="46.81139" lon="5.98328">
        <ele>844.5</ele>
        <time>2022-05-01T14:07:52Z</time>
      </trkpt>
      <trkpt lat="46.81141" lon="5.98335">
        <ele>845.7</ele>
        <time>2022-05-01T14:07:57Z</time>
      </trkpt>
      <trkpt lat="46.81144" lon="5.9834">
        <ele>846.6</ele>
        <time>2022-05-01T14:08:02Z</time>
      </trkpt>
      <trkpt lat="46.81146" lon="5.98346">
        <ele>848.1</ele>
        <time>2022-05-01T14:08:07Z</time>
      </trkpt>
      <trkpt lat="46.81147" lon="5.98353">
        <ele>849.7</ele>
        <time>2022-05-01T14:08:12Z</time>
      </trkpt>
      <trkpt lat="46.81148" lon="5.9836">
        <ele>851.2</ele>
        <time>2022-05-01T14:08:18Z</time>
      </trkpt>
      <trkpt lat="46.8115" lon="5.98367">
        <ele>852.4</ele>
        <time>2022-05-01T14:08:23Z</time>
      </trkpt>
      <trkpt lat="46.81151" lon="5.98375">
        <ele>852.9</ele>
        <time>2022-05-01T14:08:28Z</time>
      </trkpt>
      <trkpt lat="46.81153" lon="5.98382">
        <ele>852.8</ele>
        <time>2022-05-01T14:08:33Z</time>
      </trkpt>
      <trkpt lat="46.81154" lon="5.9839">
        <ele>852.6</ele>
        <time>2022-05-01T14:08:38Z</time>
      </trkpt>
      <trkpt lat="46.81155" lon="5.98398">
        <ele>852</ele>
        <time>2022-05-01T14:08:42Z</time>
      </trkpt>
      <trkpt lat="46.81156" lon="5.98405">
        <ele>851.6</ele>
        <time>2022-05-01T14:08:46Z</time>
      </trkpt>
      <trkpt lat="46.81156" lon="5.98413">
        <ele>851.6</ele>
        <time>2022-05-01T14:08:50Z</time>
      </trkpt>
      <trkpt lat="46.81156" lon="5.9842">
        <ele>851.8</ele>
        <time>2022-05-01T14:08:54Z</time>
      </trkpt>
      <trkpt lat="46.8116" lon="5.98427">
        <ele>852</ele>
        <time>2022-05-01T14:08:59Z</time>
      </trkpt>
      <trkpt lat="46.81163" lon="5.98432">
        <ele>851.7</ele>
        <time>2022-05-01T14:09:04Z</time>
      </trkpt>
      <trkpt lat="46.81164" lon="5.98439">
        <ele>850.3</ele>
        <time>2022-05-01T14:09:09Z</time>
      </trkpt>
      <trkpt lat="46.81164" lon="5.98447">
        <ele>848.7</ele>
        <time>2022-05-01T14:09:15Z</time>
      </trkpt>
      <trkpt lat="46.81163" lon="5.98455">
        <ele>849</ele>
        <time>2022-05-01T14:09:19Z</time>
      </trkpt>
      <trkpt lat="46.81164" lon="5.98463">
        <ele>849.6</ele>
        <time>2022-05-01T14:09:23Z</time>
      </trkpt>
      <trkpt lat="46.81165" lon="5.9847">
        <ele>850.1</ele>
        <time>2022-05-01T14:09:28Z</time>
      </trkpt>
      <trkpt lat="46.81169" lon="5.98473">
        <ele>851</ele>
        <time>2022-05-01T14:09:35Z</time>
      </trkpt>
      <trkpt lat="46.81173" lon="5.98477">
        <ele>852.7</ele>
        <time>2022-05-01T14:09:42Z</time>
      </trkpt>
      <trkpt lat="46.81174" lon="5.98484">
        <ele>853.4</ele>
        <time>2022-05-01T14:09:48Z</time>
      </trkpt>
      <trkpt lat="46.81173" lon="5.98491">
        <ele>853.7</ele>
        <time>2022-05-01T14:09:53Z</time>
      </trkpt>
      <trkpt lat="46.81172" lon="5.98498">
        <ele>853.5</ele>
        <time>2022-05-01T14:09:57Z</time>
      </trkpt>
      <trkpt lat="46.81171" lon="5.98505">
        <ele>853.5</ele>
        <time>2022-05-01T14:10:02Z</time>
      </trkpt>
      <trkpt lat="46.81173" lon="5.98511">
        <ele>853.5</ele>
        <time>2022-05-01T14:10:08Z</time>
      </trkpt>
      <trkpt lat="46.81177" lon="5.98517">
        <ele>852.9</ele>
        <time>2022-05-01T14:10:13Z</time>
      </trkpt>
      <trkpt lat="46.81182" lon="5.98522">
        <ele>852.5</ele>
        <time>2022-05-01T14:10:16Z</time>
      </trkpt>
      <trkpt lat="46.81187" lon="5.98527">
        <ele>852.1</ele>
        <time>2022-05-01T14:10:19Z</time>
      </trkpt>
      <trkpt lat="46.81192" lon="5.98532">
        <ele>851.8</ele>
        <time>2022-05-01T14:10:23Z</time>
      </trkpt>
      <trkpt lat="46.81196" lon="5.98535">
        <ele>851.6</ele>
        <time>2022-05-01T14:10:27Z</time>
      </trkpt>
      <trkpt lat="46.812" lon="5.98539">
        <ele>851.3</ele>
        <time>2022-05-01T14:10:32Z</time>
      </trkpt>
      <trkpt lat="46.81203" lon="5.98544">
        <ele>851.4</ele>
        <time>2022-05-01T14:10:37Z</time>
      </trkpt>
      <trkpt lat="46.81206" lon="5.98551">
        <ele>851.8</ele>
        <time>2022-05-01T14:10:44Z</time>
      </trkpt>
      <trkpt lat="46.81209" lon="5.98555">
        <ele>852.3</ele>
        <time>2022-05-01T14:10:49Z</time>
      </trkpt>
      <trkpt lat="46.81215" lon="5.98559">
        <ele>852.7</ele>
        <time>2022-05-01T14:10:54Z</time>
      </trkpt>
      <trkpt lat="46.81218" lon="5.98564">
        <ele>852.7</ele>
        <time>2022-05-01T14:10:58Z</time>
      </trkpt>
      <trkpt lat="46.81223" lon="5.98569">
        <ele>853.1</ele>
        <time>2022-05-01T14:11:05Z</time>
      </trkpt>
      <trkpt lat="46.81228" lon="5.98572">
        <ele>854</ele>
        <time>2022-05-01T14:11:08Z</time>
      </trkpt>
      <trkpt lat="46.81235" lon="5.98575">
        <ele>855.3</ele>
        <time>2022-05-01T14:11:11Z</time>
      </trkpt>
      <trkpt lat="46.81239" lon="5.98579">
        <ele>856.9</ele>
        <time>2022-05-01T14:11:14Z</time>
      </trkpt>
      <trkpt lat="46.81243" lon="5.98585">
        <ele>858.5</ele>
        <time>2022-05-01T14:11:17Z</time>
      </trkpt>
      <trkpt lat="46.81247" lon="5.9859">
        <ele>860.5</ele>
        <time>2022-05-01T14:11:20Z</time>
      </trkpt>
      <trkpt lat="46.81251" lon="5.98594">
        <ele>862.3</ele>
        <time>2022-05-01T14:11:23Z</time>
      </trkpt>
      <trkpt lat="46.81256" lon="5.98597">
        <ele>864.5</ele>
        <time>2022-05-01T14:11:27Z</time>
      </trkpt>
      <trkpt lat="46.8126" lon="5.986">
        <ele>866.7</ele>
        <time>2022-05-01T14:11:32Z</time>
      </trkpt>
      <trkpt lat="46.81264" lon="5.98605">
        <ele>869.3</ele>
        <time>2022-05-01T14:11:40Z</time>
      </trkpt>
      <trkpt lat="46.81267" lon="5.9861">
        <ele>870.7</ele>
        <time>2022-05-01T14:11:46Z</time>
      </trkpt>
      <trkpt lat="46.81271" lon="5.98614">
        <ele>871.5</ele>
        <time>2022-05-01T14:11:51Z</time>
      </trkpt>
      <trkpt lat="46.81276" lon="5.98617">
        <ele>871.7</ele>
        <time>2022-05-01T14:11:57Z</time>
      </trkpt>
      <trkpt lat="46.81279" lon="5.98623">
        <ele>871.8</ele>
        <time>2022-05-01T14:12:03Z</time>
      </trkpt>
      <trkpt lat="46.81282" lon="5.98627">
        <ele>871.7</ele>
        <time>2022-05-01T14:12:08Z</time>
      </trkpt>
      <trkpt lat="46.81288" lon="5.98629">
        <ele>871.5</ele>
        <time>2022-05-01T14:12:12Z</time>
      </trkpt>
      <trkpt lat="46.81292" lon="5.9863">
        <ele>870.9</ele>
        <time>2022-05-01T14:12:16Z</time>
      </trkpt>
      <trkpt lat="46.81296" lon="5.98636">
        <ele>868.7</ele>
        <time>2022-05-01T14:12:23Z</time>
      </trkpt>
      <trkpt lat="46.813" lon="5.9864">
        <ele>867.7</ele>
        <time>2022-05-01T14:12:26Z</time>
      </trkpt>
      <trkpt lat="46.81304" lon="5.98643">
        <ele>866.6</ele>
        <time>2022-05-01T14:12:30Z</time>
      </trkpt>
      <trkpt lat="46.81308" lon="5.98647">
        <ele>865.6</ele>
        <time>2022-05-01T14:12:34Z</time>
      </trkpt>
      <trkpt lat="46.81313" lon="5.98649">
        <ele>864.8</ele>
        <time>2022-05-01T14:12:37Z</time>
      </trkpt>
      <trkpt lat="46.81319" lon="5.98651">
        <ele>864.1</ele>
        <time>2022-05-01T14:12:41Z</time>
      </trkpt>
      <trkpt lat="46.81323" lon="5.98654">
        <ele>863.7</ele>
        <time>2022-05-01T14:12:44Z</time>
      </trkpt>
      <trkpt lat="46.81327" lon="5.98658">
        <ele>863.3</ele>
        <time>2022-05-01T14:12:48Z</time>
      </trkpt>
      <trkpt lat="46.81331" lon="5.98661">
        <ele>863.4</ele>
        <time>2022-05-01T14:12:52Z</time>
      </trkpt>
      <trkpt lat="46.81336" lon="5.98664">
        <ele>863.4</ele>
        <time>2022-05-01T14:12:56Z</time>
      </trkpt>
      <trkpt lat="46.8134" lon="5.98669">
        <ele>862.9</ele>
        <time>2022-05-01T14:13:01Z</time>
      </trkpt>
      <trkpt lat="46.81344" lon="5.98673">
        <ele>862.4</ele>
        <time>2022-05-01T14:13:04Z</time>
      </trkpt>
      <trkpt lat="46.81348" lon="5.9868">
        <ele>861.2</ele>
        <time>2022-05-01T14:13:08Z</time>
      </trkpt>
      <trkpt lat="46.8135" lon="5.98686">
        <ele>859.7</ele>
        <time>2022-05-01T14:13:13Z</time>
      </trkpt>
      <trkpt lat="46.81354" lon="5.98692">
        <ele>859.1</ele>
        <time>2022-05-01T14:13:19Z</time>
      </trkpt>
      <trkpt lat="46.81357" lon="5.98699">
        <ele>859.1</ele>
        <time>2022-05-01T14:13:25Z</time>
      </trkpt>
      <trkpt lat="46.81359" lon="5.98706">
        <ele>858.5</ele>
        <time>2022-05-01T14:13:29Z</time>
      </trkpt>
      <trkpt lat="46.81361" lon="5.98712">
        <ele>857.6</ele>
        <time>2022-05-01T14:13:33Z</time>
      </trkpt>
      <trkpt lat="46.81364" lon="5.98719">
        <ele>856</ele>
        <time>2022-05-01T14:13:38Z</time>
      </trkpt>
      <trkpt lat="46.81363" lon="5.98726">
        <ele>855.1</ele>
        <time>2022-05-01T14:13:43Z</time>
      </trkpt>
      <trkpt lat="46.81361" lon="5.98733">
        <ele>854.7</ele>
        <time>2022-05-01T14:13:48Z</time>
      </trkpt>
      <trkpt lat="46.81358" lon="5.98739">
        <ele>854.3</ele>
        <time>2022-05-01T14:13:54Z</time>
      </trkpt>
      <trkpt lat="46.81358" lon="5.98747">
        <ele>854</ele>
        <time>2022-05-01T14:14:02Z</time>
      </trkpt>
      <trkpt lat="46.81356" lon="5.98754">
        <ele>853.9</ele>
        <time>2022-05-01T14:14:07Z</time>
      </trkpt>
      <trkpt lat="46.81355" lon="5.98761">
        <ele>853.5</ele>
        <time>2022-05-01T14:14:12Z</time>
      </trkpt>
      <trkpt lat="46.81357" lon="5.98768">
        <ele>853.5</ele>
        <time>2022-05-01T14:14:17Z</time>
      </trkpt>
      <trkpt lat="46.8136" lon="5.98775">
        <ele>853.5</ele>
        <time>2022-05-01T14:14:21Z</time>
      </trkpt>
      <trkpt lat="46.8136" lon="5.98782">
        <ele>853.5</ele>
        <time>2022-05-01T14:14:25Z</time>
      </trkpt>
      <trkpt lat="46.81362" lon="5.98789">
        <ele>853.2</ele>
        <time>2022-05-01T14:14:30Z</time>
      </trkpt>
      <trkpt lat="46.81365" lon="5.98795">
        <ele>853.2</ele>
        <time>2022-05-01T14:14:34Z</time>
      </trkpt>
      <trkpt lat="46.81368" lon="5.988">
        <ele>853.2</ele>
        <time>2022-05-01T14:14:38Z</time>
      </trkpt>
      <trkpt lat="46.81373" lon="5.98804">
        <ele>853.3</ele>
        <time>2022-05-01T14:14:42Z</time>
      </trkpt>
      <trkpt lat="46.81378" lon="5.98806">
        <ele>853.5</ele>
        <time>2022-05-01T14:14:46Z</time>
      </trkpt>
      <trkpt lat="46.81383" lon="5.9881">
        <ele>853.5</ele>
        <time>2022-05-01T14:14:51Z</time>
      </trkpt>
      <trkpt lat="46.81388" lon="5.98814">
        <ele>853.8</ele>
        <time>2022-05-01T14:14:55Z</time>
      </trkpt>
      <trkpt lat="46.81392" lon="5.98817">
        <ele>854.4</ele>
        <time>2022-05-01T14:14:58Z</time>
      </trkpt>
      <trkpt lat="46.81397" lon="5.98819">
        <ele>854.7</ele>
        <time>2022-05-01T14:15:02Z</time>
      </trkpt>
      <trkpt lat="46.81402" lon="5.98823">
        <ele>854.9</ele>
        <time>2022-05-01T14:15:07Z</time>
      </trkpt>
      <trkpt lat="46.81406" lon="5.98827">
        <ele>855.1</ele>
        <time>2022-05-01T14:15:11Z</time>
      </trkpt>
      <trkpt lat="46.81412" lon="5.98829">
        <ele>855.4</ele>
        <time>2022-05-01T14:15:14Z</time>
      </trkpt>
      <trkpt lat="46.81418" lon="5.98831">
        <ele>855.5</ele>
        <time>2022-05-01T14:15:17Z</time>
      </trkpt>
      <trkpt lat="46.81422" lon="5.98833">
        <ele>855.6</ele>
        <time>2022-05-01T14:15:20Z</time>
      </trkpt>
      <trkpt lat="46.81427" lon="5.98835">
        <ele>855.8</ele>
        <time>2022-05-01T14:15:24Z</time>
      </trkpt>
      <trkpt lat="46.81433" lon="5.98836">
        <ele>856.2</ele>
        <time>2022-05-01T14:15:28Z</time>
      </trkpt>
      <trkpt lat="46.81438" lon="5.98838">
        <ele>856.8</ele>
        <time>2022-05-01T14:15:32Z</time>
      </trkpt>
      <trkpt lat="46.81442" lon="5.98842">
        <ele>856.8</ele>
        <time>2022-05-01T14:15:41Z</time>
      </trkpt>
      <trkpt lat="46.81447" lon="5.98843">
        <ele>856</ele>
        <time>2022-05-01T14:15:49Z</time>
      </trkpt>
      <trkpt lat="46.81451" lon="5.98845">
        <ele>855.5</ele>
        <time>2022-05-01T14:15:57Z</time>
      </trkpt>
      <trkpt lat="46.81456" lon="5.98846">
        <ele>855.4</ele>
        <time>2022-05-01T14:16:04Z</time>
      </trkpt>
      <trkpt lat="46.8146" lon="5.98847">
        <ele>854.5</ele>
        <time>2022-05-01T14:16:11Z</time>
      </trkpt>
      <trkpt lat="46.81465" lon="5.98849">
        <ele>853.1</ele>
        <time>2022-05-01T14:16:16Z</time>
      </trkpt>
      <trkpt lat="46.8147" lon="5.98851">
        <ele>852.3</ele>
        <time>2022-05-01T14:16:21Z</time>
      </trkpt>
      <trkpt lat="46.81476" lon="5.98854">
        <ele>851.9</ele>
        <time>2022-05-01T14:16:25Z</time>
      </trkpt>
      <trkpt lat="46.8148" lon="5.98858">
        <ele>851.5</ele>
        <time>2022-05-01T14:16:29Z</time>
      </trkpt>
      <trkpt lat="46.81485" lon="5.98861">
        <ele>850.6</ele>
        <time>2022-05-01T14:16:34Z</time>
      </trkpt>
      <trkpt lat="46.81489" lon="5.98863">
        <ele>849.8</ele>
        <time>2022-05-01T14:16:38Z</time>
      </trkpt>
      <trkpt lat="46.81495" lon="5.98864">
        <ele>849.1</ele>
        <time>2022-05-01T14:16:44Z</time>
      </trkpt>
      <trkpt lat="46.81499" lon="5.98868">
        <ele>848.3</ele>
        <time>2022-05-01T14:16:50Z</time>
      </trkpt>
      <trkpt lat="46.81505" lon="5.9887">
        <ele>847.6</ele>
        <time>2022-05-01T14:16:54Z</time>
      </trkpt>
      <trkpt lat="46.81511" lon="5.98872">
        <ele>846.8</ele>
        <time>2022-05-01T14:16:58Z</time>
      </trkpt>
      <trkpt lat="46.81516" lon="5.98874">
        <ele>845.6</ele>
        <time>2022-05-01T14:17:03Z</time>
      </trkpt>
      <trkpt lat="46.8152" lon="5.98877">
        <ele>844.6</ele>
        <time>2022-05-01T14:17:08Z</time>
      </trkpt>
      <trkpt lat="46.81525" lon="5.98878">
        <ele>843.2</ele>
        <time>2022-05-01T14:17:14Z</time>
      </trkpt>
      <trkpt lat="46.8153" lon="5.98882">
        <ele>841.8</ele>
        <time>2022-05-01T14:17:19Z</time>
      </trkpt>
      <trkpt lat="46.81535" lon="5.98883">
        <ele>840.6</ele>
        <time>2022-05-01T14:17:24Z</time>
      </trkpt>
      <trkpt lat="46.8154" lon="5.98884">
        <ele>840.1</ele>
        <time>2022-05-01T14:17:28Z</time>
      </trkpt>
      <trkpt lat="46.81545" lon="5.98887">
        <ele>839.4</ele>
        <time>2022-05-01T14:17:32Z</time>
      </trkpt>
      <trkpt lat="46.81549" lon="5.98889">
        <ele>838.7</ele>
        <time>2022-05-01T14:17:38Z</time>
      </trkpt>
      <trkpt lat="46.81554" lon="5.9889">
        <ele>838.5</ele>
        <time>2022-05-01T14:17:45Z</time>
      </trkpt>
      <trkpt lat="46.81559" lon="5.98891">
        <ele>838.5</ele>
        <time>2022-05-01T14:17:51Z</time>
      </trkpt>
      <trkpt lat="46.81563" lon="5.98895">
        <ele>838</ele>
        <time>2022-05-01T14:17:58Z</time>
      </trkpt>
      <trkpt lat="46.81567" lon="5.98899">
        <ele>837.3</ele>
        <time>2022-05-01T14:18:04Z</time>
      </trkpt>
      <trkpt lat="46.81572" lon="5.98903">
        <ele>836.4</ele>
        <time>2022-05-01T14:18:09Z</time>
      </trkpt>
      <trkpt lat="46.81577" lon="5.98905">
        <ele>835.9</ele>
        <time>2022-05-01T14:18:12Z</time>
      </trkpt>
      <trkpt lat="46.81582" lon="5.98906">
        <ele>835.6</ele>
        <time>2022-05-01T14:18:15Z</time>
      </trkpt>
      <trkpt lat="46.81588" lon="5.98908">
        <ele>835.1</ele>
        <time>2022-05-01T14:18:20Z</time>
      </trkpt>
      <trkpt lat="46.81592" lon="5.98909">
        <ele>834.5</ele>
        <time>2022-05-01T14:18:25Z</time>
      </trkpt>
      <trkpt lat="46.81597" lon="5.98912">
        <ele>833.8</ele>
        <time>2022-05-01T14:18:29Z</time>
      </trkpt>
      <trkpt lat="46.816" lon="5.98916">
        <ele>832.7</ele>
        <time>2022-05-01T14:18:35Z</time>
      </trkpt>
      <trkpt lat="46.81605" lon="5.98917">
        <ele>832.1</ele>
        <time>2022-05-01T14:18:41Z</time>
      </trkpt>
      <trkpt lat="46.81609" lon="5.98919">
        <ele>831.8</ele>
        <time>2022-05-01T14:18:45Z</time>
      </trkpt>
      <trkpt lat="46.81614" lon="5.98921">
        <ele>831.7</ele>
        <time>2022-05-01T14:18:50Z</time>
      </trkpt>
      <trkpt lat="46.81619" lon="5.98924">
        <ele>831.8</ele>
        <time>2022-05-01T14:18:55Z</time>
      </trkpt>
      <trkpt lat="46.81624" lon="5.98927">
        <ele>832</ele>
        <time>2022-05-01T14:18:58Z</time>
      </trkpt>
      <trkpt lat="46.81628" lon="5.98929">
        <ele>832.2</ele>
        <time>2022-05-01T14:19:01Z</time>
      </trkpt>
      <trkpt lat="46.81634" lon="5.98932">
        <ele>832.2</ele>
        <time>2022-05-01T14:19:05Z</time>
      </trkpt>
      <trkpt lat="46.81638" lon="5.98934">
        <ele>832.1</ele>
        <time>2022-05-01T14:19:09Z</time>
      </trkpt>
      <trkpt lat="46.81642" lon="5.98938">
        <ele>831.9</ele>
        <time>2022-05-01T14:19:14Z</time>
      </trkpt>
      <trkpt lat="46.81646" lon="5.98942">
        <ele>831.6</ele>
        <time>2022-05-01T14:19:19Z</time>
      </trkpt>
      <trkpt lat="46.8165" lon="5.98949">
        <ele>830.9</ele>
        <time>2022-05-01T14:19:25Z</time>
      </trkpt>
      <trkpt lat="46.81655" lon="5.9895">
        <ele>830.2</ele>
        <time>2022-05-01T14:19:29Z</time>
      </trkpt>
      <trkpt lat="46.81662" lon="5.98951">
        <ele>830.4</ele>
        <time>2022-05-01T14:19:32Z</time>
      </trkpt>
      <trkpt lat="46.8167" lon="5.98953">
        <ele>830.8</ele>
        <time>2022-05-01T14:19:35Z</time>
      </trkpt>
      <trkpt lat="46.81676" lon="5.98953">
        <ele>831.6</ele>
        <time>2022-05-01T14:19:38Z</time>
      </trkpt>
      <trkpt lat="46.81682" lon="5.98956">
        <ele>832.5</ele>
        <time>2022-05-01T14:19:41Z</time>
      </trkpt>
      <trkpt lat="46.81687" lon="5.98958">
        <ele>833.9</ele>
        <time>2022-05-01T14:19:45Z</time>
      </trkpt>
      <trkpt lat="46.81692" lon="5.98959">
        <ele>835.3</ele>
        <time>2022-05-01T14:19:49Z</time>
      </trkpt>
      <trkpt lat="46.81697" lon="5.98961">
        <ele>838.5</ele>
        <time>2022-05-01T14:20:01Z</time>
      </trkpt>
      <trkpt lat="46.81693" lon="5.98965">
        <ele>839.7</ele>
        <time>2022-05-01T14:20:32Z</time>
      </trkpt>
      <trkpt lat="46.8169" lon="5.98971">
        <ele>839.3</ele>
        <time>2022-05-01T14:20:35Z</time>
      </trkpt>
      <trkpt lat="46.81686" lon="5.98974">
        <ele>837.5</ele>
        <time>2022-05-01T14:20:55Z</time>
      </trkpt>
      <trkpt lat="46.81687" lon="5.98965">
        <ele>835.9</ele>
        <time>2022-05-01T14:21:05Z</time>
      </trkpt>
      <trkpt lat="46.81688" lon="5.98956">
        <ele>836</ele>
        <time>2022-05-01T14:21:08Z</time>
      </trkpt>
      <trkpt lat="46.81684" lon="5.98953">
        <ele>835.6</ele>
        <time>2022-05-01T14:21:16Z</time>
      </trkpt>
      <trkpt lat="46.8168" lon="5.98961">
        <ele>835.7</ele>
        <time>2022-05-01T14:22:14Z</time>
      </trkpt>
      <trkpt lat="46.81678" lon="5.98967">
        <ele>836.8</ele>
        <time>2022-05-01T14:22:17Z</time>
      </trkpt>
      <trkpt lat="46.81683" lon="5.98966">
        <ele>841.6</ele>
        <time>2022-05-01T14:23:02Z</time>
      </trkpt>
      <trkpt lat="46.81686" lon="5.9896">
        <ele>842.9</ele>
        <time>2022-05-01T14:23:42Z</time>
      </trkpt>
      <trkpt lat="46.81687" lon="5.98953">
        <ele>842.8</ele>
        <time>2022-05-01T14:23:47Z</time>
      </trkpt>
      <trkpt lat="46.81684" lon="5.98947">
        <ele>842.4</ele>
        <time>2022-05-01T14:23:53Z</time>
      </trkpt>
      <trkpt lat="46.81682" lon="5.98941">
        <ele>842.1</ele>
        <time>2022-05-01T14:24:02Z</time>
      </trkpt>
      <trkpt lat="46.81685" lon="5.98935">
        <ele>841.5</ele>
        <time>2022-05-01T14:24:08Z</time>
      </trkpt>
      <trkpt lat="46.8169" lon="5.98934">
        <ele>840.8</ele>
        <time>2022-05-01T14:24:11Z</time>
      </trkpt>
      <trkpt lat="46.81695" lon="5.98934">
        <ele>839.4</ele>
        <time>2022-05-01T14:24:14Z</time>
      </trkpt>
      <trkpt lat="46.817" lon="5.98934">
        <ele>838</ele>
        <time>2022-05-01T14:24:17Z</time>
      </trkpt>
      <trkpt lat="46.81706" lon="5.98935">
        <ele>836</ele>
        <time>2022-05-01T14:24:21Z</time>
      </trkpt>
      <trkpt lat="46.81712" lon="5.98936">
        <ele>833.6</ele>
        <time>2022-05-01T14:24:26Z</time>
      </trkpt>
      <trkpt lat="46.81717" lon="5.98937">
        <ele>831.7</ele>
        <time>2022-05-01T14:24:30Z</time>
      </trkpt>
      <trkpt lat="46.81722" lon="5.98937">
        <ele>830.2</ele>
        <time>2022-05-01T14:24:34Z</time>
      </trkpt>
      <trkpt lat="46.81727" lon="5.98935">
        <ele>828.9</ele>
        <time>2022-05-01T14:24:39Z</time>
      </trkpt>
      <trkpt lat="46.81732" lon="5.98931">
        <ele>827.8</ele>
        <time>2022-05-01T14:24:44Z</time>
      </trkpt>
      <trkpt lat="46.81737" lon="5.98929">
        <ele>827</ele>
        <time>2022-05-01T14:24:48Z</time>
      </trkpt>
      <trkpt lat="46.81741" lon="5.98927">
        <ele>826.4</ele>
        <time>2022-05-01T14:24:52Z</time>
      </trkpt>
      <trkpt lat="46.81746" lon="5.98926">
        <ele>826</ele>
        <time>2022-05-01T14:24:56Z</time>
      </trkpt>
      <trkpt lat="46.81751" lon="5.98926">
        <ele>825.5</ele>
        <time>2022-05-01T14:25:00Z</time>
      </trkpt>
      <trkpt lat="46.81756" lon="5.98926">
        <ele>824.7</ele>
        <time>2022-05-01T14:25:04Z</time>
      </trkpt>
      <trkpt lat="46.81761" lon="5.98925">
        <ele>823.7</ele>
        <time>2022-05-01T14:25:08Z</time>
      </trkpt>
      <trkpt lat="46.81766" lon="5.98924">
        <ele>822.7</ele>
        <time>2022-05-01T14:25:12Z</time>
      </trkpt>
      <trkpt lat="46.81772" lon="5.98925">
        <ele>821.6</ele>
        <time>2022-05-01T14:25:16Z</time>
      </trkpt>
      <trkpt lat="46.81776" lon="5.98925">
        <ele>820.5</ele>
        <time>2022-05-01T14:25:20Z</time>
      </trkpt>
      <trkpt lat="46.81781" lon="5.98927">
        <ele>819.4</ele>
        <time>2022-05-01T14:25:24Z</time>
      </trkpt>
      <trkpt lat="46.81786" lon="5.9893">
        <ele>818.2</ele>
        <time>2022-05-01T14:25:29Z</time>
      </trkpt>
      <trkpt lat="46.81791" lon="5.98933">
        <ele>816.7</ele>
        <time>2022-05-01T14:25:35Z</time>
      </trkpt>
      <trkpt lat="46.81796" lon="5.98933">
        <ele>816.3</ele>
        <time>2022-05-01T14:25:39Z</time>
      </trkpt>
      <trkpt lat="46.81802" lon="5.98934">
        <ele>816</ele>
        <time>2022-05-01T14:25:44Z</time>
      </trkpt>
      <trkpt lat="46.81807" lon="5.98935">
        <ele>815.9</ele>
        <time>2022-05-01T14:25:50Z</time>
      </trkpt>
      <trkpt lat="46.81812" lon="5.98937">
        <ele>816</ele>
        <time>2022-05-01T14:25:56Z</time>
      </trkpt>
      <trkpt lat="46.81816" lon="5.98939">
        <ele>816</ele>
        <time>2022-05-01T14:26:00Z</time>
      </trkpt>
      <trkpt lat="46.8182" lon="5.98942">
        <ele>815.7</ele>
        <time>2022-05-01T14:26:04Z</time>
      </trkpt>
      <trkpt lat="46.81826" lon="5.98944">
        <ele>815.7</ele>
        <time>2022-05-01T14:26:08Z</time>
      </trkpt>
      <trkpt lat="46.81831" lon="5.98945">
        <ele>815.9</ele>
        <time>2022-05-01T14:26:11Z</time>
      </trkpt>
      <trkpt lat="46.81836" lon="5.98946">
        <ele>816.4</ele>
        <time>2022-05-01T14:26:15Z</time>
      </trkpt>
      <trkpt lat="46.81841" lon="5.98948">
        <ele>816.7</ele>
        <time>2022-05-01T14:26:19Z</time>
      </trkpt>
      <trkpt lat="46.81844" lon="5.98953">
        <ele>816.8</ele>
        <time>2022-05-01T14:26:23Z</time>
      </trkpt>
      <trkpt lat="46.81849" lon="5.98958">
        <ele>817.2</ele>
        <time>2022-05-01T14:26:29Z</time>
      </trkpt>
      <trkpt lat="46.81854" lon="5.9896">
        <ele>817.3</ele>
        <time>2022-05-01T14:26:34Z</time>
      </trkpt>
      <trkpt lat="46.81859" lon="5.98963">
        <ele>817.4</ele>
        <time>2022-05-01T14:26:38Z</time>
      </trkpt>
      <trkpt lat="46.81864" lon="5.98965">
        <ele>817.4</ele>
        <time>2022-05-01T14:26:42Z</time>
      </trkpt>
      <trkpt lat="46.81868" lon="5.98969">
        <ele>817.3</ele>
        <time>2022-05-01T14:26:46Z</time>
      </trkpt>
      <trkpt lat="46.81873" lon="5.98973">
        <ele>817.6</ele>
        <time>2022-05-01T14:26:50Z</time>
      </trkpt>
      <trkpt lat="46.81878" lon="5.98977">
        <ele>817.8</ele>
        <time>2022-05-01T14:26:54Z</time>
      </trkpt>
      <trkpt lat="46.81883" lon="5.9898">
        <ele>818</ele>
        <time>2022-05-01T14:26:57Z</time>
      </trkpt>
      <trkpt lat="46.81887" lon="5.98984">
        <ele>818.3</ele>
        <time>2022-05-01T14:27:00Z</time>
      </trkpt>
      <trkpt lat="46.81891" lon="5.98989">
        <ele>818.7</ele>
        <time>2022-05-01T14:27:03Z</time>
      </trkpt>
      <trkpt lat="46.81894" lon="5.98994">
        <ele>819.8</ele>
        <time>2022-05-01T14:27:08Z</time>
      </trkpt>
      <trkpt lat="46.81899" lon="5.98999">
        <ele>821.1</ele>
        <time>2022-05-01T14:27:14Z</time>
      </trkpt>
      <trkpt lat="46.81904" lon="5.99002">
        <ele>821.5</ele>
        <time>2022-05-01T14:27:18Z</time>
      </trkpt>
      <trkpt lat="46.81909" lon="5.99006">
        <ele>820.9</ele>
        <time>2022-05-01T14:27:22Z</time>
      </trkpt>
      <trkpt lat="46.81913" lon="5.99009">
        <ele>820.4</ele>
        <time>2022-05-01T14:27:25Z</time>
      </trkpt>
      <trkpt lat="46.81917" lon="5.99011">
        <ele>820.4</ele>
        <time>2022-05-01T14:27:29Z</time>
      </trkpt>
      <trkpt lat="46.81921" lon="5.99016">
        <ele>821</ele>
        <time>2022-05-01T14:27:34Z</time>
      </trkpt>
      <trkpt lat="46.81925" lon="5.99021">
        <ele>821.1</ele>
        <time>2022-05-01T14:27:39Z</time>
      </trkpt>
      <trkpt lat="46.81929" lon="5.99024">
        <ele>820.8</ele>
        <time>2022-05-01T14:27:44Z</time>
      </trkpt>
      <trkpt lat="46.81933" lon="5.99029">
        <ele>820.2</ele>
        <time>2022-05-01T14:27:51Z</time>
      </trkpt>
      <trkpt lat="46.81938" lon="5.99031">
        <ele>820.3</ele>
        <time>2022-05-01T14:27:54Z</time>
      </trkpt>
      <trkpt lat="46.81943" lon="5.99034">
        <ele>820.3</ele>
        <time>2022-05-01T14:27:58Z</time>
      </trkpt>
      <trkpt lat="46.81949" lon="5.99037">
        <ele>820.4</ele>
        <time>2022-05-01T14:28:02Z</time>
      </trkpt>
      <trkpt lat="46.81954" lon="5.99041">
        <ele>820.5</ele>
        <time>2022-05-01T14:28:06Z</time>
      </trkpt>
      <trkpt lat="46.81959" lon="5.99045">
        <ele>820.2</ele>
        <time>2022-05-01T14:28:10Z</time>
      </trkpt>
      <trkpt lat="46.81964" lon="5.99048">
        <ele>819.7</ele>
        <time>2022-05-01T14:28:14Z</time>
      </trkpt>
      <trkpt lat="46.8197" lon="5.99052">
        <ele>819.2</ele>
        <time>2022-05-01T14:28:18Z</time>
      </trkpt>
      <trkpt lat="46.81975" lon="5.99055">
        <ele>819.3</ele>
        <time>2022-05-01T14:28:22Z</time>
      </trkpt>
      <trkpt lat="46.81979" lon="5.99059">
        <ele>820.1</ele>
        <time>2022-05-01T14:28:26Z</time>
      </trkpt>
      <trkpt lat="46.81983" lon="5.99064">
        <ele>821.8</ele>
        <time>2022-05-01T14:28:31Z</time>
      </trkpt>
      <trkpt lat="46.81986" lon="5.9907">
        <ele>823.8</ele>
        <time>2022-05-01T14:28:36Z</time>
      </trkpt>
      <trkpt lat="46.81989" lon="5.99075">
        <ele>824.2</ele>
        <time>2022-05-01T14:28:41Z</time>
      </trkpt>
      <trkpt lat="46.81993" lon="5.99079">
        <ele>824.1</ele>
        <time>2022-05-01T14:28:45Z</time>
      </trkpt>
      <trkpt lat="46.81998" lon="5.99082">
        <ele>824.1</ele>
        <time>2022-05-01T14:28:48Z</time>
      </trkpt>
      <trkpt lat="46.82003" lon="5.99087">
        <ele>824.1</ele>
        <time>2022-05-01T14:28:52Z</time>
      </trkpt>
      <trkpt lat="46.82008" lon="5.99092">
        <ele>823.6</ele>
        <time>2022-05-01T14:28:56Z</time>
      </trkpt>
      <trkpt lat="46.8201" lon="5.99098">
        <ele>823.8</ele>
        <time>2022-05-01T14:29:01Z</time>
      </trkpt>
      <trkpt lat="46.82014" lon="5.99102">
        <ele>824.5</ele>
        <time>2022-05-01T14:29:05Z</time>
      </trkpt>
      <trkpt lat="46.82019" lon="5.99106">
        <ele>825.4</ele>
        <time>2022-05-01T14:29:09Z</time>
      </trkpt>
      <trkpt lat="46.82023" lon="5.99109">
        <ele>826.5</ele>
        <time>2022-05-01T14:29:13Z</time>
      </trkpt>
      <trkpt lat="46.82029" lon="5.99113">
        <ele>827.8</ele>
        <time>2022-05-01T14:29:17Z</time>
      </trkpt>
      <trkpt lat="46.82033" lon="5.99116">
        <ele>828.9</ele>
        <time>2022-05-01T14:29:21Z</time>
      </trkpt>
      <trkpt lat="46.82036" lon="5.99121">
        <ele>830</ele>
        <time>2022-05-01T14:29:25Z</time>
      </trkpt>
      <trkpt lat="46.82041" lon="5.99126">
        <ele>831.3</ele>
        <time>2022-05-01T14:29:31Z</time>
      </trkpt>
      <trkpt lat="46.82044" lon="5.99131">
        <ele>832.1</ele>
        <time>2022-05-01T14:29:35Z</time>
      </trkpt>
      <trkpt lat="46.82047" lon="5.99137">
        <ele>833</ele>
        <time>2022-05-01T14:29:40Z</time>
      </trkpt>
      <trkpt lat="46.82051" lon="5.99142">
        <ele>833.6</ele>
        <time>2022-05-01T14:29:44Z</time>
      </trkpt>
      <trkpt lat="46.82054" lon="5.99147">
        <ele>834.1</ele>
        <time>2022-05-01T14:29:48Z</time>
      </trkpt>
      <trkpt lat="46.82057" lon="5.99152">
        <ele>834.5</ele>
        <time>2022-05-01T14:29:52Z</time>
      </trkpt>
      <trkpt lat="46.8206" lon="5.99158">
        <ele>834.7</ele>
        <time>2022-05-01T14:29:56Z</time>
      </trkpt>
      <trkpt lat="46.82061" lon="5.99165">
        <ele>834.6</ele>
        <time>2022-05-01T14:30:01Z</time>
      </trkpt>
      <trkpt lat="46.82065" lon="5.99171">
        <ele>834</ele>
        <time>2022-05-01T14:30:07Z</time>
      </trkpt>
      <trkpt lat="46.82068" lon="5.99175">
        <ele>833.4</ele>
        <time>2022-05-01T14:30:11Z</time>
      </trkpt>
      <trkpt lat="46.82073" lon="5.99178">
        <ele>833</ele>
        <time>2022-05-01T14:30:14Z</time>
      </trkpt>
      <trkpt lat="46.82078" lon="5.99181">
        <ele>832.4</ele>
        <time>2022-05-01T14:30:18Z</time>
      </trkpt>
      <trkpt lat="46.82083" lon="5.99182">
        <ele>832</ele>
        <time>2022-05-01T14:30:23Z</time>
      </trkpt>
      <trkpt lat="46.82086" lon="5.99186">
        <ele>830.9</ele>
        <time>2022-05-01T14:30:29Z</time>
      </trkpt>
      <trkpt lat="46.82091" lon="5.99191">
        <ele>830.1</ele>
        <time>2022-05-01T14:30:32Z</time>
      </trkpt>
      <trkpt lat="46.82095" lon="5.99195">
        <ele>829.3</ele>
        <time>2022-05-01T14:30:35Z</time>
      </trkpt>
      <trkpt lat="46.82099" lon="5.992">
        <ele>828.3</ele>
        <time>2022-05-01T14:30:39Z</time>
      </trkpt>
      <trkpt lat="46.82103" lon="5.99205">
        <ele>827.4</ele>
        <time>2022-05-01T14:30:44Z</time>
      </trkpt>
      <trkpt lat="46.82108" lon="5.99208">
        <ele>827</ele>
        <time>2022-05-01T14:30:48Z</time>
      </trkpt>
      <trkpt lat="46.82111" lon="5.99213">
        <ele>826.9</ele>
        <time>2022-05-01T14:30:51Z</time>
      </trkpt>
      <trkpt lat="46.82115" lon="5.99219">
        <ele>826.6</ele>
        <time>2022-05-01T14:30:55Z</time>
      </trkpt>
      <trkpt lat="46.82118" lon="5.99224">
        <ele>826.4</ele>
        <time>2022-05-01T14:30:59Z</time>
      </trkpt>
      <trkpt lat="46.82121" lon="5.99229">
        <ele>826.3</ele>
        <time>2022-05-01T14:31:02Z</time>
      </trkpt>
      <trkpt lat="46.82124" lon="5.99235">
        <ele>826.3</ele>
        <time>2022-05-01T14:31:05Z</time>
      </trkpt>
      <trkpt lat="46.82128" lon="5.9924">
        <ele>826.5</ele>
        <time>2022-05-01T14:31:09Z</time>
      </trkpt>
      <trkpt lat="46.82132" lon="5.99246">
        <ele>826.9</ele>
        <time>2022-05-01T14:31:13Z</time>
      </trkpt>
      <trkpt lat="46.82136" lon="5.99252">
        <ele>827.2</ele>
        <time>2022-05-01T14:31:17Z</time>
      </trkpt>
      <trkpt lat="46.82139" lon="5.99256">
        <ele>827.2</ele>
        <time>2022-05-01T14:31:21Z</time>
      </trkpt>
      <trkpt lat="46.82142" lon="5.99262">
        <ele>826.7</ele>
        <time>2022-05-01T14:31:25Z</time>
      </trkpt>
      <trkpt lat="46.82145" lon="5.99268">
        <ele>825.7</ele>
        <time>2022-05-01T14:31:30Z</time>
      </trkpt>
      <trkpt lat="46.8215" lon="5.9927">
        <ele>824.4</ele>
        <time>2022-05-01T14:31:34Z</time>
      </trkpt>
      <trkpt lat="46.82154" lon="5.99273">
        <ele>822.7</ele>
        <time>2022-05-01T14:31:39Z</time>
      </trkpt>
      <trkpt lat="46.82156" lon="5.99281">
        <ele>821.7</ele>
        <time>2022-05-01T14:31:45Z</time>
      </trkpt>
      <trkpt lat="46.82157" lon="5.99287">
        <ele>821.4</ele>
        <time>2022-05-01T14:31:49Z</time>
      </trkpt>
      <trkpt lat="46.82161" lon="5.99294">
        <ele>821.8</ele>
        <time>2022-05-01T14:31:53Z</time>
      </trkpt>
      <trkpt lat="46.82165" lon="5.993">
        <ele>823.5</ele>
        <time>2022-05-01T14:31:57Z</time>
      </trkpt>
      <trkpt lat="46.82168" lon="5.99305">
        <ele>825.4</ele>
        <time>2022-05-01T14:32:01Z</time>
      </trkpt>
      <trkpt lat="46.82172" lon="5.99309">
        <ele>826.4</ele>
        <time>2022-05-01T14:32:06Z</time>
      </trkpt>
      <trkpt lat="46.82177" lon="5.99312">
        <ele>827</ele>
        <time>2022-05-01T14:32:11Z</time>
      </trkpt>
      <trkpt lat="46.82181" lon="5.99318">
        <ele>827.9</ele>
        <time>2022-05-01T14:32:16Z</time>
      </trkpt>
      <trkpt lat="46.82185" lon="5.99323">
        <ele>828.1</ele>
        <time>2022-05-01T14:32:21Z</time>
      </trkpt>
      <trkpt lat="46.8219" lon="5.99326">
        <ele>827.7</ele>
        <time>2022-05-01T14:32:25Z</time>
      </trkpt>
      <trkpt lat="46.82194" lon="5.99329">
        <ele>826.4</ele>
        <time>2022-05-01T14:32:29Z</time>
      </trkpt>
      <trkpt lat="46.82199" lon="5.99333">
        <ele>825.6</ele>
        <time>2022-05-01T14:32:34Z</time>
      </trkpt>
      <trkpt lat="46.82204" lon="5.99336">
        <ele>824.9</ele>
        <time>2022-05-01T14:32:38Z</time>
      </trkpt>
      <trkpt lat="46.82207" lon="5.99342">
        <ele>824.1</ele>
        <time>2022-05-01T14:32:42Z</time>
      </trkpt>
      <trkpt lat="46.82209" lon="5.9935">
        <ele>823.6</ele>
        <time>2022-05-01T14:32:46Z</time>
      </trkpt>
      <trkpt lat="46.82211" lon="5.99357">
        <ele>823.5</ele>
        <time>2022-05-01T14:32:50Z</time>
      </trkpt>
      <trkpt lat="46.82214" lon="5.99362">
        <ele>823.2</ele>
        <time>2022-05-01T14:32:54Z</time>
      </trkpt>
      <trkpt lat="46.82219" lon="5.99365">
        <ele>823</ele>
        <time>2022-05-01T14:32:58Z</time>
      </trkpt>
      <trkpt lat="46.82215" lon="5.99369">
        <ele>815.9</ele>
        <time>2022-05-01T14:33:20Z</time>
      </trkpt>
      <trkpt lat="46.82215" lon="5.99376">
        <ele>810.9</ele>
        <time>2022-05-01T14:33:44Z</time>
      </trkpt>
      <trkpt lat="46.82218" lon="5.99382">
        <ele>810.6</ele>
        <time>2022-05-01T14:33:50Z</time>
      </trkpt>
      <trkpt lat="46.82221" lon="5.99387">
        <ele>809.8</ele>
        <time>2022-05-01T14:33:56Z</time>
      </trkpt>
      <trkpt lat="46.82225" lon="5.9939">
        <ele>808.6</ele>
        <time>2022-05-01T14:34:02Z</time>
      </trkpt>
      <trkpt lat="46.82228" lon="5.99396">
        <ele>807.1</ele>
        <time>2022-05-01T14:34:08Z</time>
      </trkpt>
      <trkpt lat="46.82232" lon="5.99401">
        <ele>806</ele>
        <time>2022-05-01T14:34:14Z</time>
      </trkpt>
      <trkpt lat="46.82236" lon="5.99406">
        <ele>805.6</ele>
        <time>2022-05-01T14:34:18Z</time>
      </trkpt>
      <trkpt lat="46.8224" lon="5.99411">
        <ele>805.7</ele>
        <time>2022-05-01T14:34:22Z</time>
      </trkpt>
      <trkpt lat="46.82245" lon="5.99415">
        <ele>806.4</ele>
        <time>2022-05-01T14:34:26Z</time>
      </trkpt>
      <trkpt lat="46.82249" lon="5.99417">
        <ele>807</ele>
        <time>2022-05-01T14:34:29Z</time>
      </trkpt>
      <trkpt lat="46.82254" lon="5.9942">
        <ele>808</ele>
        <time>2022-05-01T14:34:33Z</time>
      </trkpt>
      <trkpt lat="46.82259" lon="5.99425">
        <ele>809.7</ele>
        <time>2022-05-01T14:34:37Z</time>
      </trkpt>
      <trkpt lat="46.82263" lon="5.99431">
        <ele>811.2</ele>
        <time>2022-05-01T14:34:41Z</time>
      </trkpt>
      <trkpt lat="46.82268" lon="5.99435">
        <ele>813</ele>
        <time>2022-05-01T14:34:44Z</time>
      </trkpt>
      <trkpt lat="46.82272" lon="5.99437">
        <ele>815.2</ele>
        <time>2022-05-01T14:34:48Z</time>
      </trkpt>
      <trkpt lat="46.82278" lon="5.99439">
        <ele>817.9</ele>
        <time>2022-05-01T14:34:53Z</time>
      </trkpt>
      <trkpt lat="46.82283" lon="5.9944">
        <ele>819.8</ele>
        <time>2022-05-01T14:34:57Z</time>
      </trkpt>
      <trkpt lat="46.82288" lon="5.99443">
        <ele>821.2</ele>
        <time>2022-05-01T14:35:02Z</time>
      </trkpt>
      <trkpt lat="46.82291" lon="5.99447">
        <ele>821.5</ele>
        <time>2022-05-01T14:35:07Z</time>
      </trkpt>
      <trkpt lat="46.82295" lon="5.99451">
        <ele>821.3</ele>
        <time>2022-05-01T14:35:12Z</time>
      </trkpt>
      <trkpt lat="46.82299" lon="5.99455">
        <ele>821.3</ele>
        <time>2022-05-01T14:35:17Z</time>
      </trkpt>
      <trkpt lat="46.82303" lon="5.99459">
        <ele>821.5</ele>
        <time>2022-05-01T14:35:21Z</time>
      </trkpt>
      <trkpt lat="46.82308" lon="5.99461">
        <ele>821.9</ele>
        <time>2022-05-01T14:35:25Z</time>
      </trkpt>
      <trkpt lat="46.82314" lon="5.99461">
        <ele>822.7</ele>
        <time>2022-05-01T14:35:30Z</time>
      </trkpt>
      <trkpt lat="46.8232" lon="5.99461">
        <ele>822.7</ele>
        <time>2022-05-01T14:35:34Z</time>
      </trkpt>
      <trkpt lat="46.82325" lon="5.99463">
        <ele>822.3</ele>
        <time>2022-05-01T14:35:38Z</time>
      </trkpt>
      <trkpt lat="46.82329" lon="5.99469">
        <ele>821.6</ele>
        <time>2022-05-01T14:35:43Z</time>
      </trkpt>
      <trkpt lat="46.82334" lon="5.9947">
        <ele>821.1</ele>
        <time>2022-05-01T14:35:46Z</time>
      </trkpt>
      <trkpt lat="46.82338" lon="5.99474">
        <ele>820.3</ele>
        <time>2022-05-01T14:35:50Z</time>
      </trkpt>
      <trkpt lat="46.82343" lon="5.99477">
        <ele>819.2</ele>
        <time>2022-05-01T14:35:55Z</time>
      </trkpt>
      <trkpt lat="46.82348" lon="5.99478">
        <ele>817.3</ele>
        <time>2022-05-01T14:36:01Z</time>
      </trkpt>
      <trkpt lat="46.82352" lon="5.99482">
        <ele>816</ele>
        <time>2022-05-01T14:36:07Z</time>
      </trkpt>
      <trkpt lat="46.82357" lon="5.99485">
        <ele>815.1</ele>
        <time>2022-05-01T14:36:12Z</time>
      </trkpt>
      <trkpt lat="46.82362" lon="5.99488">
        <ele>814.7</ele>
        <time>2022-05-01T14:36:16Z</time>
      </trkpt>
      <trkpt lat="46.82367" lon="5.99489">
        <ele>814.5</ele>
        <time>2022-05-01T14:36:20Z</time>
      </trkpt>
      <trkpt lat="46.82373" lon="5.9949">
        <ele>814.1</ele>
        <time>2022-05-01T14:36:24Z</time>
      </trkpt>
      <trkpt lat="46.82378" lon="5.99492">
        <ele>813.1</ele>
        <time>2022-05-01T14:36:29Z</time>
      </trkpt>
      <trkpt lat="46.82381" lon="5.99497">
        <ele>812.3</ele>
        <time>2022-05-01T14:36:35Z</time>
      </trkpt>
      <trkpt lat="46.82385" lon="5.99501">
        <ele>812.3</ele>
        <time>2022-05-01T14:36:39Z</time>
      </trkpt>
      <trkpt lat="46.82389" lon="5.99506">
        <ele>812.5</ele>
        <time>2022-05-01T14:36:43Z</time>
      </trkpt>
      <trkpt lat="46.82392" lon="5.9951">
        <ele>812.3</ele>
        <time>2022-05-01T14:36:51Z</time>
      </trkpt>
      <trkpt lat="46.82396" lon="5.99516">
        <ele>811.5</ele>
        <time>2022-05-01T14:36:56Z</time>
      </trkpt>
      <trkpt lat="46.824" lon="5.9952">
        <ele>811.2</ele>
        <time>2022-05-01T14:37:01Z</time>
      </trkpt>
      <trkpt lat="46.82406" lon="5.99522">
        <ele>811.4</ele>
        <time>2022-05-01T14:37:05Z</time>
      </trkpt>
      <trkpt lat="46.82411" lon="5.99526">
        <ele>811.6</ele>
        <time>2022-05-01T14:37:08Z</time>
      </trkpt>
      <trkpt lat="46.82416" lon="5.99529">
        <ele>811.9</ele>
        <time>2022-05-01T14:37:11Z</time>
      </trkpt>
      <trkpt lat="46.8242" lon="5.99529">
        <ele>812.1</ele>
        <time>2022-05-01T14:37:14Z</time>
      </trkpt>
      <trkpt lat="46.82426" lon="5.9953">
        <ele>812</ele>
        <time>2022-05-01T14:37:18Z</time>
      </trkpt>
      <trkpt lat="46.8243" lon="5.99532">
        <ele>811.7</ele>
        <time>2022-05-01T14:37:24Z</time>
      </trkpt>
      <trkpt lat="46.82435" lon="5.99534">
        <ele>811.7</ele>
        <time>2022-05-01T14:37:29Z</time>
      </trkpt>
      <trkpt lat="46.8244" lon="5.99534">
        <ele>812.1</ele>
        <time>2022-05-01T14:37:33Z</time>
      </trkpt>
      <trkpt lat="46.82445" lon="5.99537">
        <ele>811.9</ele>
        <time>2022-05-01T14:37:37Z</time>
      </trkpt>
      <trkpt lat="46.82449" lon="5.99538">
        <ele>811.5</ele>
        <time>2022-05-01T14:37:41Z</time>
      </trkpt>
      <trkpt lat="46.82454" lon="5.99541">
        <ele>811.1</ele>
        <time>2022-05-01T14:37:49Z</time>
      </trkpt>
      <trkpt lat="46.82459" lon="5.99545">
        <ele>811.1</ele>
        <time>2022-05-01T14:37:55Z</time>
      </trkpt>
      <trkpt lat="46.82462" lon="5.99549">
        <ele>811.1</ele>
        <time>2022-05-01T14:37:58Z</time>
      </trkpt>
      <trkpt lat="46.82466" lon="5.99553">
        <ele>810.5</ele>
        <time>2022-05-01T14:38:03Z</time>
      </trkpt>
      <trkpt lat="46.82471" lon="5.99556">
        <ele>810.2</ele>
        <time>2022-05-01T14:38:07Z</time>
      </trkpt>
      <trkpt lat="46.82476" lon="5.99559">
        <ele>810.1</ele>
        <time>2022-05-01T14:38:12Z</time>
      </trkpt>
      <trkpt lat="46.82481" lon="5.99561">
        <ele>810.4</ele>
        <time>2022-05-01T14:38:16Z</time>
      </trkpt>
      <trkpt lat="46.82486" lon="5.99561">
        <ele>810.7</ele>
        <time>2022-05-01T14:38:20Z</time>
      </trkpt>
      <trkpt lat="46.82491" lon="5.99564">
        <ele>810.9</ele>
        <time>2022-05-01T14:38:24Z</time>
      </trkpt>
      <trkpt lat="46.82495" lon="5.99568">
        <ele>810.7</ele>
        <time>2022-05-01T14:38:28Z</time>
      </trkpt>
      <trkpt lat="46.825" lon="5.99571">
        <ele>810.7</ele>
        <time>2022-05-01T14:38:33Z</time>
      </trkpt>
      <trkpt lat="46.82505" lon="5.99574">
        <ele>810.6</ele>
        <time>2022-05-01T14:38:39Z</time>
      </trkpt>
      <trkpt lat="46.82511" lon="5.99575">
        <ele>810.2</ele>
        <time>2022-05-01T14:38:43Z</time>
      </trkpt>
      <trkpt lat="46.82517" lon="5.99576">
        <ele>809</ele>
        <time>2022-05-01T14:38:47Z</time>
      </trkpt>
      <trkpt lat="46.82521" lon="5.99578">
        <ele>807.8</ele>
        <time>2022-05-01T14:38:51Z</time>
      </trkpt>
      <trkpt lat="46.82525" lon="5.99582">
        <ele>806.8</ele>
        <time>2022-05-01T14:38:55Z</time>
      </trkpt>
      <trkpt lat="46.82528" lon="5.99589">
        <ele>806.1</ele>
        <time>2022-05-01T14:39:00Z</time>
      </trkpt>
      <trkpt lat="46.82531" lon="5.99594">
        <ele>805.4</ele>
        <time>2022-05-01T14:39:05Z</time>
      </trkpt>
      <trkpt lat="46.82536" lon="5.99598">
        <ele>805.3</ele>
        <time>2022-05-01T14:39:11Z</time>
      </trkpt>
      <trkpt lat="46.82541" lon="5.99601">
        <ele>805.4</ele>
        <time>2022-05-01T14:39:16Z</time>
      </trkpt>
      <trkpt lat="46.82545" lon="5.99603">
        <ele>804.8</ele>
        <time>2022-05-01T14:39:20Z</time>
      </trkpt>
      <trkpt lat="46.8255" lon="5.99606">
        <ele>804</ele>
        <time>2022-05-01T14:39:25Z</time>
      </trkpt>
      <trkpt lat="46.82554" lon="5.9961">
        <ele>803.4</ele>
        <time>2022-05-01T14:39:30Z</time>
      </trkpt>
      <trkpt lat="46.82558" lon="5.99611">
        <ele>802.8</ele>
        <time>2022-05-01T14:39:34Z</time>
      </trkpt>
      <trkpt lat="46.82563" lon="5.99613">
        <ele>802.8</ele>
        <time>2022-05-01T14:39:37Z</time>
      </trkpt>
      <trkpt lat="46.82568" lon="5.99615">
        <ele>803.2</ele>
        <time>2022-05-01T14:39:40Z</time>
      </trkpt>
      <trkpt lat="46.82573" lon="5.99617">
        <ele>803.5</ele>
        <time>2022-05-01T14:39:43Z</time>
      </trkpt>
      <trkpt lat="46.82578" lon="5.99618">
        <ele>803.6</ele>
        <time>2022-05-01T14:39:46Z</time>
      </trkpt>
      <trkpt lat="46.82584" lon="5.99619">
        <ele>803.6</ele>
        <time>2022-05-01T14:39:50Z</time>
      </trkpt>
      <trkpt lat="46.82589" lon="5.99622">
        <ele>803.9</ele>
        <time>2022-05-01T14:39:54Z</time>
      </trkpt>
      <trkpt lat="46.82593" lon="5.99625">
        <ele>805</ele>
        <time>2022-05-01T14:39:58Z</time>
      </trkpt>
      <trkpt lat="46.82598" lon="5.99629">
        <ele>805.5</ele>
        <time>2022-05-01T14:40:03Z</time>
      </trkpt>
      <trkpt lat="46.82602" lon="5.99633">
        <ele>805.3</ele>
        <time>2022-05-01T14:40:10Z</time>
      </trkpt>
      <trkpt lat="46.82606" lon="5.99636">
        <ele>805.7</ele>
        <time>2022-05-01T14:40:15Z</time>
      </trkpt>
      <trkpt lat="46.82611" lon="5.99638">
        <ele>805.6</ele>
        <time>2022-05-01T14:40:19Z</time>
      </trkpt>
      <trkpt lat="46.82616" lon="5.9964">
        <ele>804.6</ele>
        <time>2022-05-01T14:40:24Z</time>
      </trkpt>
      <trkpt lat="46.8262" lon="5.99645">
        <ele>802.9</ele>
        <time>2022-05-01T14:40:29Z</time>
      </trkpt>
      <trkpt lat="46.82623" lon="5.9965">
        <ele>800.7</ele>
        <time>2022-05-01T14:40:34Z</time>
      </trkpt>
      <trkpt lat="46.82625" lon="5.99656">
        <ele>795.1</ele>
        <time>2022-05-01T14:40:57Z</time>
      </trkpt>
      <trkpt lat="46.82629" lon="5.99658">
        <ele>794.5</ele>
        <time>2022-05-01T14:41:02Z</time>
      </trkpt>
      <trkpt lat="46.82634" lon="5.99661">
        <ele>793.9</ele>
        <time>2022-05-01T14:41:12Z</time>
      </trkpt>
      <trkpt lat="46.82638" lon="5.99665">
        <ele>793.4</ele>
        <time>2022-05-01T14:41:17Z</time>
      </trkpt>
      <trkpt lat="46.82643" lon="5.99667">
        <ele>793.1</ele>
        <time>2022-05-01T14:41:23Z</time>
      </trkpt>
      <trkpt lat="46.82648" lon="5.99665">
        <ele>792.2</ele>
        <time>2022-05-01T14:41:37Z</time>
      </trkpt>
      <trkpt lat="46.82649" lon="5.99659">
        <ele>794.8</ele>
        <time>2022-05-01T14:42:56Z</time>
      </trkpt>
      <trkpt lat="46.82645" lon="5.99657">
        <ele>802.4</ele>
        <time>2022-05-01T14:44:07Z</time>
      </trkpt>
      <trkpt lat="46.8264" lon="5.99655">
        <ele>804.3</ele>
        <time>2022-05-01T14:44:14Z</time>
      </trkpt>
      <trkpt lat="46.82635" lon="5.9965">
        <ele>804.1</ele>
        <time>2022-05-01T14:44:22Z</time>
      </trkpt>
      <trkpt lat="46.82633" lon="5.99643">
        <ele>803.7</ele>
        <time>2022-05-01T14:44:26Z</time>
      </trkpt>
      <trkpt lat="46.82631" lon="5.99636">
        <ele>802.9</ele>
        <time>2022-05-01T14:44:31Z</time>
      </trkpt>
      <trkpt lat="46.82629" lon="5.9963">
        <ele>803</ele>
        <time>2022-05-01T14:44:35Z</time>
      </trkpt>
      <trkpt lat="46.82626" lon="5.99624">
        <ele>803.2</ele>
        <time>2022-05-01T14:44:40Z</time>
      </trkpt>
      <trkpt lat="46.82624" lon="5.99616">
        <ele>803.2</ele>
        <time>2022-05-01T14:44:45Z</time>
      </trkpt>
      <trkpt lat="46.82623" lon="5.99609">
        <ele>803.5</ele>
        <time>2022-05-01T14:44:49Z</time>
      </trkpt>
      <trkpt lat="46.82622" lon="5.99602">
        <ele>802.9</ele>
        <time>2022-05-01T14:44:53Z</time>
      </trkpt>
      <trkpt lat="46.82622" lon="5.99595">
        <ele>801.8</ele>
        <time>2022-05-01T14:44:57Z</time>
      </trkpt>
      <trkpt lat="46.82621" lon="5.99588">
        <ele>800.9</ele>
        <time>2022-05-01T14:45:01Z</time>
      </trkpt>
      <trkpt lat="46.82621" lon="5.9958">
        <ele>800.1</ele>
        <time>2022-05-01T14:45:06Z</time>
      </trkpt>
      <trkpt lat="46.82622" lon="5.99574">
        <ele>799.6</ele>
        <time>2022-05-01T14:45:12Z</time>
      </trkpt>
      <trkpt lat="46.82623" lon="5.99567">
        <ele>799.7</ele>
        <time>2022-05-01T14:45:17Z</time>
      </trkpt>
      <trkpt lat="46.82623" lon="5.9956">
        <ele>799.8</ele>
        <time>2022-05-01T14:45:22Z</time>
      </trkpt>
      <trkpt lat="46.82624" lon="5.99552">
        <ele>799.4</ele>
        <time>2022-05-01T14:45:27Z</time>
      </trkpt>
      <trkpt lat="46.82626" lon="5.99545">
        <ele>798.6</ele>
        <time>2022-05-01T14:45:31Z</time>
      </trkpt>
      <trkpt lat="46.8263" lon="5.99539">
        <ele>797.5</ele>
        <time>2022-05-01T14:45:35Z</time>
      </trkpt>
      <trkpt lat="46.82634" lon="5.99534">
        <ele>795.9</ele>
        <time>2022-05-01T14:45:39Z</time>
      </trkpt>
      <trkpt lat="46.82636" lon="5.99528">
        <ele>794</ele>
        <time>2022-05-01T14:45:43Z</time>
      </trkpt>
      <trkpt lat="46.82639" lon="5.99523">
        <ele>791</ele>
        <time>2022-05-01T14:45:49Z</time>
      </trkpt>
      <trkpt lat="46.8264" lon="5.99517">
        <ele>788.7</ele>
        <time>2022-05-01T14:45:55Z</time>
      </trkpt>
      <trkpt lat="46.82642" lon="5.99509">
        <ele>786.9</ele>
        <time>2022-05-01T14:46:01Z</time>
      </trkpt>
      <trkpt lat="46.82645" lon="5.99503">
        <ele>785.8</ele>
        <time>2022-05-01T14:46:05Z</time>
      </trkpt>
      <trkpt lat="46.82647" lon="5.99497">
        <ele>784.9</ele>
        <time>2022-05-01T14:46:09Z</time>
      </trkpt>
      <trkpt lat="46.82649" lon="5.9949">
        <ele>784.1</ele>
        <time>2022-05-01T14:46:14Z</time>
      </trkpt>
      <trkpt lat="46.82651" lon="5.99483">
        <ele>783.6</ele>
        <time>2022-05-01T14:46:18Z</time>
      </trkpt>
      <trkpt lat="46.82652" lon="5.99476">
        <ele>783.3</ele>
        <time>2022-05-01T14:46:22Z</time>
      </trkpt>
      <trkpt lat="46.82654" lon="5.9947">
        <ele>783.1</ele>
        <time>2022-05-01T14:46:26Z</time>
      </trkpt>
      <trkpt lat="46.82655" lon="5.99463">
        <ele>782.9</ele>
        <time>2022-05-01T14:46:30Z</time>
      </trkpt>
      <trkpt lat="46.82657" lon="5.99457">
        <ele>782.8</ele>
        <time>2022-05-01T14:46:34Z</time>
      </trkpt>
      <trkpt lat="46.8266" lon="5.99451">
        <ele>782.4</ele>
        <time>2022-05-01T14:46:38Z</time>
      </trkpt>
      <trkpt lat="46.82663" lon="5.99445">
        <ele>781.9</ele>
        <time>2022-05-01T14:46:41Z</time>
      </trkpt>
      <trkpt lat="46.82665" lon="5.99438">
        <ele>781.3</ele>
        <time>2022-05-01T14:46:45Z</time>
      </trkpt>
      <trkpt lat="46.82668" lon="5.99431">
        <ele>780.4</ele>
        <time>2022-05-01T14:46:50Z</time>
      </trkpt>
      <trkpt lat="46.8267" lon="5.99424">
        <ele>779.8</ele>
        <time>2022-05-01T14:46:55Z</time>
      </trkpt>
      <trkpt lat="46.82672" lon="5.99419">
        <ele>779.4</ele>
        <time>2022-05-01T14:46:59Z</time>
      </trkpt>
      <trkpt lat="46.82674" lon="5.99412">
        <ele>778.9</ele>
        <time>2022-05-01T14:47:04Z</time>
      </trkpt>
      <trkpt lat="46.82677" lon="5.99406">
        <ele>778.1</ele>
        <time>2022-05-01T14:47:10Z</time>
      </trkpt>
      <trkpt lat="46.82676" lon="5.99398">
        <ele>777.4</ele>
        <time>2022-05-01T14:47:15Z</time>
      </trkpt>
      <trkpt lat="46.82678" lon="5.99391">
        <ele>777</ele>
        <time>2022-05-01T14:47:19Z</time>
      </trkpt>
      <trkpt lat="46.82681" lon="5.99384">
        <ele>776.9</ele>
        <time>2022-05-01T14:47:22Z</time>
      </trkpt>
      <trkpt lat="46.82682" lon="5.99378">
        <ele>776.8</ele>
        <time>2022-05-01T14:47:25Z</time>
      </trkpt>
      <trkpt lat="46.82685" lon="5.99371">
        <ele>776.5</ele>
        <time>2022-05-01T14:47:29Z</time>
      </trkpt>
      <trkpt lat="46.82685" lon="5.99364">
        <ele>776.4</ele>
        <time>2022-05-01T14:47:33Z</time>
      </trkpt>
      <trkpt lat="46.82686" lon="5.99357">
        <ele>776</ele>
        <time>2022-05-01T14:47:38Z</time>
      </trkpt>
      <trkpt lat="46.82688" lon="5.99351">
        <ele>775</ele>
        <time>2022-05-01T14:47:43Z</time>
      </trkpt>
      <trkpt lat="46.82689" lon="5.99345">
        <ele>773.9</ele>
        <time>2022-05-01T14:47:49Z</time>
      </trkpt>
      <trkpt lat="46.8269" lon="5.99338">
        <ele>773.1</ele>
        <time>2022-05-01T14:47:56Z</time>
      </trkpt>
      <trkpt lat="46.8269" lon="5.9933">
        <ele>773</ele>
        <time>2022-05-01T14:48:00Z</time>
      </trkpt>
      <trkpt lat="46.82689" lon="5.99323">
        <ele>773.3</ele>
        <time>2022-05-01T14:48:04Z</time>
      </trkpt>
      <trkpt lat="46.82689" lon="5.99316">
        <ele>773.3</ele>
        <time>2022-05-01T14:48:07Z</time>
      </trkpt>
      <trkpt lat="46.82689" lon="5.99308">
        <ele>772.9</ele>
        <time>2022-05-01T14:48:11Z</time>
      </trkpt>
      <trkpt lat="46.8269" lon="5.99301">
        <ele>772.5</ele>
        <time>2022-05-01T14:48:14Z</time>
      </trkpt>
      <trkpt lat="46.8269" lon="5.99294">
        <ele>772.4</ele>
        <time>2022-05-01T14:48:17Z</time>
      </trkpt>
      <trkpt lat="46.8269" lon="5.99287">
        <ele>772.6</ele>
        <time>2022-05-01T14:48:20Z</time>
      </trkpt>
      <trkpt lat="46.82689" lon="5.9928">
        <ele>772.9</ele>
        <time>2022-05-01T14:48:23Z</time>
      </trkpt>
      <trkpt lat="46.8269" lon="5.99273">
        <ele>773.3</ele>
        <time>2022-05-01T14:48:26Z</time>
      </trkpt>
      <trkpt lat="46.82691" lon="5.99266">
        <ele>773.5</ele>
        <time>2022-05-01T14:48:32Z</time>
      </trkpt>
      <trkpt lat="46.82692" lon="5.99259">
        <ele>774.2</ele>
        <time>2022-05-01T14:48:37Z</time>
      </trkpt>
      <trkpt lat="46.82691" lon="5.99252">
        <ele>774.7</ele>
        <time>2022-05-01T14:48:41Z</time>
      </trkpt>
      <trkpt lat="46.82692" lon="5.99245">
        <ele>775.2</ele>
        <time>2022-05-01T14:48:45Z</time>
      </trkpt>
      <trkpt lat="46.82692" lon="5.99238">
        <ele>775.8</ele>
        <time>2022-05-01T14:48:49Z</time>
      </trkpt>
      <trkpt lat="46.82692" lon="5.9923">
        <ele>776.4</ele>
        <time>2022-05-01T14:48:54Z</time>
      </trkpt>
      <trkpt lat="46.82692" lon="5.99223">
        <ele>777.4</ele>
        <time>2022-05-01T14:49:00Z</time>
      </trkpt>
      <trkpt lat="46.82691" lon="5.99216">
        <ele>777.5</ele>
        <time>2022-05-01T14:49:07Z</time>
      </trkpt>
      <trkpt lat="46.82687" lon="5.9921">
        <ele>776.8</ele>
        <time>2022-05-01T14:49:12Z</time>
      </trkpt>
      <trkpt lat="46.82685" lon="5.99204">
        <ele>776.2</ele>
        <time>2022-05-01T14:49:24Z</time>
      </trkpt>
      <trkpt lat="46.82682" lon="5.99198">
        <ele>777.2</ele>
        <time>2022-05-01T14:49:30Z</time>
      </trkpt>
      <trkpt lat="46.82679" lon="5.99193">
        <ele>778.1</ele>
        <time>2022-05-01T14:49:45Z</time>
      </trkpt>
      <trkpt lat="46.82678" lon="5.99186">
        <ele>778.4</ele>
        <time>2022-05-01T14:49:53Z</time>
      </trkpt>
      <trkpt lat="46.82684" lon="5.99185">
        <ele>780.1</ele>
        <time>2022-05-01T14:50:09Z</time>
      </trkpt>
      <trkpt lat="46.82689" lon="5.99186">
        <ele>785.4</ele>
        <time>2022-05-01T14:50:38Z</time>
      </trkpt>
      <trkpt lat="46.82685" lon="5.99181">
        <ele>788.2</ele>
        <time>2022-05-01T14:50:54Z</time>
      </trkpt>
      <trkpt lat="46.82679" lon="5.99179">
        <ele>789</ele>
        <time>2022-05-01T14:50:58Z</time>
      </trkpt>
      <trkpt lat="46.82675" lon="5.99176">
        <ele>789.7</ele>
        <time>2022-05-01T14:51:02Z</time>
      </trkpt>
      <trkpt lat="46.82671" lon="5.99171">
        <ele>790.3</ele>
        <time>2022-05-01T14:51:06Z</time>
      </trkpt>
      <trkpt lat="46.82667" lon="5.99167">
        <ele>791</ele>
        <time>2022-05-01T14:51:11Z</time>
      </trkpt>
      <trkpt lat="46.82664" lon="5.99161">
        <ele>791.5</ele>
        <time>2022-05-01T14:51:17Z</time>
      </trkpt>
      <trkpt lat="46.82669" lon="5.99159">
        <ele>792</ele>
        <time>2022-05-01T14:51:23Z</time>
      </trkpt>
      <trkpt lat="46.82665" lon="5.99154">
        <ele>792.9</ele>
        <time>2022-05-01T14:51:32Z</time>
      </trkpt>
      <trkpt lat="46.82661" lon="5.99148">
        <ele>793.3</ele>
        <time>2022-05-01T14:51:36Z</time>
      </trkpt>
      <trkpt lat="46.82658" lon="5.99143">
        <ele>793.8</ele>
        <time>2022-05-01T14:51:40Z</time>
      </trkpt>
      <trkpt lat="46.82655" lon="5.99136">
        <ele>794.5</ele>
        <time>2022-05-01T14:51:48Z</time>
      </trkpt>
      <trkpt lat="46.82652" lon="5.99131">
        <ele>794.4</ele>
        <time>2022-05-01T14:51:53Z</time>
      </trkpt>
      <trkpt lat="46.82651" lon="5.99123">
        <ele>794.2</ele>
        <time>2022-05-01T14:51:58Z</time>
      </trkpt>
      <trkpt lat="46.82647" lon="5.99118">
        <ele>794</ele>
        <time>2022-05-01T14:52:02Z</time>
      </trkpt>
      <trkpt lat="46.82644" lon="5.99112">
        <ele>793.6</ele>
        <time>2022-05-01T14:52:06Z</time>
      </trkpt>
      <trkpt lat="46.82641" lon="5.99105">
        <ele>793.6</ele>
        <time>2022-05-01T14:52:10Z</time>
      </trkpt>
      <trkpt lat="46.8264" lon="5.99098">
        <ele>793.8</ele>
        <time>2022-05-01T14:52:14Z</time>
      </trkpt>
      <trkpt lat="46.82638" lon="5.99092">
        <ele>794.4</ele>
        <time>2022-05-01T14:52:19Z</time>
      </trkpt>
      <trkpt lat="46.82636" lon="5.99087">
        <ele>795.4</ele>
        <time>2022-05-01T14:52:24Z</time>
      </trkpt>
      <trkpt lat="46.82632" lon="5.99081">
        <ele>796.8</ele>
        <time>2022-05-01T14:52:29Z</time>
      </trkpt>
      <trkpt lat="46.82629" lon="5.99076">
        <ele>798</ele>
        <time>2022-05-01T14:52:34Z</time>
      </trkpt>
      <trkpt lat="46.82625" lon="5.99071">
        <ele>798.9</ele>
        <time>2022-05-01T14:52:39Z</time>
      </trkpt>
      <trkpt lat="46.82621" lon="5.99068">
        <ele>799.8</ele>
        <time>2022-05-01T14:52:43Z</time>
      </trkpt>
      <trkpt lat="46.82618" lon="5.99061">
        <ele>801.3</ele>
        <time>2022-05-01T14:52:48Z</time>
      </trkpt>
      <trkpt lat="46.82616" lon="5.99055">
        <ele>802.4</ele>
        <time>2022-05-01T14:52:52Z</time>
      </trkpt>
      <trkpt lat="46.82614" lon="5.99048">
        <ele>802.8</ele>
        <time>2022-05-01T14:52:56Z</time>
      </trkpt>
      <trkpt lat="46.82611" lon="5.99041">
        <ele>803.5</ele>
        <time>2022-05-01T14:53:01Z</time>
      </trkpt>
      <trkpt lat="46.8261" lon="5.99033">
        <ele>803.7</ele>
        <time>2022-05-01T14:53:05Z</time>
      </trkpt>
      <trkpt lat="46.82607" lon="5.99026">
        <ele>803.4</ele>
        <time>2022-05-01T14:53:10Z</time>
      </trkpt>
      <trkpt lat="46.82603" lon="5.99021">
        <ele>803</ele>
        <time>2022-05-01T14:53:14Z</time>
      </trkpt>
      <trkpt lat="46.826" lon="5.99014">
        <ele>802.5</ele>
        <time>2022-05-01T14:53:18Z</time>
      </trkpt>
      <trkpt lat="46.82598" lon="5.99008">
        <ele>800.7</ele>
        <time>2022-05-01T14:53:23Z</time>
      </trkpt>
      <trkpt lat="46.82597" lon="5.99">
        <ele>798.7</ele>
        <time>2022-05-01T14:53:27Z</time>
      </trkpt>
      <trkpt lat="46.82594" lon="5.98994">
        <ele>796.9</ele>
        <time>2022-05-01T14:53:31Z</time>
      </trkpt>
      <trkpt lat="46.82593" lon="5.98987">
        <ele>793.8</ele>
        <time>2022-05-01T14:53:37Z</time>
      </trkpt>
      <trkpt lat="46.8259" lon="5.98981">
        <ele>792.6</ele>
        <time>2022-05-01T14:53:41Z</time>
      </trkpt>
      <trkpt lat="46.82587" lon="5.98976">
        <ele>791.8</ele>
        <time>2022-05-01T14:53:44Z</time>
      </trkpt>
      <trkpt lat="46.82582" lon="5.98971">
        <ele>791.2</ele>
        <time>2022-05-01T14:53:48Z</time>
      </trkpt>
      <trkpt lat="46.82579" lon="5.98965">
        <ele>790.8</ele>
        <time>2022-05-01T14:53:52Z</time>
      </trkpt>
      <trkpt lat="46.82576" lon="5.98959">
        <ele>789.6</ele>
        <time>2022-05-01T14:53:57Z</time>
      </trkpt>
      <trkpt lat="46.82574" lon="5.98953">
        <ele>788</ele>
        <time>2022-05-01T14:54:02Z</time>
      </trkpt>
      <trkpt lat="46.8257" lon="5.98947">
        <ele>786.5</ele>
        <time>2022-05-01T14:54:07Z</time>
      </trkpt>
      <trkpt lat="46.82568" lon="5.9894">
        <ele>785.1</ele>
        <time>2022-05-01T14:54:12Z</time>
      </trkpt>
      <trkpt lat="46.82566" lon="5.98934">
        <ele>784</ele>
        <time>2022-05-01T14:54:16Z</time>
      </trkpt>
      <trkpt lat="46.82563" lon="5.98928">
        <ele>782.8</ele>
        <time>2022-05-01T14:54:20Z</time>
      </trkpt>
      <trkpt lat="46.8256" lon="5.98921">
        <ele>781</ele>
        <time>2022-05-01T14:54:25Z</time>
      </trkpt>
      <trkpt lat="46.82556" lon="5.98919">
        <ele>779.9</ele>
        <time>2022-05-01T14:54:28Z</time>
      </trkpt>
      <trkpt lat="46.82551" lon="5.98916">
        <ele>779</ele>
        <time>2022-05-01T14:54:32Z</time>
      </trkpt>
      <trkpt lat="46.82546" lon="5.98912">
        <ele>778.4</ele>
        <time>2022-05-01T14:54:36Z</time>
      </trkpt>
      <trkpt lat="46.82541" lon="5.9891">
        <ele>778.5</ele>
        <time>2022-05-01T14:54:41Z</time>
      </trkpt>
      <trkpt lat="46.82537" lon="5.98907">
        <ele>779.7</ele>
        <time>2022-05-01T14:54:46Z</time>
      </trkpt>
      <trkpt lat="46.82534" lon="5.98902">
        <ele>780.6</ele>
        <time>2022-05-01T14:54:49Z</time>
      </trkpt>
      <trkpt lat="46.82531" lon="5.98896">
        <ele>781.2</ele>
        <time>2022-05-01T14:54:52Z</time>
      </trkpt>
      <trkpt lat="46.82527" lon="5.9889">
        <ele>781.9</ele>
        <time>2022-05-01T14:54:56Z</time>
      </trkpt>
      <trkpt lat="46.82525" lon="5.98884">
        <ele>782.3</ele>
        <time>2022-05-01T14:55:00Z</time>
      </trkpt>
      <trkpt lat="46.82521" lon="5.9888">
        <ele>782.8</ele>
        <time>2022-05-01T14:55:04Z</time>
      </trkpt>
      <trkpt lat="46.82519" lon="5.98872">
        <ele>783.2</ele>
        <time>2022-05-01T14:55:09Z</time>
      </trkpt>
      <trkpt lat="46.82517" lon="5.98865">
        <ele>783.3</ele>
        <time>2022-05-01T14:55:14Z</time>
      </trkpt>
      <trkpt lat="46.82516" lon="5.98856">
        <ele>782.9</ele>
        <time>2022-05-01T14:55:18Z</time>
      </trkpt>
      <trkpt lat="46.82515" lon="5.98848">
        <ele>782.6</ele>
        <time>2022-05-01T14:55:22Z</time>
      </trkpt>
      <trkpt lat="46.82514" lon="5.9884">
        <ele>782.8</ele>
        <time>2022-05-01T14:55:27Z</time>
      </trkpt>
      <trkpt lat="46.82513" lon="5.98833">
        <ele>782.7</ele>
        <time>2022-05-01T14:55:31Z</time>
      </trkpt>
      <trkpt lat="46.82511" lon="5.98826">
        <ele>782.8</ele>
        <time>2022-05-01T14:55:35Z</time>
      </trkpt>
      <trkpt lat="46.82508" lon="5.9882">
        <ele>782.8</ele>
        <time>2022-05-01T14:55:39Z</time>
      </trkpt>
      <trkpt lat="46.82507" lon="5.98813">
        <ele>782.7</ele>
        <time>2022-05-01T14:55:44Z</time>
      </trkpt>
      <trkpt lat="46.82504" lon="5.98808">
        <ele>781.7</ele>
        <time>2022-05-01T14:55:49Z</time>
      </trkpt>
      <trkpt lat="46.82503" lon="5.98801">
        <ele>780.3</ele>
        <time>2022-05-01T14:55:56Z</time>
      </trkpt>
      <trkpt lat="46.82501" lon="5.98794">
        <ele>779.8</ele>
        <time>2022-05-01T14:56:02Z</time>
      </trkpt>
      <trkpt lat="46.82497" lon="5.98789">
        <ele>779.5</ele>
        <time>2022-05-01T14:56:07Z</time>
      </trkpt>
      <trkpt lat="46.82494" lon="5.98783">
        <ele>779.6</ele>
        <time>2022-05-01T14:56:12Z</time>
      </trkpt>
      <trkpt lat="46.82491" lon="5.98777">
        <ele>779.6</ele>
        <time>2022-05-01T14:56:17Z</time>
      </trkpt>
      <trkpt lat="46.82487" lon="5.9877">
        <ele>779.3</ele>
        <time>2022-05-01T14:56:21Z</time>
      </trkpt>
      <trkpt lat="46.82483" lon="5.98764">
        <ele>778.8</ele>
        <time>2022-05-01T14:56:24Z</time>
      </trkpt>
      <trkpt lat="46.8248" lon="5.98758">
        <ele>778.4</ele>
        <time>2022-05-01T14:56:27Z</time>
      </trkpt>
      <trkpt lat="46.82475" lon="5.98753">
        <ele>777.8</ele>
        <time>2022-05-01T14:56:30Z</time>
      </trkpt>
      <trkpt lat="46.82471" lon="5.98749">
        <ele>777.2</ele>
        <time>2022-05-01T14:56:33Z</time>
      </trkpt>
      <trkpt lat="46.82468" lon="5.98745">
        <ele>776.4</ele>
        <time>2022-05-01T14:56:37Z</time>
      </trkpt>
      <trkpt lat="46.82464" lon="5.98739">
        <ele>775.4</ele>
        <time>2022-05-01T14:56:43Z</time>
      </trkpt>
      <trkpt lat="46.82462" lon="5.98733">
        <ele>774.7</ele>
        <time>2022-05-01T14:56:49Z</time>
      </trkpt>
      <trkpt lat="46.8246" lon="5.98726">
        <ele>774.7</ele>
        <time>2022-05-01T14:56:55Z</time>
      </trkpt>
      <trkpt lat="46.82457" lon="5.98719">
        <ele>774.8</ele>
        <time>2022-05-01T14:56:59Z</time>
      </trkpt>
      <trkpt lat="46.82456" lon="5.98712">
        <ele>774.9</ele>
        <time>2022-05-01T14:57:03Z</time>
      </trkpt>
      <trkpt lat="46.82454" lon="5.98705">
        <ele>775.1</ele>
        <time>2022-05-01T14:57:07Z</time>
      </trkpt>
      <trkpt lat="46.82452" lon="5.98699">
        <ele>775.1</ele>
        <time>2022-05-01T14:57:11Z</time>
      </trkpt>
      <trkpt lat="46.82451" lon="5.98692">
        <ele>775.1</ele>
        <time>2022-05-01T14:57:15Z</time>
      </trkpt>
      <trkpt lat="46.8245" lon="5.98685">
        <ele>775.2</ele>
        <time>2022-05-01T14:57:21Z</time>
      </trkpt>
      <trkpt lat="46.82447" lon="5.98679">
        <ele>775.5</ele>
        <time>2022-05-01T14:57:26Z</time>
      </trkpt>
      <trkpt lat="46.82445" lon="5.98671">
        <ele>775.9</ele>
        <time>2022-05-01T14:57:31Z</time>
      </trkpt>
      <trkpt lat="46.82442" lon="5.98665">
        <ele>776.4</ele>
        <time>2022-05-01T14:57:36Z</time>
      </trkpt>
      <trkpt lat="46.82439" lon="5.9866">
        <ele>776.5</ele>
        <time>2022-05-01T14:57:40Z</time>
      </trkpt>
      <trkpt lat="46.82435" lon="5.98655">
        <ele>776.1</ele>
        <time>2022-05-01T14:57:43Z</time>
      </trkpt>
      <trkpt lat="46.82431" lon="5.98649">
        <ele>775.9</ele>
        <time>2022-05-01T14:57:46Z</time>
      </trkpt>
      <trkpt lat="46.82427" lon="5.98642">
        <ele>776.3</ele>
        <time>2022-05-01T14:57:50Z</time>
      </trkpt>
      <trkpt lat="46.82425" lon="5.98636">
        <ele>777</ele>
        <time>2022-05-01T14:57:54Z</time>
      </trkpt>
      <trkpt lat="46.8242" lon="5.9863">
        <ele>777.3</ele>
        <time>2022-05-01T14:57:58Z</time>
      </trkpt>
      <trkpt lat="46.82418" lon="5.98624">
        <ele>777</ele>
        <time>2022-05-01T14:58:02Z</time>
      </trkpt>
      <trkpt lat="46.82416" lon="5.98617">
        <ele>776.5</ele>
        <time>2022-05-01T14:58:06Z</time>
      </trkpt>
      <trkpt lat="46.82413" lon="5.98611">
        <ele>776</ele>
        <time>2022-05-01T14:58:10Z</time>
      </trkpt>
      <trkpt lat="46.82411" lon="5.98605">
        <ele>775.7</ele>
        <time>2022-05-01T14:58:14Z</time>
      </trkpt>
      <trkpt lat="46.82409" lon="5.98599">
        <ele>775.6</ele>
        <time>2022-05-01T14:58:18Z</time>
      </trkpt>
      <trkpt lat="46.82406" lon="5.98593">
        <ele>775.3</ele>
        <time>2022-05-01T14:58:22Z</time>
      </trkpt>
      <trkpt lat="46.82404" lon="5.98586">
        <ele>774.8</ele>
        <time>2022-05-01T14:58:28Z</time>
      </trkpt>
      <trkpt lat="46.82403" lon="5.9858">
        <ele>774</ele>
        <time>2022-05-01T14:58:33Z</time>
      </trkpt>
      <trkpt lat="46.82406" lon="5.98573">
        <ele>773.1</ele>
        <time>2022-05-01T14:58:37Z</time>
      </trkpt>
      <trkpt lat="46.82406" lon="5.98566">
        <ele>772.2</ele>
        <time>2022-05-01T14:58:41Z</time>
      </trkpt>
      <trkpt lat="46.82402" lon="5.98561">
        <ele>771.7</ele>
        <time>2022-05-01T14:58:44Z</time>
      </trkpt>
      <trkpt lat="46.824" lon="5.98553">
        <ele>770.7</ele>
        <time>2022-05-01T14:58:49Z</time>
      </trkpt>
      <trkpt lat="46.82399" lon="5.98546">
        <ele>770.4</ele>
        <time>2022-05-01T14:58:52Z</time>
      </trkpt>
      <trkpt lat="46.82398" lon="5.98539">
        <ele>770.3</ele>
        <time>2022-05-01T14:58:55Z</time>
      </trkpt>
      <trkpt lat="46.82397" lon="5.9853">
        <ele>770.9</ele>
        <time>2022-05-01T14:58:59Z</time>
      </trkpt>
      <trkpt lat="46.82397" lon="5.98522">
        <ele>772</ele>
        <time>2022-05-01T14:59:03Z</time>
      </trkpt>
      <trkpt lat="46.82398" lon="5.98513">
        <ele>774.2</ele>
        <time>2022-05-01T14:59:08Z</time>
      </trkpt>
      <trkpt lat="46.82399" lon="5.98507">
        <ele>775.7</ele>
        <time>2022-05-01T14:59:12Z</time>
      </trkpt>
      <trkpt lat="46.82402" lon="5.98501">
        <ele>776.8</ele>
        <time>2022-05-01T14:59:16Z</time>
      </trkpt>
      <trkpt lat="46.82406" lon="5.98494">
        <ele>777.7</ele>
        <time>2022-05-01T14:59:20Z</time>
      </trkpt>
      <trkpt lat="46.82407" lon="5.98488">
        <ele>778.4</ele>
        <time>2022-05-01T14:59:24Z</time>
      </trkpt>
      <trkpt lat="46.82407" lon="5.98481">
        <ele>779.5</ele>
        <time>2022-05-01T14:59:29Z</time>
      </trkpt>
      <trkpt lat="46.82405" lon="5.98473">
        <ele>780.6</ele>
        <time>2022-05-01T14:59:34Z</time>
      </trkpt>
      <trkpt lat="46.82405" lon="5.98466">
        <ele>781.5</ele>
        <time>2022-05-01T14:59:42Z</time>
      </trkpt>
      <trkpt lat="46.82403" lon="5.98459">
        <ele>785.7</ele>
        <time>2022-05-01T14:59:45Z</time>
      </trkpt>
      <trkpt lat="46.82405" lon="5.98452">
        <ele>789</ele>
        <time>2022-05-01T14:59:49Z</time>
      </trkpt>
      <trkpt lat="46.82408" lon="5.98448">
        <ele>790.7</ele>
        <time>2022-05-01T14:59:53Z</time>
      </trkpt>
      <trkpt lat="46.8241" lon="5.98441">
        <ele>790.9</ele>
        <time>2022-05-01T14:59:58Z</time>
      </trkpt>
      <trkpt lat="46.8241" lon="5.98434">
        <ele>790.3</ele>
        <time>2022-05-01T15:00:03Z</time>
      </trkpt>
      <trkpt lat="46.82409" lon="5.98427">
        <ele>789.2</ele>
        <time>2022-05-01T15:00:08Z</time>
      </trkpt>
      <trkpt lat="46.82411" lon="5.9842">
        <ele>787.9</ele>
        <time>2022-05-01T15:00:12Z</time>
      </trkpt>
      <trkpt lat="46.82411" lon="5.98412">
        <ele>786</ele>
        <time>2022-05-01T15:00:17Z</time>
      </trkpt>
      <trkpt lat="46.82415" lon="5.98407">
        <ele>783.1</ele>
        <time>2022-05-01T15:00:23Z</time>
      </trkpt>
      <trkpt lat="46.82419" lon="5.9841">
        <ele>781.4</ele>
        <time>2022-05-01T15:00:27Z</time>
      </trkpt>
      <trkpt lat="46.82423" lon="5.98415">
        <ele>779.7</ele>
        <time>2022-05-01T15:00:34Z</time>
      </trkpt>
      <trkpt lat="46.82427" lon="5.9842">
        <ele>778.1</ele>
        <time>2022-05-01T15:00:41Z</time>
      </trkpt>
      <trkpt lat="46.82432" lon="5.98423">
        <ele>776.9</ele>
        <time>2022-05-01T15:00:48Z</time>
      </trkpt>
      <trkpt lat="46.82436" lon="5.98426">
        <ele>775.9</ele>
        <time>2022-05-01T15:00:55Z</time>
      </trkpt>
      <trkpt lat="46.82437" lon="5.98433">
        <ele>775.6</ele>
        <time>2022-05-01T15:01:02Z</time>
      </trkpt>
      <trkpt lat="46.82437" lon="5.9844">
        <ele>774.9</ele>
        <time>2022-05-01T15:01:12Z</time>
      </trkpt>
      <trkpt lat="46.82442" lon="5.98444">
        <ele>774.9</ele>
        <time>2022-05-01T15:01:17Z</time>
      </trkpt>
      <trkpt lat="46.82447" lon="5.98445">
        <ele>775.1</ele>
        <time>2022-05-01T15:01:20Z</time>
      </trkpt>
      <trkpt lat="46.82452" lon="5.98448">
        <ele>775.4</ele>
        <time>2022-05-01T15:01:24Z</time>
      </trkpt>
      <trkpt lat="46.82456" lon="5.98451">
        <ele>776.4</ele>
        <time>2022-05-01T15:01:30Z</time>
      </trkpt>
      <trkpt lat="46.8246" lon="5.98451">
        <ele>777.8</ele>
        <time>2022-05-01T15:01:38Z</time>
      </trkpt>
      <trkpt lat="46.82461" lon="5.98444">
        <ele>779.4</ele>
        <time>2022-05-01T15:01:48Z</time>
      </trkpt>
      <trkpt lat="46.82466" lon="5.98447">
        <ele>779.4</ele>
        <time>2022-05-01T15:01:57Z</time>
      </trkpt>
      <trkpt lat="46.82469" lon="5.98452">
        <ele>780.8</ele>
        <time>2022-05-01T15:02:06Z</time>
      </trkpt>
      <trkpt lat="46.82473" lon="5.98455">
        <ele>781.8</ele>
        <time>2022-05-01T15:02:12Z</time>
      </trkpt>
      <trkpt lat="46.82478" lon="5.98457">
        <ele>783.7</ele>
        <time>2022-05-01T15:02:21Z</time>
      </trkpt>
      <trkpt lat="46.82484" lon="5.98458">
        <ele>783.8</ele>
        <time>2022-05-01T15:02:27Z</time>
      </trkpt>
      <trkpt lat="46.82489" lon="5.98458">
        <ele>783.8</ele>
        <time>2022-05-01T15:02:32Z</time>
      </trkpt>
      <trkpt lat="46.82495" lon="5.98459">
        <ele>783.8</ele>
        <time>2022-05-01T15:02:35Z</time>
      </trkpt>
      <trkpt lat="46.82499" lon="5.9846">
        <ele>784.1</ele>
        <time>2022-05-01T15:02:39Z</time>
      </trkpt>
      <trkpt lat="46.82505" lon="5.9846">
        <ele>784.5</ele>
        <time>2022-05-01T15:02:48Z</time>
      </trkpt>
      <trkpt lat="46.8251" lon="5.98459">
        <ele>784.9</ele>
        <time>2022-05-01T15:02:54Z</time>
      </trkpt>
      <trkpt lat="46.82514" lon="5.98457">
        <ele>786.4</ele>
        <time>2022-05-01T15:03:05Z</time>
      </trkpt>
      <trkpt lat="46.82519" lon="5.98455">
        <ele>786.9</ele>
        <time>2022-05-01T15:03:11Z</time>
      </trkpt>
      <trkpt lat="46.82515" lon="5.98451">
        <ele>786.9</ele>
        <time>2022-05-01T15:03:26Z</time>
      </trkpt>
      <trkpt lat="46.82511" lon="5.98454">
        <ele>787.1</ele>
        <time>2022-05-01T15:03:41Z</time>
      </trkpt>
      <trkpt lat="46.82506" lon="5.98454">
        <ele>786.6</ele>
        <time>2022-05-01T15:03:45Z</time>
      </trkpt>
      <trkpt lat="46.82506" lon="5.98447">
        <ele>785.9</ele>
        <time>2022-05-01T15:04:07Z</time>
      </trkpt>
      <trkpt lat="46.82509" lon="5.98441">
        <ele>786.3</ele>
        <time>2022-05-01T15:04:13Z</time>
      </trkpt>
      <trkpt lat="46.82512" lon="5.98435">
        <ele>787.6</ele>
        <time>2022-05-01T15:04:24Z</time>
      </trkpt>
      <trkpt lat="46.82516" lon="5.98431">
        <ele>788.4</ele>
        <time>2022-05-01T15:04:29Z</time>
      </trkpt>
      <trkpt lat="46.82521" lon="5.9843">
        <ele>788.4</ele>
        <time>2022-05-01T15:04:32Z</time>
      </trkpt>
      <trkpt lat="46.82526" lon="5.98428">
        <ele>787.9</ele>
        <time>2022-05-01T15:04:38Z</time>
      </trkpt>
      <trkpt lat="46.8253" lon="5.98423">
        <ele>788.1</ele>
        <time>2022-05-01T15:04:48Z</time>
      </trkpt>
      <trkpt lat="46.82534" lon="5.98419">
        <ele>789.1</ele>
        <time>2022-05-01T15:04:52Z</time>
      </trkpt>
      <trkpt lat="46.82537" lon="5.98415">
        <ele>790.3</ele>
        <time>2022-05-01T15:04:56Z</time>
      </trkpt>
      <trkpt lat="46.82538" lon="5.98408">
        <ele>792.9</ele>
        <time>2022-05-01T15:05:03Z</time>
      </trkpt>
      <trkpt lat="46.82543" lon="5.98405">
        <ele>795.2</ele>
        <time>2022-05-01T15:05:15Z</time>
      </trkpt>
      <trkpt lat="46.82547" lon="5.98402">
        <ele>794.7</ele>
        <time>2022-05-01T15:05:20Z</time>
      </trkpt>
      <trkpt lat="46.82551" lon="5.98397">
        <ele>793.2</ele>
        <time>2022-05-01T15:05:28Z</time>
      </trkpt>
      <trkpt lat="46.82557" lon="5.98395">
        <ele>791.4</ele>
        <time>2022-05-01T15:05:37Z</time>
      </trkpt>
      <trkpt lat="46.82563" lon="5.98394">
        <ele>790.6</ele>
        <time>2022-05-01T15:05:40Z</time>
      </trkpt>
      <trkpt lat="46.82568" lon="5.98394">
        <ele>789.4</ele>
        <time>2022-05-01T15:05:45Z</time>
      </trkpt>
      <trkpt lat="46.82573" lon="5.98392">
        <ele>788</ele>
        <time>2022-05-01T15:05:53Z</time>
      </trkpt>
      <trkpt lat="46.82578" lon="5.98391">
        <ele>787.6</ele>
        <time>2022-05-01T15:06:02Z</time>
      </trkpt>
      <trkpt lat="46.82573" lon="5.98393">
        <ele>789.6</ele>
        <time>2022-05-01T15:06:15Z</time>
      </trkpt>
      <trkpt lat="46.82573" lon="5.984">
        <ele>790.6</ele>
        <time>2022-05-01T15:06:27Z</time>
      </trkpt>
      <trkpt lat="46.82575" lon="5.98393">
        <ele>789.9</ele>
        <time>2022-05-01T15:06:38Z</time>
      </trkpt>
      <trkpt lat="46.82578" lon="5.98388">
        <ele>788</ele>
        <time>2022-05-01T15:06:41Z</time>
      </trkpt>
      <trkpt lat="46.82582" lon="5.98383">
        <ele>785.8</ele>
        <time>2022-05-01T15:06:45Z</time>
      </trkpt>
      <trkpt lat="46.82583" lon="5.98376">
        <ele>784.3</ele>
        <time>2022-05-01T15:06:50Z</time>
      </trkpt>
      <trkpt lat="46.82584" lon="5.9837">
        <ele>784.1</ele>
        <time>2022-05-01T15:06:53Z</time>
      </trkpt>
      <trkpt lat="46.82586" lon="5.98362">
        <ele>784.5</ele>
        <time>2022-05-01T15:06:58Z</time>
      </trkpt>
      <trkpt lat="46.82587" lon="5.98354">
        <ele>785.7</ele>
        <time>2022-05-01T15:07:03Z</time>
      </trkpt>
      <trkpt lat="46.82586" lon="5.98348">
        <ele>787.1</ele>
        <time>2022-05-01T15:07:07Z</time>
      </trkpt>
      <trkpt lat="46.82588" lon="5.98342">
        <ele>788.8</ele>
        <time>2022-05-01T15:07:11Z</time>
      </trkpt>
      <trkpt lat="46.8259" lon="5.98335">
        <ele>790.5</ele>
        <time>2022-05-01T15:07:16Z</time>
      </trkpt>
      <trkpt lat="46.82594" lon="5.9833">
        <ele>791.7</ele>
        <time>2022-05-01T15:07:21Z</time>
      </trkpt>
      <trkpt lat="46.82598" lon="5.98325">
        <ele>792.8</ele>
        <time>2022-05-01T15:07:25Z</time>
      </trkpt>
      <trkpt lat="46.82601" lon="5.9832">
        <ele>794.4</ele>
        <time>2022-05-01T15:07:30Z</time>
      </trkpt>
      <trkpt lat="46.82605" lon="5.98316">
        <ele>795.9</ele>
        <time>2022-05-01T15:07:35Z</time>
      </trkpt>
      <trkpt lat="46.82607" lon="5.9831">
        <ele>796.9</ele>
        <time>2022-05-01T15:07:40Z</time>
      </trkpt>
      <trkpt lat="46.8261" lon="5.98303">
        <ele>797.9</ele>
        <time>2022-05-01T15:07:46Z</time>
      </trkpt>
      <trkpt lat="46.82612" lon="5.98309">
        <ele>799.5</ele>
        <time>2022-05-01T15:07:55Z</time>
      </trkpt>
      <trkpt lat="46.82612" lon="5.98324">
        <ele>800</ele>
        <time>2022-05-01T15:07:58Z</time>
      </trkpt>
      <trkpt lat="46.82614" lon="5.98318">
        <ele>800.6</ele>
        <time>2022-05-01T15:08:04Z</time>
      </trkpt>
      <trkpt lat="46.82617" lon="5.98306">
        <ele>800.7</ele>
        <time>2022-05-01T15:08:07Z</time>
      </trkpt>
      <trkpt lat="46.82618" lon="5.98293">
        <ele>800.5</ele>
        <time>2022-05-01T15:08:10Z</time>
      </trkpt>
      <trkpt lat="46.82616" lon="5.9828">
        <ele>800.1</ele>
        <time>2022-05-01T15:08:13Z</time>
      </trkpt>
      <trkpt lat="46.82616" lon="5.9827">
        <ele>798.8</ele>
        <time>2022-05-01T15:08:16Z</time>
      </trkpt>
      <trkpt lat="46.82618" lon="5.98264">
        <ele>797.4</ele>
        <time>2022-05-01T15:08:19Z</time>
      </trkpt>
      <trkpt lat="46.82622" lon="5.9826">
        <ele>796</ele>
        <time>2022-05-01T15:08:22Z</time>
      </trkpt>
      <trkpt lat="46.82626" lon="5.98255">
        <ele>794.1</ele>
        <time>2022-05-01T15:08:26Z</time>
      </trkpt>
      <trkpt lat="46.8263" lon="5.98249">
        <ele>791.3</ele>
        <time>2022-05-01T15:08:35Z</time>
      </trkpt>
      <trkpt lat="46.82633" lon="5.98245">
        <ele>790.4</ele>
        <time>2022-05-01T15:08:42Z</time>
      </trkpt>
      <trkpt lat="46.82637" lon="5.98239">
        <ele>789.6</ele>
        <time>2022-05-01T15:08:49Z</time>
      </trkpt>
      <trkpt lat="46.82636" lon="5.98232">
        <ele>789.1</ele>
        <time>2022-05-01T15:08:53Z</time>
      </trkpt>
      <trkpt lat="46.82637" lon="5.98225">
        <ele>788.4</ele>
        <time>2022-05-01T15:08:58Z</time>
      </trkpt>
      <trkpt lat="46.8264" lon="5.98219">
        <ele>786.9</ele>
        <time>2022-05-01T15:09:07Z</time>
      </trkpt>
      <trkpt lat="46.82642" lon="5.98212">
        <ele>786</ele>
        <time>2022-05-01T15:09:12Z</time>
      </trkpt>
      <trkpt lat="46.82646" lon="5.98207">
        <ele>784.9</ele>
        <time>2022-05-01T15:09:16Z</time>
      </trkpt>
      <trkpt lat="46.8265" lon="5.98203">
        <ele>783.9</ele>
        <time>2022-05-01T15:09:19Z</time>
      </trkpt>
      <trkpt lat="46.82653" lon="5.98197">
        <ele>782.6</ele>
        <time>2022-05-01T15:09:25Z</time>
      </trkpt>
      <trkpt lat="46.82654" lon="5.98191">
        <ele>781</ele>
        <time>2022-05-01T15:09:34Z</time>
      </trkpt>
      <trkpt lat="46.82658" lon="5.98187">
        <ele>779.9</ele>
        <time>2022-05-01T15:09:41Z</time>
      </trkpt>
      <trkpt lat="46.82662" lon="5.98182">
        <ele>779.1</ele>
        <time>2022-05-01T15:09:46Z</time>
      </trkpt>
      <trkpt lat="46.82667" lon="5.98179">
        <ele>778.6</ele>
        <time>2022-05-01T15:09:50Z</time>
      </trkpt>
      <trkpt lat="46.82671" lon="5.98176">
        <ele>778.3</ele>
        <time>2022-05-01T15:09:56Z</time>
      </trkpt>
      <trkpt lat="46.82676" lon="5.98176">
        <ele>778.5</ele>
        <time>2022-05-01T15:10:02Z</time>
      </trkpt>
      <trkpt lat="46.82679" lon="5.98182">
        <ele>778.4</ele>
        <time>2022-05-01T15:10:07Z</time>
      </trkpt>
      <trkpt lat="46.82681" lon="5.98188">
        <ele>777.9</ele>
        <time>2022-05-01T15:10:12Z</time>
      </trkpt>
      <trkpt lat="46.82681" lon="5.98195">
        <ele>775.6</ele>
        <time>2022-05-01T15:10:21Z</time>
      </trkpt>
      <trkpt lat="46.82682" lon="5.98202">
        <ele>773.1</ele>
        <time>2022-05-01T15:10:29Z</time>
      </trkpt>
      <trkpt lat="46.82686" lon="5.98206">
        <ele>772</ele>
        <time>2022-05-01T15:10:34Z</time>
      </trkpt>
      <trkpt lat="46.82691" lon="5.98208">
        <ele>771.1</ele>
        <time>2022-05-01T15:10:39Z</time>
      </trkpt>
      <trkpt lat="46.82695" lon="5.98206">
        <ele>770.4</ele>
        <time>2022-05-01T15:10:47Z</time>
      </trkpt>
      <trkpt lat="46.82699" lon="5.98209">
        <ele>771.2</ele>
        <time>2022-05-01T15:10:56Z</time>
      </trkpt>
      <trkpt lat="46.82698" lon="5.98217">
        <ele>771</ele>
        <time>2022-05-01T15:11:08Z</time>
      </trkpt>
      <trkpt lat="46.82699" lon="5.98224">
        <ele>770.1</ele>
        <time>2022-05-01T15:11:12Z</time>
      </trkpt>
      <trkpt lat="46.82704" lon="5.98228">
        <ele>769.8</ele>
        <time>2022-05-01T15:11:17Z</time>
      </trkpt>
      <trkpt lat="46.82706" lon="5.98234">
        <ele>770.2</ele>
        <time>2022-05-01T15:11:23Z</time>
      </trkpt>
      <trkpt lat="46.82707" lon="5.98241">
        <ele>770</ele>
        <time>2022-05-01T15:11:30Z</time>
      </trkpt>
      <trkpt lat="46.82711" lon="5.98248">
        <ele>769.6</ele>
        <time>2022-05-01T15:11:40Z</time>
      </trkpt>
      <trkpt lat="46.82714" lon="5.98253">
        <ele>769.5</ele>
        <time>2022-05-01T15:11:44Z</time>
      </trkpt>
      <trkpt lat="46.8271" lon="5.98257">
        <ele>768.8</ele>
        <time>2022-05-01T15:11:48Z</time>
      </trkpt>
      <trkpt lat="46.82715" lon="5.98256">
        <ele>768.4</ele>
        <time>2022-05-01T15:12:19Z</time>
      </trkpt>
      <trkpt lat="46.82716" lon="5.98263">
        <ele>766.3</ele>
        <time>2022-05-01T15:12:39Z</time>
      </trkpt>
      <trkpt lat="46.82722" lon="5.98266">
        <ele>766.7</ele>
        <time>2022-05-01T15:12:44Z</time>
      </trkpt>
      <trkpt lat="46.82726" lon="5.98268">
        <ele>767.1</ele>
        <time>2022-05-01T15:12:49Z</time>
      </trkpt>
      <trkpt lat="46.82731" lon="5.98268">
        <ele>768.2</ele>
        <time>2022-05-01T15:13:01Z</time>
      </trkpt>
      <trkpt lat="46.82736" lon="5.98273">
        <ele>769</ele>
        <time>2022-05-01T15:13:06Z</time>
      </trkpt>
      <trkpt lat="46.82739" lon="5.98279">
        <ele>770.6</ele>
        <time>2022-05-01T15:13:12Z</time>
      </trkpt>
      <trkpt lat="46.82742" lon="5.98284">
        <ele>773.1</ele>
        <time>2022-05-01T15:13:20Z</time>
      </trkpt>
      <trkpt lat="46.82745" lon="5.98289">
        <ele>774.9</ele>
        <time>2022-05-01T15:13:26Z</time>
      </trkpt>
      <trkpt lat="46.82746" lon="5.98296">
        <ele>777.6</ele>
        <time>2022-05-01T15:13:32Z</time>
      </trkpt>
      <trkpt lat="46.8275" lon="5.98299">
        <ele>779.2</ele>
        <time>2022-05-01T15:13:41Z</time>
      </trkpt>
      <trkpt lat="46.82755" lon="5.98303">
        <ele>780.1</ele>
        <time>2022-05-01T15:13:50Z</time>
      </trkpt>
      <trkpt lat="46.8276" lon="5.98305">
        <ele>780.1</ele>
        <time>2022-05-01T15:13:53Z</time>
      </trkpt>
      <trkpt lat="46.82764" lon="5.98309">
        <ele>780.1</ele>
        <time>2022-05-01T15:13:57Z</time>
      </trkpt>
      <trkpt lat="46.82767" lon="5.98315">
        <ele>779.4</ele>
        <time>2022-05-01T15:14:02Z</time>
      </trkpt>
      <trkpt lat="46.8277" lon="5.9832">
        <ele>777.1</ele>
        <time>2022-05-01T15:14:09Z</time>
      </trkpt>
      <trkpt lat="46.82773" lon="5.98326">
        <ele>775.6</ele>
        <time>2022-05-01T15:14:19Z</time>
      </trkpt>
      <trkpt lat="46.82776" lon="5.9833">
        <ele>775.5</ele>
        <time>2022-05-01T15:14:24Z</time>
      </trkpt>
      <trkpt lat="46.82779" lon="5.98336">
        <ele>775.1</ele>
        <time>2022-05-01T15:14:27Z</time>
      </trkpt>
      <trkpt lat="46.82781" lon="5.98343">
        <ele>774.5</ele>
        <time>2022-05-01T15:14:31Z</time>
      </trkpt>
      <trkpt lat="46.82781" lon="5.98351">
        <ele>773.9</ele>
        <time>2022-05-01T15:14:35Z</time>
      </trkpt>
      <trkpt lat="46.82782" lon="5.98358">
        <ele>772.9</ele>
        <time>2022-05-01T15:14:42Z</time>
      </trkpt>
      <trkpt lat="46.82786" lon="5.98362">
        <ele>772.1</ele>
        <time>2022-05-01T15:14:49Z</time>
      </trkpt>
      <trkpt lat="46.8279" lon="5.98365">
        <ele>771.1</ele>
        <time>2022-05-01T15:14:53Z</time>
      </trkpt>
      <trkpt lat="46.82795" lon="5.98367">
        <ele>769.5</ele>
        <time>2022-05-01T15:15:03Z</time>
      </trkpt>
      <trkpt lat="46.828" lon="5.98368">
        <ele>768.7</ele>
        <time>2022-05-01T15:15:08Z</time>
      </trkpt>
      <trkpt lat="46.82805" lon="5.9837">
        <ele>768.5</ele>
        <time>2022-05-01T15:15:12Z</time>
      </trkpt>
      <trkpt lat="46.82809" lon="5.98372">
        <ele>768.3</ele>
        <time>2022-05-01T15:15:15Z</time>
      </trkpt>
      <trkpt lat="46.82814" lon="5.98375">
        <ele>768.4</ele>
        <time>2022-05-01T15:15:21Z</time>
      </trkpt>
      <trkpt lat="46.82817" lon="5.9838">
        <ele>768.6</ele>
        <time>2022-05-01T15:15:27Z</time>
      </trkpt>
      <trkpt lat="46.82822" lon="5.98384">
        <ele>768.9</ele>
        <time>2022-05-01T15:15:32Z</time>
      </trkpt>
      <trkpt lat="46.82827" lon="5.98385">
        <ele>769.3</ele>
        <time>2022-05-01T15:15:37Z</time>
      </trkpt>
      <trkpt lat="46.82832" lon="5.98383">
        <ele>769.7</ele>
        <time>2022-05-01T15:15:41Z</time>
      </trkpt>
      <trkpt lat="46.82837" lon="5.98384">
        <ele>770.2</ele>
        <time>2022-05-01T15:15:51Z</time>
      </trkpt>
      <trkpt lat="46.82841" lon="5.98389">
        <ele>769.7</ele>
        <time>2022-05-01T15:15:57Z</time>
      </trkpt>
      <trkpt lat="46.82844" lon="5.98394">
        <ele>768.8</ele>
        <time>2022-05-01T15:16:04Z</time>
      </trkpt>
      <trkpt lat="46.82849" lon="5.98398">
        <ele>768.5</ele>
        <time>2022-05-01T15:16:16Z</time>
      </trkpt>
      <trkpt lat="46.82854" lon="5.98399">
        <ele>768.3</ele>
        <time>2022-05-01T15:16:21Z</time>
      </trkpt>
      <trkpt lat="46.82857" lon="5.98403">
        <ele>768.3</ele>
        <time>2022-05-01T15:16:27Z</time>
      </trkpt>
      <trkpt lat="46.8286" lon="5.98409">
        <ele>768.2</ele>
        <time>2022-05-01T15:16:35Z</time>
      </trkpt>
      <trkpt lat="46.82864" lon="5.98414">
        <ele>768.1</ele>
        <time>2022-05-01T15:16:40Z</time>
      </trkpt>
      <trkpt lat="46.82869" lon="5.98419">
        <ele>768</ele>
        <time>2022-05-01T15:16:44Z</time>
      </trkpt>
      <trkpt lat="46.82873" lon="5.98422">
        <ele>767.7</ele>
        <time>2022-05-01T15:16:48Z</time>
      </trkpt>
      <trkpt lat="46.82878" lon="5.98425">
        <ele>767.4</ele>
        <time>2022-05-01T15:16:54Z</time>
      </trkpt>
      <trkpt lat="46.8288" lon="5.9843">
        <ele>767.2</ele>
        <time>2022-05-01T15:16:59Z</time>
      </trkpt>
      <trkpt lat="46.82884" lon="5.98435">
        <ele>767</ele>
        <time>2022-05-01T15:17:05Z</time>
      </trkpt>
      <trkpt lat="46.82887" lon="5.98441">
        <ele>767.1</ele>
        <time>2022-05-01T15:17:09Z</time>
      </trkpt>
      <trkpt lat="46.8289" lon="5.98447">
        <ele>767.1</ele>
        <time>2022-05-01T15:17:14Z</time>
      </trkpt>
      <trkpt lat="46.82889" lon="5.98454">
        <ele>767.6</ele>
        <time>2022-05-01T15:17:19Z</time>
      </trkpt>
      <trkpt lat="46.82892" lon="5.98461">
        <ele>767.6</ele>
        <time>2022-05-01T15:17:28Z</time>
      </trkpt>
      <trkpt lat="46.82896" lon="5.98465">
        <ele>768</ele>
        <time>2022-05-01T15:17:31Z</time>
      </trkpt>
      <trkpt lat="46.829" lon="5.9847">
        <ele>769</ele>
        <time>2022-05-01T15:17:35Z</time>
      </trkpt>
      <trkpt lat="46.82903" lon="5.98477">
        <ele>769.5</ele>
        <time>2022-05-01T15:17:39Z</time>
      </trkpt>
      <trkpt lat="46.82907" lon="5.98479">
        <ele>769.6</ele>
        <time>2022-05-01T15:17:47Z</time>
      </trkpt>
      <trkpt lat="46.82912" lon="5.98482">
        <ele>769.3</ele>
        <time>2022-05-01T15:17:53Z</time>
      </trkpt>
      <trkpt lat="46.82916" lon="5.98486">
        <ele>767.9</ele>
        <time>2022-05-01T15:17:57Z</time>
      </trkpt>
      <trkpt lat="46.82921" lon="5.9849">
        <ele>767</ele>
        <time>2022-05-01T15:18:00Z</time>
      </trkpt>
      <trkpt lat="46.82926" lon="5.98493">
        <ele>766</ele>
        <time>2022-05-01T15:18:03Z</time>
      </trkpt>
      <trkpt lat="46.8293" lon="5.98495">
        <ele>764.9</ele>
        <time>2022-05-01T15:18:06Z</time>
      </trkpt>
      <trkpt lat="46.82935" lon="5.98498">
        <ele>763.5</ele>
        <time>2022-05-01T15:18:11Z</time>
      </trkpt>
      <trkpt lat="46.82939" lon="5.98504">
        <ele>762.4</ele>
        <time>2022-05-01T15:18:16Z</time>
      </trkpt>
      <trkpt lat="46.82938" lon="5.98512">
        <ele>761.5</ele>
        <time>2022-05-01T15:18:21Z</time>
      </trkpt>
      <trkpt lat="46.82939" lon="5.98519">
        <ele>760.5</ele>
        <time>2022-05-01T15:18:28Z</time>
      </trkpt>
      <trkpt lat="46.82942" lon="5.98523">
        <ele>759.3</ele>
        <time>2022-05-01T15:18:35Z</time>
      </trkpt>
      <trkpt lat="46.82948" lon="5.98527">
        <ele>757.7</ele>
        <time>2022-05-01T15:18:47Z</time>
      </trkpt>
      <trkpt lat="46.8295" lon="5.98532">
        <ele>756.8</ele>
        <time>2022-05-01T15:18:55Z</time>
      </trkpt>
      <trkpt lat="46.82953" lon="5.9854">
        <ele>756.7</ele>
        <time>2022-05-01T15:19:00Z</time>
      </trkpt>
      <trkpt lat="46.8296" lon="5.98545">
        <ele>756.7</ele>
        <time>2022-05-01T15:19:03Z</time>
      </trkpt>
      <trkpt lat="46.82965" lon="5.98549">
        <ele>756.5</ele>
        <time>2022-05-01T15:19:06Z</time>
      </trkpt>
      <trkpt lat="46.82969" lon="5.98553">
        <ele>756.1</ele>
        <time>2022-05-01T15:19:12Z</time>
      </trkpt>
      <trkpt lat="46.82973" lon="5.98555">
        <ele>756.2</ele>
        <time>2022-05-01T15:19:18Z</time>
      </trkpt>
      <trkpt lat="46.82978" lon="5.98558">
        <ele>757.5</ele>
        <time>2022-05-01T15:19:24Z</time>
      </trkpt>
      <trkpt lat="46.82976" lon="5.98566">
        <ele>758.5</ele>
        <time>2022-05-01T15:19:30Z</time>
      </trkpt>
      <trkpt lat="46.82977" lon="5.98573">
        <ele>759.7</ele>
        <time>2022-05-01T15:19:37Z</time>
      </trkpt>
      <trkpt lat="46.82977" lon="5.9858">
        <ele>760.6</ele>
        <time>2022-05-01T15:19:42Z</time>
      </trkpt>
      <trkpt lat="46.82981" lon="5.98585">
        <ele>761.3</ele>
        <time>2022-05-01T15:19:46Z</time>
      </trkpt>
      <trkpt lat="46.82984" lon="5.9859">
        <ele>761.3</ele>
        <time>2022-05-01T15:19:51Z</time>
      </trkpt>
      <trkpt lat="46.82984" lon="5.98597">
        <ele>761.7</ele>
        <time>2022-05-01T15:19:56Z</time>
      </trkpt>
      <trkpt lat="46.82987" lon="5.98603">
        <ele>761.8</ele>
        <time>2022-05-01T15:20:01Z</time>
      </trkpt>
      <trkpt lat="46.82992" lon="5.98609">
        <ele>761.9</ele>
        <time>2022-05-01T15:20:04Z</time>
      </trkpt>
      <trkpt lat="46.82997" lon="5.98614">
        <ele>761.8</ele>
        <time>2022-05-01T15:20:07Z</time>
      </trkpt>
      <trkpt lat="46.83" lon="5.98621">
        <ele>761.8</ele>
        <time>2022-05-01T15:20:10Z</time>
      </trkpt>
      <trkpt lat="46.83002" lon="5.98628">
        <ele>762</ele>
        <time>2022-05-01T15:20:13Z</time>
      </trkpt>
      <trkpt lat="46.83003" lon="5.98635">
        <ele>762.1</ele>
        <time>2022-05-01T15:20:16Z</time>
      </trkpt>
      <trkpt lat="46.83002" lon="5.98642">
        <ele>762.2</ele>
        <time>2022-05-01T15:20:20Z</time>
      </trkpt>
      <trkpt lat="46.83005" lon="5.98648">
        <ele>761.8</ele>
        <time>2022-05-01T15:20:25Z</time>
      </trkpt>
      <trkpt lat="46.8301" lon="5.9865">
        <ele>761.1</ele>
        <time>2022-05-01T15:20:30Z</time>
      </trkpt>
      <trkpt lat="46.83012" lon="5.98656">
        <ele>760.4</ele>
        <time>2022-05-01T15:20:34Z</time>
      </trkpt>
      <trkpt lat="46.83016" lon="5.98662">
        <ele>759.4</ele>
        <time>2022-05-01T15:20:39Z</time>
      </trkpt>
      <trkpt lat="46.83019" lon="5.98667">
        <ele>758.9</ele>
        <time>2022-05-01T15:20:44Z</time>
      </trkpt>
      <trkpt lat="46.83023" lon="5.98672">
        <ele>759</ele>
        <time>2022-05-01T15:20:48Z</time>
      </trkpt>
      <trkpt lat="46.83026" lon="5.98677">
        <ele>759.3</ele>
        <time>2022-05-01T15:20:52Z</time>
      </trkpt>
      <trkpt lat="46.83028" lon="5.98683">
        <ele>759.4</ele>
        <time>2022-05-01T15:20:56Z</time>
      </trkpt>
      <trkpt lat="46.83032" lon="5.98688">
        <ele>759.5</ele>
        <time>2022-05-01T15:21:02Z</time>
      </trkpt>
      <trkpt lat="46.83035" lon="5.98693">
        <ele>759.4</ele>
        <time>2022-05-01T15:21:05Z</time>
      </trkpt>
      <trkpt lat="46.83038" lon="5.98698">
        <ele>759.2</ele>
        <time>2022-05-01T15:21:09Z</time>
      </trkpt>
      <trkpt lat="46.8304" lon="5.98706">
        <ele>759.5</ele>
        <time>2022-05-01T15:21:14Z</time>
      </trkpt>
      <trkpt lat="46.83039" lon="5.98714">
        <ele>760</ele>
        <time>2022-05-01T15:21:17Z</time>
      </trkpt>
      <trkpt lat="46.83039" lon="5.98721">
        <ele>760.4</ele>
        <time>2022-05-01T15:21:20Z</time>
      </trkpt>
      <trkpt lat="46.8304" lon="5.98727">
        <ele>761</ele>
        <time>2022-05-01T15:21:25Z</time>
      </trkpt>
      <trkpt lat="46.83043" lon="5.98733">
        <ele>761.7</ele>
        <time>2022-05-01T15:21:30Z</time>
      </trkpt>
      <trkpt lat="46.83044" lon="5.9874">
        <ele>762.5</ele>
        <time>2022-05-01T15:21:34Z</time>
      </trkpt>
      <trkpt lat="46.83046" lon="5.98748">
        <ele>763.2</ele>
        <time>2022-05-01T15:21:39Z</time>
      </trkpt>
      <trkpt lat="46.83048" lon="5.98754">
        <ele>763.6</ele>
        <time>2022-05-01T15:21:43Z</time>
      </trkpt>
      <trkpt lat="46.83048" lon="5.98762">
        <ele>763.9</ele>
        <time>2022-05-01T15:21:47Z</time>
      </trkpt>
      <trkpt lat="46.83048" lon="5.98769">
        <ele>764.2</ele>
        <time>2022-05-01T15:21:51Z</time>
      </trkpt>
      <trkpt lat="46.83048" lon="5.98775">
        <ele>764.4</ele>
        <time>2022-05-01T15:21:56Z</time>
      </trkpt>
      <trkpt lat="46.8305" lon="5.98783">
        <ele>764.7</ele>
        <time>2022-05-01T15:22:02Z</time>
      </trkpt>
      <trkpt lat="46.83052" lon="5.98789">
        <ele>765</ele>
        <time>2022-05-01T15:22:08Z</time>
      </trkpt>
      <trkpt lat="46.83053" lon="5.98796">
        <ele>765.2</ele>
        <time>2022-05-01T15:22:12Z</time>
      </trkpt>
      <trkpt lat="46.83052" lon="5.98803">
        <ele>764</ele>
        <time>2022-05-01T15:22:24Z</time>
      </trkpt>
      <trkpt lat="46.83054" lon="5.98809">
        <ele>763.8</ele>
        <time>2022-05-01T15:22:29Z</time>
      </trkpt>
      <trkpt lat="46.83058" lon="5.98805">
        <ele>769.8</ele>
        <time>2022-05-01T15:22:52Z</time>
      </trkpt>
      <trkpt lat="46.83058" lon="5.98813">
        <ele>772.4</ele>
        <time>2022-05-01T15:23:13Z</time>
      </trkpt>
      <trkpt lat="46.83056" lon="5.98819">
        <ele>772.7</ele>
        <time>2022-05-01T15:23:17Z</time>
      </trkpt>
      <trkpt lat="46.83056" lon="5.98813">
        <ele>775.9</ele>
        <time>2022-05-01T15:23:33Z</time>
      </trkpt>
      <trkpt lat="46.83058" lon="5.9882">
        <ele>782.4</ele>
        <time>2022-05-01T15:23:57Z</time>
      </trkpt>
      <trkpt lat="46.8306" lon="5.98825">
        <ele>782.6</ele>
        <time>2022-05-01T15:24:01Z</time>
      </trkpt>
      <trkpt lat="46.83063" lon="5.98832">
        <ele>782.6</ele>
        <time>2022-05-01T15:24:06Z</time>
      </trkpt>
      <trkpt lat="46.83064" lon="5.9884">
        <ele>782.5</ele>
        <time>2022-05-01T15:24:11Z</time>
      </trkpt>
      <trkpt lat="46.83063" lon="5.98846">
        <ele>782.7</ele>
        <time>2022-05-01T15:24:16Z</time>
      </trkpt>
      <trkpt lat="46.83064" lon="5.98853">
        <ele>782.6</ele>
        <time>2022-05-01T15:24:21Z</time>
      </trkpt>
      <trkpt lat="46.83066" lon="5.98859">
        <ele>783.1</ele>
        <time>2022-05-01T15:24:30Z</time>
      </trkpt>
      <trkpt lat="46.8307" lon="5.98865">
        <ele>783.5</ele>
        <time>2022-05-01T15:24:38Z</time>
      </trkpt>
      <trkpt lat="46.83072" lon="5.98873">
        <ele>783.8</ele>
        <time>2022-05-01T15:24:42Z</time>
      </trkpt>
      <trkpt lat="46.83075" lon="5.98878">
        <ele>784</ele>
        <time>2022-05-01T15:24:46Z</time>
      </trkpt>
      <trkpt lat="46.83076" lon="5.98886">
        <ele>783.5</ele>
        <time>2022-05-01T15:24:52Z</time>
      </trkpt>
      <trkpt lat="46.83078" lon="5.98893">
        <ele>782.4</ele>
        <time>2022-05-01T15:24:57Z</time>
      </trkpt>
      <trkpt lat="46.83078" lon="5.989">
        <ele>780.3</ele>
        <time>2022-05-01T15:25:03Z</time>
      </trkpt>
      <trkpt lat="46.8308" lon="5.98906">
        <ele>778.1</ele>
        <time>2022-05-01T15:25:08Z</time>
      </trkpt>
      <trkpt lat="46.83084" lon="5.9891">
        <ele>777</ele>
        <time>2022-05-01T15:25:12Z</time>
      </trkpt>
      <trkpt lat="46.83088" lon="5.98915">
        <ele>776.3</ele>
        <time>2022-05-01T15:25:15Z</time>
      </trkpt>
      <trkpt lat="46.83091" lon="5.98922">
        <ele>775.8</ele>
        <time>2022-05-01T15:25:18Z</time>
      </trkpt>
      <trkpt lat="46.83094" lon="5.98929">
        <ele>775.4</ele>
        <time>2022-05-01T15:25:22Z</time>
      </trkpt>
      <trkpt lat="46.83097" lon="5.98936">
        <ele>775.5</ele>
        <time>2022-05-01T15:25:26Z</time>
      </trkpt>
      <trkpt lat="46.831" lon="5.98941">
        <ele>776.6</ele>
        <time>2022-05-01T15:25:33Z</time>
      </trkpt>
      <trkpt lat="46.83099" lon="5.98949">
        <ele>777.7</ele>
        <time>2022-05-01T15:25:38Z</time>
      </trkpt>
      <trkpt lat="46.83098" lon="5.98956">
        <ele>778.3</ele>
        <time>2022-05-01T15:25:41Z</time>
      </trkpt>
      <trkpt lat="46.83097" lon="5.98963">
        <ele>778.5</ele>
        <time>2022-05-01T15:25:45Z</time>
      </trkpt>
      <trkpt lat="46.83096" lon="5.9897">
        <ele>779.5</ele>
        <time>2022-05-01T15:25:53Z</time>
      </trkpt>
      <trkpt lat="46.831" lon="5.98974">
        <ele>780.7</ele>
        <time>2022-05-01T15:25:58Z</time>
      </trkpt>
      <trkpt lat="46.83104" lon="5.98978">
        <ele>781.2</ele>
        <time>2022-05-01T15:26:02Z</time>
      </trkpt>
      <trkpt lat="46.83108" lon="5.98982">
        <ele>781.5</ele>
        <time>2022-05-01T15:26:07Z</time>
      </trkpt>
      <trkpt lat="46.83111" lon="5.98986">
        <ele>782.1</ele>
        <time>2022-05-01T15:26:12Z</time>
      </trkpt>
      <trkpt lat="46.83111" lon="5.98993">
        <ele>783.4</ele>
        <time>2022-05-01T15:26:17Z</time>
      </trkpt>
      <trkpt lat="46.83112" lon="5.99">
        <ele>784.5</ele>
        <time>2022-05-01T15:26:23Z</time>
      </trkpt>
      <trkpt lat="46.83113" lon="5.99007">
        <ele>785</ele>
        <time>2022-05-01T15:26:27Z</time>
      </trkpt>
      <trkpt lat="46.83113" lon="5.99013">
        <ele>785.5</ele>
        <time>2022-05-01T15:26:31Z</time>
      </trkpt>
      <trkpt lat="46.8311" lon="5.99022">
        <ele>785.6</ele>
        <time>2022-05-01T15:26:34Z</time>
      </trkpt>
      <trkpt lat="46.83108" lon="5.9903">
        <ele>785.6</ele>
        <time>2022-05-01T15:26:37Z</time>
      </trkpt>
      <trkpt lat="46.83107" lon="5.99036">
        <ele>785.1</ele>
        <time>2022-05-01T15:26:41Z</time>
      </trkpt>
      <trkpt lat="46.83109" lon="5.99043">
        <ele>782.8</ele>
        <time>2022-05-01T15:26:47Z</time>
      </trkpt>
      <trkpt lat="46.8311" lon="5.9905">
        <ele>780.5</ele>
        <time>2022-05-01T15:26:54Z</time>
      </trkpt>
      <trkpt lat="46.8311" lon="5.99057">
        <ele>777.9</ele>
        <time>2022-05-01T15:27:00Z</time>
      </trkpt>
      <trkpt lat="46.83109" lon="5.99066">
        <ele>776.8</ele>
        <time>2022-05-01T15:27:03Z</time>
      </trkpt>
      <trkpt lat="46.8311" lon="5.99074">
        <ele>775.3</ele>
        <time>2022-05-01T15:27:07Z</time>
      </trkpt>
      <trkpt lat="46.83111" lon="5.99083">
        <ele>774.7</ele>
        <time>2022-05-01T15:27:11Z</time>
      </trkpt>
      <trkpt lat="46.8311" lon="5.99091">
        <ele>774.1</ele>
        <time>2022-05-01T15:27:15Z</time>
      </trkpt>
      <trkpt lat="46.83111" lon="5.99097">
        <ele>773.3</ele>
        <time>2022-05-01T15:27:22Z</time>
      </trkpt>
      <trkpt lat="46.83112" lon="5.99105">
        <ele>772</ele>
        <time>2022-05-01T15:27:28Z</time>
      </trkpt>
      <trkpt lat="46.83113" lon="5.99112">
        <ele>769.9</ele>
        <time>2022-05-01T15:27:34Z</time>
      </trkpt>
      <trkpt lat="46.83113" lon="5.99119">
        <ele>768</ele>
        <time>2022-05-01T15:27:40Z</time>
      </trkpt>
      <trkpt lat="46.83113" lon="5.99125">
        <ele>767.1</ele>
        <time>2022-05-01T15:27:45Z</time>
      </trkpt>
      <trkpt lat="46.83114" lon="5.99133">
        <ele>766.9</ele>
        <time>2022-05-01T15:27:53Z</time>
      </trkpt>
      <trkpt lat="46.83115" lon="5.99141">
        <ele>767.9</ele>
        <time>2022-05-01T15:28:01Z</time>
      </trkpt>
      <trkpt lat="46.83117" lon="5.9915">
        <ele>769.5</ele>
        <time>2022-05-01T15:28:14Z</time>
      </trkpt>
      <trkpt lat="46.83118" lon="5.99157">
        <ele>769.5</ele>
        <time>2022-05-01T15:28:19Z</time>
      </trkpt>
      <trkpt lat="46.83116" lon="5.99163">
        <ele>769.3</ele>
        <time>2022-05-01T15:28:28Z</time>
      </trkpt>
      <trkpt lat="46.83117" lon="5.9917">
        <ele>768.6</ele>
        <time>2022-05-01T15:28:34Z</time>
      </trkpt>
      <trkpt lat="46.8312" lon="5.99175">
        <ele>768.4</ele>
        <time>2022-05-01T15:28:39Z</time>
      </trkpt>
      <trkpt lat="46.83124" lon="5.9918">
        <ele>768.3</ele>
        <time>2022-05-01T15:28:45Z</time>
      </trkpt>
      <trkpt lat="46.83123" lon="5.99187">
        <ele>767.9</ele>
        <time>2022-05-01T15:28:52Z</time>
      </trkpt>
      <trkpt lat="46.8312" lon="5.99194">
        <ele>768</ele>
        <time>2022-05-01T15:28:58Z</time>
      </trkpt>
      <trkpt lat="46.83117" lon="5.99199">
        <ele>767.8</ele>
        <time>2022-05-01T15:29:03Z</time>
      </trkpt>
      <trkpt lat="46.83115" lon="5.99205">
        <ele>767.8</ele>
        <time>2022-05-01T15:29:09Z</time>
      </trkpt>
      <trkpt lat="46.83117" lon="5.99212">
        <ele>768.4</ele>
        <time>2022-05-01T15:29:14Z</time>
      </trkpt>
      <trkpt lat="46.83119" lon="5.99219">
        <ele>769.6</ele>
        <time>2022-05-01T15:29:20Z</time>
      </trkpt>
      <trkpt lat="46.83119" lon="5.99226">
        <ele>771</ele>
        <time>2022-05-01T15:29:26Z</time>
      </trkpt>
      <trkpt lat="46.83119" lon="5.99233">
        <ele>772.1</ele>
        <time>2022-05-01T15:29:35Z</time>
      </trkpt>
      <trkpt lat="46.83122" lon="5.99239">
        <ele>772.9</ele>
        <time>2022-05-01T15:29:41Z</time>
      </trkpt>
      <trkpt lat="46.83124" lon="5.99245">
        <ele>773.8</ele>
        <time>2022-05-01T15:29:45Z</time>
      </trkpt>
      <trkpt lat="46.83124" lon="5.99252">
        <ele>774.5</ele>
        <time>2022-05-01T15:29:49Z</time>
      </trkpt>
      <trkpt lat="46.83123" lon="5.99259">
        <ele>775.4</ele>
        <time>2022-05-01T15:29:56Z</time>
      </trkpt>
      <trkpt lat="46.83123" lon="5.99266">
        <ele>776.8</ele>
        <time>2022-05-01T15:30:02Z</time>
      </trkpt>
      <trkpt lat="46.83128" lon="5.99271">
        <ele>780.3</ele>
        <time>2022-05-01T15:30:13Z</time>
      </trkpt>
      <trkpt lat="46.83132" lon="5.99277">
        <ele>782</ele>
        <time>2022-05-01T15:30:19Z</time>
      </trkpt>
      <trkpt lat="46.83135" lon="5.99283">
        <ele>783</ele>
        <time>2022-05-01T15:30:24Z</time>
      </trkpt>
      <trkpt lat="46.83138" lon="5.99289">
        <ele>783.9</ele>
        <time>2022-05-01T15:30:28Z</time>
      </trkpt>
      <trkpt lat="46.83138" lon="5.99296">
        <ele>784.8</ele>
        <time>2022-05-01T15:30:32Z</time>
      </trkpt>
      <trkpt lat="46.83137" lon="5.99304">
        <ele>785.5</ele>
        <time>2022-05-01T15:30:37Z</time>
      </trkpt>
      <trkpt lat="46.83134" lon="5.99309">
        <ele>786.4</ele>
        <time>2022-05-01T15:30:41Z</time>
      </trkpt>
      <trkpt lat="46.83131" lon="5.99316">
        <ele>787.3</ele>
        <time>2022-05-01T15:30:45Z</time>
      </trkpt>
      <trkpt lat="46.83129" lon="5.99323">
        <ele>788.6</ele>
        <time>2022-05-01T15:30:53Z</time>
      </trkpt>
      <trkpt lat="46.8313" lon="5.9933">
        <ele>788.7</ele>
        <time>2022-05-01T15:30:58Z</time>
      </trkpt>
      <trkpt lat="46.83133" lon="5.99335">
        <ele>788.4</ele>
        <time>2022-05-01T15:31:02Z</time>
      </trkpt>
      <trkpt lat="46.83137" lon="5.99341">
        <ele>788.3</ele>
        <time>2022-05-01T15:31:07Z</time>
      </trkpt>
      <trkpt lat="46.83138" lon="5.99348">
        <ele>788.5</ele>
        <time>2022-05-01T15:31:11Z</time>
      </trkpt>
      <trkpt lat="46.83139" lon="5.99355">
        <ele>789.8</ele>
        <time>2022-05-01T15:31:17Z</time>
      </trkpt>
      <trkpt lat="46.83142" lon="5.9936">
        <ele>791.2</ele>
        <time>2022-05-01T15:31:21Z</time>
      </trkpt>
      <trkpt lat="46.83145" lon="5.99366">
        <ele>793.3</ele>
        <time>2022-05-01T15:31:26Z</time>
      </trkpt>
      <trkpt lat="46.83148" lon="5.99371">
        <ele>795.9</ele>
        <time>2022-05-01T15:31:32Z</time>
      </trkpt>
      <trkpt lat="46.83145" lon="5.99377">
        <ele>798.2</ele>
        <time>2022-05-01T15:31:37Z</time>
      </trkpt>
      <trkpt lat="46.83142" lon="5.99383">
        <ele>799.9</ele>
        <time>2022-05-01T15:31:42Z</time>
      </trkpt>
      <trkpt lat="46.83146" lon="5.99387">
        <ele>801</ele>
        <time>2022-05-01T15:31:46Z</time>
      </trkpt>
      <trkpt lat="46.83151" lon="5.99391">
        <ele>801.2</ele>
        <time>2022-05-01T15:31:49Z</time>
      </trkpt>
      <trkpt lat="46.83154" lon="5.99395">
        <ele>800</ele>
        <time>2022-05-01T15:31:52Z</time>
      </trkpt>
      <trkpt lat="46.83156" lon="5.99403">
        <ele>798.9</ele>
        <time>2022-05-01T15:31:56Z</time>
      </trkpt>
      <trkpt lat="46.83157" lon="5.9941">
        <ele>797.6</ele>
        <time>2022-05-01T15:32:01Z</time>
      </trkpt>
      <trkpt lat="46.83155" lon="5.99417">
        <ele>796.6</ele>
        <time>2022-05-01T15:32:06Z</time>
      </trkpt>
      <trkpt lat="46.83155" lon="5.99424">
        <ele>795.3</ele>
        <time>2022-05-01T15:32:13Z</time>
      </trkpt>
      <trkpt lat="46.83156" lon="5.99431">
        <ele>794.4</ele>
        <time>2022-05-01T15:32:20Z</time>
      </trkpt>
      <trkpt lat="46.83156" lon="5.99439">
        <ele>794.1</ele>
        <time>2022-05-01T15:32:25Z</time>
      </trkpt>
      <trkpt lat="46.83155" lon="5.99447">
        <ele>794.5</ele>
        <time>2022-05-01T15:32:30Z</time>
      </trkpt>
      <trkpt lat="46.83156" lon="5.99453">
        <ele>794.5</ele>
        <time>2022-05-01T15:32:37Z</time>
      </trkpt>
      <trkpt lat="46.83152" lon="5.99459">
        <ele>794.1</ele>
        <time>2022-05-01T15:32:42Z</time>
      </trkpt>
      <trkpt lat="46.8315" lon="5.99465">
        <ele>793.8</ele>
        <time>2022-05-01T15:32:47Z</time>
      </trkpt>
      <trkpt lat="46.8315" lon="5.99472">
        <ele>793.6</ele>
        <time>2022-05-01T15:32:53Z</time>
      </trkpt>
      <trkpt lat="46.83153" lon="5.99479">
        <ele>793.7</ele>
        <time>2022-05-01T15:32:59Z</time>
      </trkpt>
      <trkpt lat="46.83154" lon="5.99485">
        <ele>793.9</ele>
        <time>2022-05-01T15:33:05Z</time>
      </trkpt>
      <trkpt lat="46.83156" lon="5.99492">
        <ele>794.8</ele>
        <time>2022-05-01T15:33:09Z</time>
      </trkpt>
      <trkpt lat="46.8316" lon="5.99498">
        <ele>795.1</ele>
        <time>2022-05-01T15:33:15Z</time>
      </trkpt>
      <trkpt lat="46.83163" lon="5.99502">
        <ele>794.7</ele>
        <time>2022-05-01T15:33:19Z</time>
      </trkpt>
      <trkpt lat="46.83167" lon="5.99507">
        <ele>794.5</ele>
        <time>2022-05-01T15:33:24Z</time>
      </trkpt>
      <trkpt lat="46.8317" lon="5.99512">
        <ele>794.1</ele>
        <time>2022-05-01T15:33:30Z</time>
      </trkpt>
      <trkpt lat="46.83175" lon="5.99516">
        <ele>794.1</ele>
        <time>2022-05-01T15:33:35Z</time>
      </trkpt>
      <trkpt lat="46.83179" lon="5.9952">
        <ele>794.5</ele>
        <time>2022-05-01T15:33:39Z</time>
      </trkpt>
      <trkpt lat="46.83181" lon="5.99526">
        <ele>794.9</ele>
        <time>2022-05-01T15:33:44Z</time>
      </trkpt>
      <trkpt lat="46.83181" lon="5.99534">
        <ele>795.3</ele>
        <time>2022-05-01T15:33:49Z</time>
      </trkpt>
      <trkpt lat="46.83181" lon="5.99541">
        <ele>795.4</ele>
        <time>2022-05-01T15:33:54Z</time>
      </trkpt>
      <trkpt lat="46.83182" lon="5.99548">
        <ele>795.6</ele>
        <time>2022-05-01T15:33:58Z</time>
      </trkpt>
      <trkpt lat="46.83182" lon="5.99556">
        <ele>795.8</ele>
        <time>2022-05-01T15:34:02Z</time>
      </trkpt>
      <trkpt lat="46.83184" lon="5.99563">
        <ele>796.2</ele>
        <time>2022-05-01T15:34:06Z</time>
      </trkpt>
      <trkpt lat="46.83185" lon="5.99571">
        <ele>796.6</ele>
        <time>2022-05-01T15:34:10Z</time>
      </trkpt>
      <trkpt lat="46.83186" lon="5.99578">
        <ele>797.2</ele>
        <time>2022-05-01T15:34:14Z</time>
      </trkpt>
      <trkpt lat="46.83186" lon="5.99586">
        <ele>798</ele>
        <time>2022-05-01T15:34:19Z</time>
      </trkpt>
      <trkpt lat="46.83187" lon="5.99594">
        <ele>798.7</ele>
        <time>2022-05-01T15:34:24Z</time>
      </trkpt>
      <trkpt lat="46.83186" lon="5.99601">
        <ele>799.1</ele>
        <time>2022-05-01T15:34:29Z</time>
      </trkpt>
      <trkpt lat="46.83185" lon="5.99608">
        <ele>799.5</ele>
        <time>2022-05-01T15:34:34Z</time>
      </trkpt>
      <trkpt lat="46.83185" lon="5.99614">
        <ele>799.9</ele>
        <time>2022-05-01T15:34:38Z</time>
      </trkpt>
      <trkpt lat="46.83184" lon="5.99622">
        <ele>799.9</ele>
        <time>2022-05-01T15:34:42Z</time>
      </trkpt>
      <trkpt lat="46.83184" lon="5.9963">
        <ele>799.4</ele>
        <time>2022-05-01T15:34:47Z</time>
      </trkpt>
      <trkpt lat="46.83186" lon="5.99636">
        <ele>798.8</ele>
        <time>2022-05-01T15:34:53Z</time>
      </trkpt>
      <trkpt lat="46.83187" lon="5.99643">
        <ele>798.6</ele>
        <time>2022-05-01T15:34:59Z</time>
      </trkpt>
      <trkpt lat="46.8319" lon="5.99649">
        <ele>798.3</ele>
        <time>2022-05-01T15:35:05Z</time>
      </trkpt>
      <trkpt lat="46.83191" lon="5.99656">
        <ele>798.5</ele>
        <time>2022-05-01T15:35:09Z</time>
      </trkpt>
      <trkpt lat="46.83192" lon="5.99663">
        <ele>798.9</ele>
        <time>2022-05-01T15:35:13Z</time>
      </trkpt>
      <trkpt lat="46.83191" lon="5.9967">
        <ele>798.9</ele>
        <time>2022-05-01T15:35:18Z</time>
      </trkpt>
      <trkpt lat="46.83189" lon="5.99678">
        <ele>799</ele>
        <time>2022-05-01T15:35:25Z</time>
      </trkpt>
      <trkpt lat="46.83187" lon="5.99687">
        <ele>799.1</ele>
        <time>2022-05-01T15:35:29Z</time>
      </trkpt>
      <trkpt lat="46.83184" lon="5.99695">
        <ele>799.2</ele>
        <time>2022-05-01T15:35:32Z</time>
      </trkpt>
      <trkpt lat="46.83183" lon="5.99703">
        <ele>799.4</ele>
        <time>2022-05-01T15:35:36Z</time>
      </trkpt>
      <trkpt lat="46.83185" lon="5.9971">
        <ele>799.7</ele>
        <time>2022-05-01T15:35:40Z</time>
      </trkpt>
      <trkpt lat="46.83183" lon="5.99717">
        <ele>799.9</ele>
        <time>2022-05-01T15:35:45Z</time>
      </trkpt>
      <trkpt lat="46.83183" lon="5.99724">
        <ele>800.1</ele>
        <time>2022-05-01T15:35:49Z</time>
      </trkpt>
      <trkpt lat="46.83185" lon="5.99732">
        <ele>800</ele>
        <time>2022-05-01T15:35:54Z</time>
      </trkpt>
      <trkpt lat="46.83183" lon="5.99739">
        <ele>799.6</ele>
        <time>2022-05-01T15:35:57Z</time>
      </trkpt>
      <trkpt lat="46.8318" lon="5.99746">
        <ele>799.3</ele>
        <time>2022-05-01T15:36:00Z</time>
      </trkpt>
      <trkpt lat="46.83178" lon="5.99753">
        <ele>799.2</ele>
        <time>2022-05-01T15:36:04Z</time>
      </trkpt>
      <trkpt lat="46.83174" lon="5.99758">
        <ele>799.3</ele>
        <time>2022-05-01T15:36:07Z</time>
      </trkpt>
      <trkpt lat="46.83171" lon="5.99764">
        <ele>799.6</ele>
        <time>2022-05-01T15:36:10Z</time>
      </trkpt>
      <trkpt lat="46.83169" lon="5.99771">
        <ele>799.9</ele>
        <time>2022-05-01T15:36:14Z</time>
      </trkpt>
      <trkpt lat="46.83168" lon="5.99779">
        <ele>800.2</ele>
        <time>2022-05-01T15:36:19Z</time>
      </trkpt>
      <trkpt lat="46.83169" lon="5.99786">
        <ele>800.4</ele>
        <time>2022-05-01T15:36:23Z</time>
      </trkpt>
      <trkpt lat="46.8317" lon="5.99793">
        <ele>800.6</ele>
        <time>2022-05-01T15:36:27Z</time>
      </trkpt>
      <trkpt lat="46.83171" lon="5.998">
        <ele>800.7</ele>
        <time>2022-05-01T15:36:31Z</time>
      </trkpt>
      <trkpt lat="46.83172" lon="5.99808">
        <ele>800.4</ele>
        <time>2022-05-01T15:36:36Z</time>
      </trkpt>
      <trkpt lat="46.83172" lon="5.99815">
        <ele>799.5</ele>
        <time>2022-05-01T15:36:41Z</time>
      </trkpt>
      <trkpt lat="46.83174" lon="5.99822">
        <ele>798.9</ele>
        <time>2022-05-01T15:36:46Z</time>
      </trkpt>
      <trkpt lat="46.83172" lon="5.99828">
        <ele>798.5</ele>
        <time>2022-05-01T15:36:51Z</time>
      </trkpt>
      <trkpt lat="46.83169" lon="5.99835">
        <ele>798</ele>
        <time>2022-05-01T15:36:55Z</time>
      </trkpt>
      <trkpt lat="46.83169" lon="5.99842">
        <ele>797.5</ele>
        <time>2022-05-01T15:37:00Z</time>
      </trkpt>
      <trkpt lat="46.83168" lon="5.99849">
        <ele>796.8</ele>
        <time>2022-05-01T15:37:06Z</time>
      </trkpt>
      <trkpt lat="46.8317" lon="5.99855">
        <ele>796.2</ele>
        <time>2022-05-01T15:37:10Z</time>
      </trkpt>
      <trkpt lat="46.83173" lon="5.99861">
        <ele>795.6</ele>
        <time>2022-05-01T15:37:13Z</time>
      </trkpt>
      <trkpt lat="46.83175" lon="5.99868">
        <ele>794.8</ele>
        <time>2022-05-01T15:37:17Z</time>
      </trkpt>
      <trkpt lat="46.83177" lon="5.99875">
        <ele>793.6</ele>
        <time>2022-05-01T15:37:23Z</time>
      </trkpt>
      <trkpt lat="46.83179" lon="5.99881">
        <ele>793</ele>
        <time>2022-05-01T15:37:29Z</time>
      </trkpt>
      <trkpt lat="46.83182" lon="5.99888">
        <ele>793.1</ele>
        <time>2022-05-01T15:37:33Z</time>
      </trkpt>
      <trkpt lat="46.83185" lon="5.99895">
        <ele>793.3</ele>
        <time>2022-05-01T15:37:36Z</time>
      </trkpt>
      <trkpt lat="46.83188" lon="5.99901">
        <ele>793.6</ele>
        <time>2022-05-01T15:37:39Z</time>
      </trkpt>
      <trkpt lat="46.83188" lon="5.9991">
        <ele>794.5</ele>
        <time>2022-05-01T15:37:43Z</time>
      </trkpt>
      <trkpt lat="46.83188" lon="5.99917">
        <ele>795.2</ele>
        <time>2022-05-01T15:37:46Z</time>
      </trkpt>
      <trkpt lat="46.83189" lon="5.99924">
        <ele>796.2</ele>
        <time>2022-05-01T15:37:50Z</time>
      </trkpt>
      <trkpt lat="46.83189" lon="5.99932">
        <ele>797</ele>
        <time>2022-05-01T15:37:54Z</time>
      </trkpt>
      <trkpt lat="46.83191" lon="5.99939">
        <ele>797.8</ele>
        <time>2022-05-01T15:37:59Z</time>
      </trkpt>
      <trkpt lat="46.83191" lon="5.99946">
        <ele>798.5</ele>
        <time>2022-05-01T15:38:03Z</time>
      </trkpt>
      <trkpt lat="46.8319" lon="5.99954">
        <ele>799.2</ele>
        <time>2022-05-01T15:38:07Z</time>
      </trkpt>
      <trkpt lat="46.8319" lon="5.99961">
        <ele>799.6</ele>
        <time>2022-05-01T15:38:11Z</time>
      </trkpt>
      <trkpt lat="46.83191" lon="5.99967">
        <ele>799.5</ele>
        <time>2022-05-01T15:38:15Z</time>
      </trkpt>
      <trkpt lat="46.83192" lon="5.99974">
        <ele>799</ele>
        <time>2022-05-01T15:38:20Z</time>
      </trkpt>
      <trkpt lat="46.83195" lon="5.99979">
        <ele>798.4</ele>
        <time>2022-05-01T15:38:24Z</time>
      </trkpt>
      <trkpt lat="46.83198" lon="5.99985">
        <ele>797.8</ele>
        <time>2022-05-01T15:38:28Z</time>
      </trkpt>
      <trkpt lat="46.83202" lon="5.99991">
        <ele>797.3</ele>
        <time>2022-05-01T15:38:32Z</time>
      </trkpt>
      <trkpt lat="46.83205" lon="5.99998">
        <ele>797</ele>
        <time>2022-05-01T15:38:36Z</time>
      </trkpt>
      <trkpt lat="46.83205" lon="6.00006">
        <ele>796.6</ele>
        <time>2022-05-01T15:38:41Z</time>
      </trkpt>
      <trkpt lat="46.83207" lon="6.00013">
        <ele>795.9</ele>
        <time>2022-05-01T15:38:47Z</time>
      </trkpt>
      <trkpt lat="46.83209" lon="6.0002">
        <ele>794.9</ele>
        <time>2022-05-01T15:38:52Z</time>
      </trkpt>
      <trkpt lat="46.83213" lon="6.00025">
        <ele>794.7</ele>
        <time>2022-05-01T15:38:56Z</time>
      </trkpt>
      <trkpt lat="46.83217" lon="6.00029">
        <ele>794.5</ele>
        <time>2022-05-01T15:39:00Z</time>
      </trkpt>
      <trkpt lat="46.83219" lon="6.00036">
        <ele>793.6</ele>
        <time>2022-05-01T15:39:06Z</time>
      </trkpt>
      <trkpt lat="46.8322" lon="6.00043">
        <ele>793.1</ele>
        <time>2022-05-01T15:39:11Z</time>
      </trkpt>
      <trkpt lat="46.8322" lon="6.0005">
        <ele>792.9</ele>
        <time>2022-05-01T15:39:15Z</time>
      </trkpt>
      <trkpt lat="46.8322" lon="6.00058">
        <ele>792.8</ele>
        <time>2022-05-01T15:39:20Z</time>
      </trkpt>
      <trkpt lat="46.8322" lon="6.00067">
        <ele>792.7</ele>
        <time>2022-05-01T15:39:24Z</time>
      </trkpt>
      <trkpt lat="46.83219" lon="6.00074">
        <ele>792.3</ele>
        <time>2022-05-01T15:39:27Z</time>
      </trkpt>
      <trkpt lat="46.83219" lon="6.00081">
        <ele>791.4</ele>
        <time>2022-05-01T15:39:31Z</time>
      </trkpt>
      <trkpt lat="46.83221" lon="6.00088">
        <ele>790</ele>
        <time>2022-05-01T15:39:37Z</time>
      </trkpt>
      <trkpt lat="46.83225" lon="6.00094">
        <ele>789.6</ele>
        <time>2022-05-01T15:39:41Z</time>
      </trkpt>
      <trkpt lat="46.83228" lon="6.00101">
        <ele>789.8</ele>
        <time>2022-05-01T15:39:45Z</time>
      </trkpt>
      <trkpt lat="46.8323" lon="6.00107">
        <ele>789.6</ele>
        <time>2022-05-01T15:39:49Z</time>
      </trkpt>
      <trkpt lat="46.83232" lon="6.00112">
        <ele>789.4</ele>
        <time>2022-05-01T15:39:53Z</time>
      </trkpt>
      <trkpt lat="46.83233" lon="6.0012">
        <ele>789.7</ele>
        <time>2022-05-01T15:39:57Z</time>
      </trkpt>
      <trkpt lat="46.83233" lon="6.00127">
        <ele>790.6</ele>
        <time>2022-05-01T15:40:01Z</time>
      </trkpt>
      <trkpt lat="46.83233" lon="6.00134">
        <ele>791.6</ele>
        <time>2022-05-01T15:40:06Z</time>
      </trkpt>
      <trkpt lat="46.83234" lon="6.00141">
        <ele>792.4</ele>
        <time>2022-05-01T15:40:10Z</time>
      </trkpt>
      <trkpt lat="46.83236" lon="6.00148">
        <ele>793.5</ele>
        <time>2022-05-01T15:40:14Z</time>
      </trkpt>
      <trkpt lat="46.83239" lon="6.00154">
        <ele>794.6</ele>
        <time>2022-05-01T15:40:18Z</time>
      </trkpt>
      <trkpt lat="46.83242" lon="6.00159">
        <ele>795.6</ele>
        <time>2022-05-01T15:40:22Z</time>
      </trkpt>
      <trkpt lat="46.83244" lon="6.00166">
        <ele>796.6</ele>
        <time>2022-05-01T15:40:26Z</time>
      </trkpt>
      <trkpt lat="46.83249" lon="6.00169">
        <ele>798.4</ele>
        <time>2022-05-01T15:40:31Z</time>
      </trkpt>
      <trkpt lat="46.83255" lon="6.00171">
        <ele>800</ele>
        <time>2022-05-01T15:40:35Z</time>
      </trkpt>
      <trkpt lat="46.8326" lon="6.00174">
        <ele>801.3</ele>
        <time>2022-05-01T15:40:39Z</time>
      </trkpt>
      <trkpt lat="46.83264" lon="6.00177">
        <ele>802.5</ele>
        <time>2022-05-01T15:40:43Z</time>
      </trkpt>
      <trkpt lat="46.83269" lon="6.00182">
        <ele>805.2</ele>
        <time>2022-05-01T15:40:49Z</time>
      </trkpt>
      <trkpt lat="46.83275" lon="6.00183">
        <ele>806.8</ele>
        <time>2022-05-01T15:40:53Z</time>
      </trkpt>
      <trkpt lat="46.8328" lon="6.00185">
        <ele>807.6</ele>
        <time>2022-05-01T15:40:57Z</time>
      </trkpt>
      <trkpt lat="46.83286" lon="6.00188">
        <ele>808.2</ele>
        <time>2022-05-01T15:41:00Z</time>
      </trkpt>
      <trkpt lat="46.83292" lon="6.00191">
        <ele>808.9</ele>
        <time>2022-05-01T15:41:03Z</time>
      </trkpt>
      <trkpt lat="46.83296" lon="6.00193">
        <ele>809.9</ele>
        <time>2022-05-01T15:41:07Z</time>
      </trkpt>
      <trkpt lat="46.833" lon="6.00196">
        <ele>811.4</ele>
        <time>2022-05-01T15:41:15Z</time>
      </trkpt>
      <trkpt lat="46.83305" lon="6.00197">
        <ele>811.8</ele>
        <time>2022-05-01T15:41:21Z</time>
      </trkpt>
      <trkpt lat="46.83309" lon="6.002">
        <ele>812.3</ele>
        <time>2022-05-01T15:41:27Z</time>
      </trkpt>
      <trkpt lat="46.83314" lon="6.00199">
        <ele>813</ele>
        <time>2022-05-01T15:41:31Z</time>
      </trkpt>
      <trkpt lat="46.83319" lon="6.002">
        <ele>813.7</ele>
        <time>2022-05-01T15:41:35Z</time>
      </trkpt>
      <trkpt lat="46.83324" lon="6.00202">
        <ele>814</ele>
        <time>2022-05-01T15:41:41Z</time>
      </trkpt>
      <trkpt lat="46.83329" lon="6.00205">
        <ele>814.1</ele>
        <time>2022-05-01T15:41:47Z</time>
      </trkpt>
      <trkpt lat="46.83333" lon="6.00208">
        <ele>813.9</ele>
        <time>2022-05-01T15:41:54Z</time>
      </trkpt>
      <trkpt lat="46.83338" lon="6.00211">
        <ele>813.6</ele>
        <time>2022-05-01T15:41:59Z</time>
      </trkpt>
      <trkpt lat="46.83343" lon="6.00214">
        <ele>813.4</ele>
        <time>2022-05-01T15:42:03Z</time>
      </trkpt>
      <trkpt lat="46.83347" lon="6.00216">
        <ele>813.2</ele>
        <time>2022-05-01T15:42:06Z</time>
      </trkpt>
      <trkpt lat="46.83352" lon="6.00218">
        <ele>812.7</ele>
        <time>2022-05-01T15:42:09Z</time>
      </trkpt>
      <trkpt lat="46.83357" lon="6.0022">
        <ele>811.9</ele>
        <time>2022-05-01T15:42:12Z</time>
      </trkpt>
      <trkpt lat="46.83363" lon="6.00222">
        <ele>811.2</ele>
        <time>2022-05-01T15:42:15Z</time>
      </trkpt>
      <trkpt lat="46.83367" lon="6.00224">
        <ele>810.5</ele>
        <time>2022-05-01T15:42:18Z</time>
      </trkpt>
      <trkpt lat="46.83372" lon="6.00228">
        <ele>809.6</ele>
        <time>2022-05-01T15:42:22Z</time>
      </trkpt>
      <trkpt lat="46.83376" lon="6.00231">
        <ele>809.3</ele>
        <time>2022-05-01T15:42:25Z</time>
      </trkpt>
      <trkpt lat="46.83382" lon="6.00233">
        <ele>808.4</ele>
        <time>2022-05-01T15:42:30Z</time>
      </trkpt>
      <trkpt lat="46.83386" lon="6.00236">
        <ele>807.5</ele>
        <time>2022-05-01T15:42:34Z</time>
      </trkpt>
      <trkpt lat="46.83392" lon="6.00238">
        <ele>806.9</ele>
        <time>2022-05-01T15:42:39Z</time>
      </trkpt>
      <trkpt lat="46.83395" lon="6.00242">
        <ele>806.1</ele>
        <time>2022-05-01T15:42:44Z</time>
      </trkpt>
      <trkpt lat="46.83398" lon="6.00247">
        <ele>804.5</ele>
        <time>2022-05-01T15:42:50Z</time>
      </trkpt>
      <trkpt lat="46.83402" lon="6.00253">
        <ele>803.6</ele>
        <time>2022-05-01T15:42:55Z</time>
      </trkpt>
      <trkpt lat="46.83407" lon="6.00256">
        <ele>803.3</ele>
        <time>2022-05-01T15:42:58Z</time>
      </trkpt>
      <trkpt lat="46.8341" lon="6.00262">
        <ele>802.2</ele>
        <time>2022-05-01T15:43:03Z</time>
      </trkpt>
      <trkpt lat="46.83414" lon="6.00268">
        <ele>799.6</ele>
        <time>2022-05-01T15:43:09Z</time>
      </trkpt>
      <trkpt lat="46.83419" lon="6.00269">
        <ele>798.4</ele>
        <time>2022-05-01T15:43:12Z</time>
      </trkpt>
      <trkpt lat="46.83424" lon="6.00272">
        <ele>797.8</ele>
        <time>2022-05-01T15:43:15Z</time>
      </trkpt>
      <trkpt lat="46.83429" lon="6.00276">
        <ele>797.2</ele>
        <time>2022-05-01T15:43:19Z</time>
      </trkpt>
      <trkpt lat="46.83433" lon="6.00279">
        <ele>796.4</ele>
        <time>2022-05-01T15:43:22Z</time>
      </trkpt>
      <trkpt lat="46.83438" lon="6.00281">
        <ele>795.5</ele>
        <time>2022-05-01T15:43:26Z</time>
      </trkpt>
      <trkpt lat="46.83442" lon="6.00284">
        <ele>794.1</ele>
        <time>2022-05-01T15:43:30Z</time>
      </trkpt>
      <trkpt lat="46.83447" lon="6.00287">
        <ele>791.9</ele>
        <time>2022-05-01T15:43:37Z</time>
      </trkpt>
      <trkpt lat="46.83452" lon="6.00289">
        <ele>790.9</ele>
        <time>2022-05-01T15:43:41Z</time>
      </trkpt>
      <trkpt lat="46.83455" lon="6.00295">
        <ele>789.8</ele>
        <time>2022-05-01T15:43:46Z</time>
      </trkpt>
      <trkpt lat="46.83459" lon="6.003">
        <ele>788.4</ele>
        <time>2022-05-01T15:43:53Z</time>
      </trkpt>
      <trkpt lat="46.83463" lon="6.00301">
        <ele>787.9</ele>
        <time>2022-05-01T15:43:56Z</time>
      </trkpt>
      <trkpt lat="46.83471" lon="6.003">
        <ele>787.7</ele>
        <time>2022-05-01T15:43:59Z</time>
      </trkpt>
      <trkpt lat="46.83477" lon="6.003">
        <ele>787.6</ele>
        <time>2022-05-01T15:44:02Z</time>
      </trkpt>
      <trkpt lat="46.83483" lon="6.00301">
        <ele>787.3</ele>
        <time>2022-05-01T15:44:05Z</time>
      </trkpt>
      <trkpt lat="46.83488" lon="6.00301">
        <ele>787</ele>
        <time>2022-05-01T15:44:08Z</time>
      </trkpt>
      <trkpt lat="46.83491" lon="6.00305">
        <ele>786.3</ele>
        <time>2022-05-01T15:44:12Z</time>
      </trkpt>
      <trkpt lat="46.83494" lon="6.0031">
        <ele>785.9</ele>
        <time>2022-05-01T15:44:16Z</time>
      </trkpt>
      <trkpt lat="46.83498" lon="6.00315">
        <ele>786.3</ele>
        <time>2022-05-01T15:44:21Z</time>
      </trkpt>
      <trkpt lat="46.83502" lon="6.00321">
        <ele>786.9</ele>
        <time>2022-05-01T15:44:25Z</time>
      </trkpt>
      <trkpt lat="46.83506" lon="6.00326">
        <ele>788.3</ele>
        <time>2022-05-01T15:44:30Z</time>
      </trkpt>
      <trkpt lat="46.83511" lon="6.00328">
        <ele>790.9</ele>
        <time>2022-05-01T15:44:36Z</time>
      </trkpt>
      <trkpt lat="46.83516" lon="6.00328">
        <ele>796.3</ele>
        <time>2022-05-01T15:44:44Z</time>
      </trkpt>
      <trkpt lat="46.83521" lon="6.00327">
        <ele>799.5</ele>
        <time>2022-05-01T15:44:51Z</time>
      </trkpt>
      <trkpt lat="46.83525" lon="6.0033">
        <ele>799.6</ele>
        <time>2022-05-01T15:45:04Z</time>
      </trkpt>
      <trkpt lat="46.83529" lon="6.00337">
        <ele>799.7</ele>
        <time>2022-05-01T15:45:11Z</time>
      </trkpt>
      <trkpt lat="46.83532" lon="6.00343">
        <ele>799.5</ele>
        <time>2022-05-01T15:45:14Z</time>
      </trkpt>
      <trkpt lat="46.8353" lon="6.0035">
        <ele>800</ele>
        <time>2022-05-01T15:45:19Z</time>
      </trkpt>
      <trkpt lat="46.83526" lon="6.00354">
        <ele>800.2</ele>
        <time>2022-05-01T15:45:23Z</time>
      </trkpt>
      <trkpt lat="46.83524" lon="6.00361">
        <ele>800.9</ele>
        <time>2022-05-01T15:45:30Z</time>
      </trkpt>
      <trkpt lat="46.83527" lon="6.00368">
        <ele>801.4</ele>
        <time>2022-05-01T15:45:34Z</time>
      </trkpt>
      <trkpt lat="46.83527" lon="6.00375">
        <ele>801.8</ele>
        <time>2022-05-01T15:45:40Z</time>
      </trkpt>
      <trkpt lat="46.83527" lon="6.00382">
        <ele>802.1</ele>
        <time>2022-05-01T15:45:46Z</time>
      </trkpt>
      <trkpt lat="46.8353" lon="6.00388">
        <ele>802.5</ele>
        <time>2022-05-01T15:45:52Z</time>
      </trkpt>
      <trkpt lat="46.83532" lon="6.00394">
        <ele>802.6</ele>
        <time>2022-05-01T15:45:59Z</time>
      </trkpt>
      <trkpt lat="46.83536" lon="6.00399">
        <ele>802.9</ele>
        <time>2022-05-01T15:46:03Z</time>
      </trkpt>
      <trkpt lat="46.8354" lon="6.00402">
        <ele>803.5</ele>
        <time>2022-05-01T15:46:07Z</time>
      </trkpt>
      <trkpt lat="46.83543" lon="6.00408">
        <ele>804.1</ele>
        <time>2022-05-01T15:46:12Z</time>
      </trkpt>
      <trkpt lat="46.83544" lon="6.00414">
        <ele>804.4</ele>
        <time>2022-05-01T15:46:15Z</time>
      </trkpt>
      <trkpt lat="46.83547" lon="6.00421">
        <ele>804.4</ele>
        <time>2022-05-01T15:46:19Z</time>
      </trkpt>
      <trkpt lat="46.83549" lon="6.00427">
        <ele>804.6</ele>
        <time>2022-05-01T15:46:22Z</time>
      </trkpt>
      <trkpt lat="46.83552" lon="6.00433">
        <ele>805.3</ele>
        <time>2022-05-01T15:46:26Z</time>
      </trkpt>
      <trkpt lat="46.83555" lon="6.0044">
        <ele>806.3</ele>
        <time>2022-05-01T15:46:31Z</time>
      </trkpt>
      <trkpt lat="46.83556" lon="6.00447">
        <ele>807</ele>
        <time>2022-05-01T15:46:35Z</time>
      </trkpt>
      <trkpt lat="46.83556" lon="6.00454">
        <ele>808.1</ele>
        <time>2022-05-01T15:46:40Z</time>
      </trkpt>
      <trkpt lat="46.83554" lon="6.0046">
        <ele>809.1</ele>
        <time>2022-05-01T15:46:45Z</time>
      </trkpt>
      <trkpt lat="46.83552" lon="6.00466">
        <ele>809.7</ele>
        <time>2022-05-01T15:46:50Z</time>
      </trkpt>
      <trkpt lat="46.83551" lon="6.00473">
        <ele>810.2</ele>
        <time>2022-05-01T15:46:56Z</time>
      </trkpt>
      <trkpt lat="46.83554" lon="6.0048">
        <ele>811.3</ele>
        <time>2022-05-01T15:47:02Z</time>
      </trkpt>
      <trkpt lat="46.83552" lon="6.00486">
        <ele>812.5</ele>
        <time>2022-05-01T15:47:08Z</time>
      </trkpt>
      <trkpt lat="46.83549" lon="6.00491">
        <ele>813.2</ele>
        <time>2022-05-01T15:47:12Z</time>
      </trkpt>
      <trkpt lat="46.83549" lon="6.00498">
        <ele>814.1</ele>
        <time>2022-05-01T15:47:18Z</time>
      </trkpt>
      <trkpt lat="46.83548" lon="6.00505">
        <ele>814.3</ele>
        <time>2022-05-01T15:47:23Z</time>
      </trkpt>
      <trkpt lat="46.83548" lon="6.00512">
        <ele>814.7</ele>
        <time>2022-05-01T15:47:30Z</time>
      </trkpt>
      <trkpt lat="46.83545" lon="6.00519">
        <ele>815.5</ele>
        <time>2022-05-01T15:47:35Z</time>
      </trkpt>
      <trkpt lat="46.83542" lon="6.00523">
        <ele>816</ele>
        <time>2022-05-01T15:47:39Z</time>
      </trkpt>
      <trkpt lat="46.83538" lon="6.0053">
        <ele>816.6</ele>
        <time>2022-05-01T15:47:44Z</time>
      </trkpt>
      <trkpt lat="46.83537" lon="6.00537">
        <ele>817.5</ele>
        <time>2022-05-01T15:47:48Z</time>
      </trkpt>
      <trkpt lat="46.83535" lon="6.00543">
        <ele>819</ele>
        <time>2022-05-01T15:47:56Z</time>
      </trkpt>
      <trkpt lat="46.83533" lon="6.0055">
        <ele>819.3</ele>
        <time>2022-05-01T15:48:01Z</time>
      </trkpt>
      <trkpt lat="46.83533" lon="6.00559">
        <ele>819.3</ele>
        <time>2022-05-01T15:48:06Z</time>
      </trkpt>
      <trkpt lat="46.83532" lon="6.00566">
        <ele>819.1</ele>
        <time>2022-05-01T15:48:11Z</time>
      </trkpt>
      <trkpt lat="46.83531" lon="6.00573">
        <ele>819</ele>
        <time>2022-05-01T15:48:17Z</time>
      </trkpt>
      <trkpt lat="46.83529" lon="6.0058">
        <ele>816.3</ele>
        <time>2022-05-01T15:48:44Z</time>
      </trkpt>
      <trkpt lat="46.83528" lon="6.00587">
        <ele>815.4</ele>
        <time>2022-05-01T15:48:48Z</time>
      </trkpt>
      <trkpt lat="46.83526" lon="6.00594">
        <ele>814.6</ele>
        <time>2022-05-01T15:48:53Z</time>
      </trkpt>
      <trkpt lat="46.83526" lon="6.006">
        <ele>814.2</ele>
        <time>2022-05-01T15:48:58Z</time>
      </trkpt>
      <trkpt lat="46.83525" lon="6.00608">
        <ele>814</ele>
        <time>2022-05-01T15:49:03Z</time>
      </trkpt>
      <trkpt lat="46.83528" lon="6.00615">
        <ele>814.1</ele>
        <time>2022-05-01T15:49:09Z</time>
      </trkpt>
      <trkpt lat="46.83525" lon="6.00621">
        <ele>814.4</ele>
        <time>2022-05-01T15:49:14Z</time>
      </trkpt>
      <trkpt lat="46.83521" lon="6.00626">
        <ele>814.7</ele>
        <time>2022-05-01T15:49:20Z</time>
      </trkpt>
      <trkpt lat="46.83517" lon="6.00632">
        <ele>814.9</ele>
        <time>2022-05-01T15:49:39Z</time>
      </trkpt>
      <trkpt lat="46.83512" lon="6.00636">
        <ele>814.6</ele>
        <time>2022-05-01T15:49:42Z</time>
      </trkpt>
      <trkpt lat="46.83508" lon="6.00642">
        <ele>814</ele>
        <time>2022-05-01T15:49:45Z</time>
      </trkpt>
      <trkpt lat="46.83505" lon="6.00647">
        <ele>813.4</ele>
        <time>2022-05-01T15:49:48Z</time>
      </trkpt>
      <trkpt lat="46.83499" lon="6.0065">
        <ele>812.8</ele>
        <time>2022-05-01T15:49:52Z</time>
      </trkpt>
      <trkpt lat="46.83495" lon="6.00655">
        <ele>812</ele>
        <time>2022-05-01T15:49:55Z</time>
      </trkpt>
      <trkpt lat="46.83492" lon="6.0066">
        <ele>811.3</ele>
        <time>2022-05-01T15:49:58Z</time>
      </trkpt>
      <trkpt lat="46.83489" lon="6.00666">
        <ele>810.6</ele>
        <time>2022-05-01T15:50:03Z</time>
      </trkpt>
      <trkpt lat="46.83486" lon="6.00674">
        <ele>810</ele>
        <time>2022-05-01T15:50:06Z</time>
      </trkpt>
      <trkpt lat="46.83481" lon="6.00682">
        <ele>809.8</ele>
        <time>2022-05-01T15:50:09Z</time>
      </trkpt>
      <trkpt lat="46.83477" lon="6.00687">
        <ele>810</ele>
        <time>2022-05-01T15:50:12Z</time>
      </trkpt>
      <trkpt lat="46.83474" lon="6.00693">
        <ele>810.3</ele>
        <time>2022-05-01T15:50:17Z</time>
      </trkpt>
      <trkpt lat="46.83472" lon="6.007">
        <ele>810.3</ele>
        <time>2022-05-01T15:50:22Z</time>
      </trkpt>
      <trkpt lat="46.83472" lon="6.00707">
        <ele>809.8</ele>
        <time>2022-05-01T15:50:30Z</time>
      </trkpt>
      <trkpt lat="46.83476" lon="6.00711">
        <ele>809.3</ele>
        <time>2022-05-01T15:50:36Z</time>
      </trkpt>
      <trkpt lat="46.83478" lon="6.00717">
        <ele>808.5</ele>
        <time>2022-05-01T15:50:42Z</time>
      </trkpt>
      <trkpt lat="46.83479" lon="6.00724">
        <ele>808.1</ele>
        <time>2022-05-01T15:50:46Z</time>
      </trkpt>
      <trkpt lat="46.83479" lon="6.00731">
        <ele>807.7</ele>
        <time>2022-05-01T15:50:52Z</time>
      </trkpt>
      <trkpt lat="46.83479" lon="6.00739">
        <ele>807.2</ele>
        <time>2022-05-01T15:50:58Z</time>
      </trkpt>
      <trkpt lat="46.8348" lon="6.00746">
        <ele>806.7</ele>
        <time>2022-05-01T15:51:03Z</time>
      </trkpt>
      <trkpt lat="46.83483" lon="6.00751">
        <ele>806.1</ele>
        <time>2022-05-01T15:51:09Z</time>
      </trkpt>
      <trkpt lat="46.83489" lon="6.00753">
        <ele>805.6</ele>
        <time>2022-05-01T15:51:13Z</time>
      </trkpt>
      <trkpt lat="46.83486" lon="6.00759">
        <ele>807.2</ele>
        <time>2022-05-01T15:51:22Z</time>
      </trkpt>
      <trkpt lat="46.83485" lon="6.00767">
        <ele>808.7</ele>
        <time>2022-05-01T15:51:29Z</time>
      </trkpt>
      <trkpt lat="46.83483" lon="6.00773">
        <ele>809.3</ele>
        <time>2022-05-01T15:51:34Z</time>
      </trkpt>
      <trkpt lat="46.83479" lon="6.00779">
        <ele>809.6</ele>
        <time>2022-05-01T15:51:39Z</time>
      </trkpt>
      <trkpt lat="46.83476" lon="6.00785">
        <ele>809.9</ele>
        <time>2022-05-01T15:51:43Z</time>
      </trkpt>
      <trkpt lat="46.83474" lon="6.00792">
        <ele>810.2</ele>
        <time>2022-05-01T15:51:47Z</time>
      </trkpt>
      <trkpt lat="46.83472" lon="6.00798">
        <ele>810.2</ele>
        <time>2022-05-01T15:51:51Z</time>
      </trkpt>
      <trkpt lat="46.83469" lon="6.00803">
        <ele>810.1</ele>
        <time>2022-05-01T15:51:57Z</time>
      </trkpt>
      <trkpt lat="46.83465" lon="6.00809">
        <ele>809.7</ele>
        <time>2022-05-01T15:52:03Z</time>
      </trkpt>
      <trkpt lat="46.83464" lon="6.00816">
        <ele>809.4</ele>
        <time>2022-05-01T15:52:08Z</time>
      </trkpt>
      <trkpt lat="46.83464" lon="6.00823">
        <ele>809.3</ele>
        <time>2022-05-01T15:52:13Z</time>
      </trkpt>
      <trkpt lat="46.83465" lon="6.0083">
        <ele>809.1</ele>
        <time>2022-05-01T15:52:18Z</time>
      </trkpt>
      <trkpt lat="46.83465" lon="6.00837">
        <ele>808.2</ele>
        <time>2022-05-01T15:52:29Z</time>
      </trkpt>
      <trkpt lat="46.8346" lon="6.00841">
        <ele>807.8</ele>
        <time>2022-05-01T15:52:34Z</time>
      </trkpt>
      <trkpt lat="46.83457" lon="6.00846">
        <ele>807.4</ele>
        <time>2022-05-01T15:52:39Z</time>
      </trkpt>
      <trkpt lat="46.83457" lon="6.00854">
        <ele>807.1</ele>
        <time>2022-05-01T15:52:44Z</time>
      </trkpt>
      <trkpt lat="46.83458" lon="6.00861">
        <ele>807.1</ele>
        <time>2022-05-01T15:52:49Z</time>
      </trkpt>
      <trkpt lat="46.8346" lon="6.00868">
        <ele>807.3</ele>
        <time>2022-05-01T15:52:53Z</time>
      </trkpt>
      <trkpt lat="46.83462" lon="6.00875">
        <ele>806.9</ele>
        <time>2022-05-01T15:52:59Z</time>
      </trkpt>
      <trkpt lat="46.83464" lon="6.00883">
        <ele>806.1</ele>
        <time>2022-05-01T15:53:04Z</time>
      </trkpt>
      <trkpt lat="46.83466" lon="6.00889">
        <ele>805.2</ele>
        <time>2022-05-01T15:53:09Z</time>
      </trkpt>
      <trkpt lat="46.83468" lon="6.00895">
        <ele>804.8</ele>
        <time>2022-05-01T15:53:17Z</time>
      </trkpt>
      <trkpt lat="46.83466" lon="6.00901">
        <ele>805.4</ele>
        <time>2022-05-01T15:53:25Z</time>
      </trkpt>
      <trkpt lat="46.83471" lon="6.00903">
        <ele>807</ele>
        <time>2022-05-01T15:53:38Z</time>
      </trkpt>
      <trkpt lat="46.83469" lon="6.0091">
        <ele>808</ele>
        <time>2022-05-01T15:54:19Z</time>
      </trkpt>
      <trkpt lat="46.83467" lon="6.00916">
        <ele>807.4</ele>
        <time>2022-05-01T15:54:22Z</time>
      </trkpt>
      <trkpt lat="46.83464" lon="6.0092">
        <ele>806.1</ele>
        <time>2022-05-01T15:54:40Z</time>
      </trkpt>
      <trkpt lat="46.83462" lon="6.00928">
        <ele>807.9</ele>
        <time>2022-05-01T15:55:00Z</time>
      </trkpt>
    </trkseg>
  </trk>
</gpx>